<?xml version="1.0" encoding="UTF-8" standalone="no" ?>
<gpx xmlns="http://www.topografix.com/GPX/1/1" xmlns:xsi="http://www.w3.org/2001/XMLSchema-instance" xsi:schemaLocation="http://www.topografix.com/GPX/1/1 http://www.topografix.com/GPX/1/1/gpx.xsd" version="1.1" creator="VisuGPX - https://www.visugpx.com">
  <metadata>
    <name>Plestin jeudi 80 km</name>
  </metadata>
  <trk>
    <name><![CDATA[Plestin jeudi 80 km_1]]></name>
    <trkseg>
      <trkpt lat="48.67884" lon="-3.62592">
        <ele>54</ele>
        <time>2024-11-26T16:22:02Z</time>
      </trkpt>
      <trkpt lat="48.67886" lon="-3.62572">
        <ele>54</ele>
        <time>2024-11-26T16:22:04Z</time>
      </trkpt>
      <trkpt lat="48.67881" lon="-3.62537">
        <ele>56</ele>
        <time>2024-11-26T16:22:09Z</time>
      </trkpt>
      <trkpt lat="48.67869" lon="-3.62496">
        <ele>57</ele>
        <time>2024-11-26T16:22:14Z</time>
      </trkpt>
      <trkpt lat="48.67852" lon="-3.62424">
        <ele>58</ele>
        <time>2024-11-26T16:22:23Z</time>
      </trkpt>
      <trkpt lat="48.67873" lon="-3.62405">
        <ele>59</ele>
        <time>2024-11-26T16:22:27Z</time>
      </trkpt>
      <trkpt lat="48.67927" lon="-3.62348">
        <ele>63</ele>
        <time>2024-11-26T16:22:39Z</time>
      </trkpt>
      <trkpt lat="48.67866" lon="-3.62291">
        <ele>61</ele>
        <time>2024-11-26T16:22:52Z</time>
      </trkpt>
      <trkpt lat="48.67857" lon="-3.62287">
        <ele>60</ele>
        <time>2024-11-26T16:22:53Z</time>
      </trkpt>
      <trkpt lat="48.67838" lon="-3.62286">
        <ele>59</ele>
        <time>2024-11-26T16:22:57Z</time>
      </trkpt>
      <trkpt lat="48.67824" lon="-3.62281">
        <ele>58</ele>
        <time>2024-11-26T16:22:59Z</time>
      </trkpt>
      <trkpt lat="48.67812" lon="-3.62273">
        <ele>57</ele>
        <time>2024-11-26T16:23:02Z</time>
      </trkpt>
      <trkpt lat="48.67812" lon="-3.62098">
        <ele>54</ele>
        <time>2024-11-26T16:23:22Z</time>
      </trkpt>
      <trkpt lat="48.67815" lon="-3.62037">
        <ele>54</ele>
        <time>2024-11-26T16:23:29Z</time>
      </trkpt>
      <trkpt lat="48.67814" lon="-3.6202">
        <ele>54</ele>
        <time>2024-11-26T16:23:31Z</time>
      </trkpt>
      <trkpt lat="48.67795" lon="-3.62038">
        <ele>53</ele>
        <time>2024-11-26T16:23:35Z</time>
      </trkpt>
      <trkpt lat="48.67782" lon="-3.62044">
        <ele>53</ele>
        <time>2024-11-26T16:23:38Z</time>
      </trkpt>
      <trkpt lat="48.67767" lon="-3.62047">
        <ele>52</ele>
        <time>2024-11-26T16:23:40Z</time>
      </trkpt>
      <trkpt lat="48.67727" lon="-3.62032">
        <ele>50</ele>
        <time>2024-11-26T16:23:48Z</time>
      </trkpt>
      <trkpt lat="48.67707" lon="-3.62021">
        <ele>49</ele>
        <time>2024-11-26T16:23:52Z</time>
      </trkpt>
      <trkpt lat="48.67692" lon="-3.62008">
        <ele>48</ele>
        <time>2024-11-26T16:23:55Z</time>
      </trkpt>
      <trkpt lat="48.67679" lon="-3.61993">
        <ele>47</ele>
        <time>2024-11-26T16:23:58Z</time>
      </trkpt>
      <trkpt lat="48.67669" lon="-3.61967">
        <ele>47</ele>
        <time>2024-11-26T16:24:01Z</time>
      </trkpt>
      <trkpt lat="48.67647" lon="-3.61944">
        <ele>46</ele>
        <time>2024-11-26T16:24:06Z</time>
      </trkpt>
      <trkpt lat="48.67491" lon="-3.61814">
        <ele>45</ele>
        <time>2024-11-26T16:24:38Z</time>
      </trkpt>
      <trkpt lat="48.6747" lon="-3.61799">
        <ele>45</ele>
        <time>2024-11-26T16:24:42Z</time>
      </trkpt>
      <trkpt lat="48.67436" lon="-3.61779">
        <ele>44</ele>
        <time>2024-11-26T16:24:48Z</time>
      </trkpt>
      <trkpt lat="48.67395" lon="-3.61743">
        <ele>43</ele>
        <time>2024-11-26T16:24:57Z</time>
      </trkpt>
      <trkpt lat="48.67369" lon="-3.6173">
        <ele>43</ele>
        <time>2024-11-26T16:25:01Z</time>
      </trkpt>
      <trkpt lat="48.67313" lon="-3.61713">
        <ele>42</ele>
        <time>2024-11-26T16:25:12Z</time>
      </trkpt>
      <trkpt lat="48.67291" lon="-3.61709">
        <ele>43</ele>
        <time>2024-11-26T16:25:16Z</time>
      </trkpt>
      <trkpt lat="48.67271" lon="-3.6171">
        <ele>43</ele>
        <time>2024-11-26T16:25:19Z</time>
      </trkpt>
      <trkpt lat="48.67148" lon="-3.61737">
        <ele>45</ele>
        <time>2024-11-26T16:25:41Z</time>
      </trkpt>
      <trkpt lat="48.6712" lon="-3.61738">
        <ele>45</ele>
        <time>2024-11-26T16:25:46Z</time>
      </trkpt>
      <trkpt lat="48.6709" lon="-3.61733">
        <ele>44</ele>
        <time>2024-11-26T16:25:52Z</time>
      </trkpt>
      <trkpt lat="48.66955" lon="-3.61703">
        <ele>44</ele>
        <time>2024-11-26T16:26:16Z</time>
      </trkpt>
      <trkpt lat="48.66874" lon="-3.61688">
        <ele>45</ele>
        <time>2024-11-26T16:26:30Z</time>
      </trkpt>
      <trkpt lat="48.66904" lon="-3.61613">
        <ele>44</ele>
        <time>2024-11-26T16:26:41Z</time>
      </trkpt>
      <trkpt lat="48.66912" lon="-3.61579">
        <ele>43</ele>
        <time>2024-11-26T16:26:45Z</time>
      </trkpt>
      <trkpt lat="48.66923" lon="-3.61495">
        <ele>39</ele>
        <time>2024-11-26T16:26:55Z</time>
      </trkpt>
      <trkpt lat="48.66934" lon="-3.61385">
        <ele>36</ele>
        <time>2024-11-26T16:27:08Z</time>
      </trkpt>
      <trkpt lat="48.66946" lon="-3.61344">
        <ele>34</ele>
        <time>2024-11-26T16:27:13Z</time>
      </trkpt>
      <trkpt lat="48.6698" lon="-3.61272">
        <ele>27</ele>
        <time>2024-11-26T16:27:24Z</time>
      </trkpt>
      <trkpt lat="48.66984" lon="-3.61261">
        <ele>26</ele>
        <time>2024-11-26T16:27:25Z</time>
      </trkpt>
      <trkpt lat="48.66989" lon="-3.61237">
        <ele>24</ele>
        <time>2024-11-26T16:27:28Z</time>
      </trkpt>
      <trkpt lat="48.66991" lon="-3.61214">
        <ele>22</ele>
        <time>2024-11-26T16:27:31Z</time>
      </trkpt>
      <trkpt lat="48.66987" lon="-3.61186">
        <ele>21</ele>
        <time>2024-11-26T16:27:34Z</time>
      </trkpt>
      <trkpt lat="48.66981" lon="-3.61163">
        <ele>21</ele>
        <time>2024-11-26T16:27:37Z</time>
      </trkpt>
      <trkpt lat="48.66977" lon="-3.61154">
        <ele>21</ele>
        <time>2024-11-26T16:27:38Z</time>
      </trkpt>
      <trkpt lat="48.66964" lon="-3.61135">
        <ele>21</ele>
        <time>2024-11-26T16:27:42Z</time>
      </trkpt>
      <trkpt lat="48.66958" lon="-3.61123">
        <ele>21</ele>
        <time>2024-11-26T16:27:43Z</time>
      </trkpt>
      <trkpt lat="48.66948" lon="-3.61095">
        <ele>21</ele>
        <time>2024-11-26T16:27:47Z</time>
      </trkpt>
      <trkpt lat="48.66944" lon="-3.61079">
        <ele>21</ele>
        <time>2024-11-26T16:27:49Z</time>
      </trkpt>
      <trkpt lat="48.66929" lon="-3.60991">
        <ele>20</ele>
        <time>2024-11-26T16:28:00Z</time>
      </trkpt>
      <trkpt lat="48.66916" lon="-3.60885">
        <ele>20</ele>
        <time>2024-11-26T16:28:13Z</time>
      </trkpt>
      <trkpt lat="48.66915" lon="-3.60844">
        <ele>20</ele>
        <time>2024-11-26T16:28:17Z</time>
      </trkpt>
      <trkpt lat="48.66926" lon="-3.60765">
        <ele>14</ele>
        <time>2024-11-26T16:28:27Z</time>
      </trkpt>
      <trkpt lat="48.66928" lon="-3.60732">
        <ele>13</ele>
        <time>2024-11-26T16:28:31Z</time>
      </trkpt>
      <trkpt lat="48.66852" lon="-3.59644">
        <ele>10</ele>
        <time>2024-11-26T16:30:39Z</time>
      </trkpt>
      <trkpt lat="48.66852" lon="-3.59596">
        <ele>11</ele>
        <time>2024-11-26T16:30:45Z</time>
      </trkpt>
      <trkpt lat="48.66855" lon="-3.59569">
        <ele>11</ele>
        <time>2024-11-26T16:30:48Z</time>
      </trkpt>
      <trkpt lat="48.6687" lon="-3.59507">
        <ele>10</ele>
        <time>2024-11-26T16:30:56Z</time>
      </trkpt>
      <trkpt lat="48.66888" lon="-3.59451">
        <ele>8</ele>
        <time>2024-11-26T16:31:03Z</time>
      </trkpt>
      <trkpt lat="48.66904" lon="-3.59408">
        <ele>7</ele>
        <time>2024-11-26T16:31:09Z</time>
      </trkpt>
      <trkpt lat="48.66964" lon="-3.59291">
        <ele>7</ele>
        <time>2024-11-26T16:31:26Z</time>
      </trkpt>
      <trkpt lat="48.67112" lon="-3.59019">
        <ele>12</ele>
        <time>2024-11-26T16:32:08Z</time>
      </trkpt>
      <trkpt lat="48.67132" lon="-3.58972">
        <ele>11</ele>
        <time>2024-11-26T16:32:14Z</time>
      </trkpt>
      <trkpt lat="48.67142" lon="-3.58937">
        <ele>9</ele>
        <time>2024-11-26T16:32:19Z</time>
      </trkpt>
      <trkpt lat="48.67149" lon="-3.58899">
        <ele>7</ele>
        <time>2024-11-26T16:32:24Z</time>
      </trkpt>
      <trkpt lat="48.6715" lon="-3.58867">
        <ele>8</ele>
        <time>2024-11-26T16:32:27Z</time>
      </trkpt>
      <trkpt lat="48.67146" lon="-3.58831">
        <ele>9</ele>
        <time>2024-11-26T16:32:32Z</time>
      </trkpt>
      <trkpt lat="48.67141" lon="-3.58813">
        <ele>10</ele>
        <time>2024-11-26T16:32:34Z</time>
      </trkpt>
      <trkpt lat="48.67129" lon="-3.58783">
        <ele>10</ele>
        <time>2024-11-26T16:32:38Z</time>
      </trkpt>
      <trkpt lat="48.6709" lon="-3.58705">
        <ele>8</ele>
        <time>2024-11-26T16:32:49Z</time>
      </trkpt>
      <trkpt lat="48.67078" lon="-3.58672">
        <ele>5</ele>
        <time>2024-11-26T16:32:54Z</time>
      </trkpt>
      <trkpt lat="48.67069" lon="-3.5863">
        <ele>4</ele>
        <time>2024-11-26T16:32:59Z</time>
      </trkpt>
      <trkpt lat="48.67053" lon="-3.58524">
        <ele>2</ele>
        <time>2024-11-26T16:33:12Z</time>
      </trkpt>
      <trkpt lat="48.67003" lon="-3.58549">
        <ele>8</ele>
        <time>2024-11-26T16:33:21Z</time>
      </trkpt>
      <trkpt lat="48.66984" lon="-3.58554">
        <ele>10</ele>
        <time>2024-11-26T16:33:25Z</time>
      </trkpt>
      <trkpt lat="48.6697" lon="-3.58553">
        <ele>11</ele>
        <time>2024-11-26T16:33:27Z</time>
      </trkpt>
      <trkpt lat="48.66946" lon="-3.58539">
        <ele>13</ele>
        <time>2024-11-26T16:33:32Z</time>
      </trkpt>
      <trkpt lat="48.66937" lon="-3.58528">
        <ele>13</ele>
        <time>2024-11-26T16:33:34Z</time>
      </trkpt>
      <trkpt lat="48.66926" lon="-3.58506">
        <ele>14</ele>
        <time>2024-11-26T16:33:37Z</time>
      </trkpt>
      <trkpt lat="48.66913" lon="-3.58454">
        <ele>15</ele>
        <time>2024-11-26T16:33:44Z</time>
      </trkpt>
      <trkpt lat="48.66893" lon="-3.58318">
        <ele>19</ele>
        <time>2024-11-26T16:34:00Z</time>
      </trkpt>
      <trkpt lat="48.66874" lon="-3.58205">
        <ele>31</ele>
        <time>2024-11-26T16:34:14Z</time>
      </trkpt>
      <trkpt lat="48.6687" lon="-3.58155">
        <ele>36</ele>
        <time>2024-11-26T16:34:20Z</time>
      </trkpt>
      <trkpt lat="48.66871" lon="-3.58136">
        <ele>37</ele>
        <time>2024-11-26T16:34:22Z</time>
      </trkpt>
      <trkpt lat="48.66889" lon="-3.58063">
        <ele>38</ele>
        <time>2024-11-26T16:34:31Z</time>
      </trkpt>
      <trkpt lat="48.66893" lon="-3.58037">
        <ele>39</ele>
        <time>2024-11-26T16:34:34Z</time>
      </trkpt>
      <trkpt lat="48.66895" lon="-3.58011">
        <ele>41</ele>
        <time>2024-11-26T16:34:37Z</time>
      </trkpt>
      <trkpt lat="48.66892" lon="-3.57963">
        <ele>44</ele>
        <time>2024-11-26T16:34:43Z</time>
      </trkpt>
      <trkpt lat="48.66886" lon="-3.57944">
        <ele>46</ele>
        <time>2024-11-26T16:34:45Z</time>
      </trkpt>
      <trkpt lat="48.66874" lon="-3.57925">
        <ele>49</ele>
        <time>2024-11-26T16:34:48Z</time>
      </trkpt>
      <trkpt lat="48.66857" lon="-3.57905">
        <ele>52</ele>
        <time>2024-11-26T16:34:52Z</time>
      </trkpt>
      <trkpt lat="48.66826" lon="-3.57881">
        <ele>56</ele>
        <time>2024-11-26T16:34:58Z</time>
      </trkpt>
      <trkpt lat="48.66783" lon="-3.57855">
        <ele>53</ele>
        <time>2024-11-26T16:35:07Z</time>
      </trkpt>
      <trkpt lat="48.66765" lon="-3.57855">
        <ele>53</ele>
        <time>2024-11-26T16:35:10Z</time>
      </trkpt>
      <trkpt lat="48.66741" lon="-3.57864">
        <ele>54</ele>
        <time>2024-11-26T16:35:14Z</time>
      </trkpt>
      <trkpt lat="48.66682" lon="-3.57901">
        <ele>60</ele>
        <time>2024-11-26T16:35:26Z</time>
      </trkpt>
      <trkpt lat="48.6661" lon="-3.57981">
        <ele>70</ele>
        <time>2024-11-26T16:35:42Z</time>
      </trkpt>
      <trkpt lat="48.66558" lon="-3.58063">
        <ele>77</ele>
        <time>2024-11-26T16:35:55Z</time>
      </trkpt>
      <trkpt lat="48.6654" lon="-3.58094">
        <ele>77</ele>
        <time>2024-11-26T16:36:00Z</time>
      </trkpt>
      <trkpt lat="48.66504" lon="-3.58182">
        <ele>82</ele>
        <time>2024-11-26T16:36:12Z</time>
      </trkpt>
      <trkpt lat="48.66487" lon="-3.58221">
        <ele>84</ele>
        <time>2024-11-26T16:36:17Z</time>
      </trkpt>
      <trkpt lat="48.66441" lon="-3.58275">
        <ele>82</ele>
        <time>2024-11-26T16:36:28Z</time>
      </trkpt>
      <trkpt lat="48.66349" lon="-3.58334">
        <ele>81</ele>
        <time>2024-11-26T16:36:46Z</time>
      </trkpt>
      <trkpt lat="48.66317" lon="-3.58351">
        <ele>81</ele>
        <time>2024-11-26T16:36:52Z</time>
      </trkpt>
      <trkpt lat="48.66306" lon="-3.58354">
        <ele>81</ele>
        <time>2024-11-26T16:36:54Z</time>
      </trkpt>
      <trkpt lat="48.66259" lon="-3.58361">
        <ele>81</ele>
        <time>2024-11-26T16:37:02Z</time>
      </trkpt>
      <trkpt lat="48.66186" lon="-3.5836">
        <ele>82</ele>
        <time>2024-11-26T16:37:15Z</time>
      </trkpt>
      <trkpt lat="48.66133" lon="-3.58337">
        <ele>83</ele>
        <time>2024-11-26T16:37:25Z</time>
      </trkpt>
      <trkpt lat="48.66123" lon="-3.5833">
        <ele>84</ele>
        <time>2024-11-26T16:37:27Z</time>
      </trkpt>
      <trkpt lat="48.66058" lon="-3.58254">
        <ele>83</ele>
        <time>2024-11-26T16:37:41Z</time>
      </trkpt>
      <trkpt lat="48.66024" lon="-3.58231">
        <ele>82</ele>
        <time>2024-11-26T16:37:48Z</time>
      </trkpt>
      <trkpt lat="48.66009" lon="-3.58227">
        <ele>81</ele>
        <time>2024-11-26T16:37:51Z</time>
      </trkpt>
      <trkpt lat="48.65965" lon="-3.58223">
        <ele>81</ele>
        <time>2024-11-26T16:37:58Z</time>
      </trkpt>
      <trkpt lat="48.65871" lon="-3.58206">
        <ele>81</ele>
        <time>2024-11-26T16:38:15Z</time>
      </trkpt>
      <trkpt lat="48.65776" lon="-3.58199">
        <ele>82</ele>
        <time>2024-11-26T16:38:32Z</time>
      </trkpt>
      <trkpt lat="48.65752" lon="-3.58195">
        <ele>82</ele>
        <time>2024-11-26T16:38:37Z</time>
      </trkpt>
      <trkpt lat="48.65642" lon="-3.58165">
        <ele>86</ele>
        <time>2024-11-26T16:38:56Z</time>
      </trkpt>
      <trkpt lat="48.6563" lon="-3.58164">
        <ele>85</ele>
        <time>2024-11-26T16:38:59Z</time>
      </trkpt>
      <trkpt lat="48.65535" lon="-3.58191">
        <ele>85</ele>
        <time>2024-11-26T16:39:16Z</time>
      </trkpt>
      <trkpt lat="48.65511" lon="-3.58204">
        <ele>86</ele>
        <time>2024-11-26T16:39:20Z</time>
      </trkpt>
      <trkpt lat="48.65495" lon="-3.58219">
        <ele>86</ele>
        <time>2024-11-26T16:39:24Z</time>
      </trkpt>
      <trkpt lat="48.65475" lon="-3.5825">
        <ele>85</ele>
        <time>2024-11-26T16:39:29Z</time>
      </trkpt>
      <trkpt lat="48.65417" lon="-3.58446">
        <ele>91</ele>
        <time>2024-11-26T16:39:54Z</time>
      </trkpt>
      <trkpt lat="48.6541" lon="-3.58498">
        <ele>91</ele>
        <time>2024-11-26T16:40:00Z</time>
      </trkpt>
      <trkpt lat="48.65401" lon="-3.58736">
        <ele>91</ele>
        <time>2024-11-26T16:40:28Z</time>
      </trkpt>
      <trkpt lat="48.65393" lon="-3.5879">
        <ele>91</ele>
        <time>2024-11-26T16:40:35Z</time>
      </trkpt>
      <trkpt lat="48.65345" lon="-3.58962">
        <ele>95</ele>
        <time>2024-11-26T16:40:57Z</time>
      </trkpt>
      <trkpt lat="48.65314" lon="-3.59142">
        <ele>96</ele>
        <time>2024-11-26T16:41:19Z</time>
      </trkpt>
      <trkpt lat="48.65306" lon="-3.59174">
        <ele>96</ele>
        <time>2024-11-26T16:41:23Z</time>
      </trkpt>
      <trkpt lat="48.6529" lon="-3.59217">
        <ele>97</ele>
        <time>2024-11-26T16:41:28Z</time>
      </trkpt>
      <trkpt lat="48.65274" lon="-3.59244">
        <ele>99</ele>
        <time>2024-11-26T16:41:33Z</time>
      </trkpt>
      <trkpt lat="48.65251" lon="-3.59267">
        <ele>100</ele>
        <time>2024-11-26T16:41:38Z</time>
      </trkpt>
      <trkpt lat="48.65223" lon="-3.59282">
        <ele>101</ele>
        <time>2024-11-26T16:41:43Z</time>
      </trkpt>
      <trkpt lat="48.65197" lon="-3.59291">
        <ele>102</ele>
        <time>2024-11-26T16:41:48Z</time>
      </trkpt>
      <trkpt lat="48.65166" lon="-3.59297">
        <ele>104</ele>
        <time>2024-11-26T16:41:53Z</time>
      </trkpt>
      <trkpt lat="48.65134" lon="-3.59297">
        <ele>105</ele>
        <time>2024-11-26T16:41:59Z</time>
      </trkpt>
      <trkpt lat="48.65106" lon="-3.59286">
        <ele>105</ele>
        <time>2024-11-26T16:42:04Z</time>
      </trkpt>
      <trkpt lat="48.6507" lon="-3.59267">
        <ele>106</ele>
        <time>2024-11-26T16:42:11Z</time>
      </trkpt>
      <trkpt lat="48.65044" lon="-3.59257">
        <ele>107</ele>
        <time>2024-11-26T16:42:16Z</time>
      </trkpt>
      <trkpt lat="48.65022" lon="-3.59256">
        <ele>107</ele>
        <time>2024-11-26T16:42:19Z</time>
      </trkpt>
      <trkpt lat="48.64998" lon="-3.59265">
        <ele>108</ele>
        <time>2024-11-26T16:42:24Z</time>
      </trkpt>
      <trkpt lat="48.64975" lon="-3.59278">
        <ele>109</ele>
        <time>2024-11-26T16:42:28Z</time>
      </trkpt>
      <trkpt lat="48.6495" lon="-3.59302">
        <ele>110</ele>
        <time>2024-11-26T16:42:34Z</time>
      </trkpt>
      <trkpt lat="48.64929" lon="-3.59332">
        <ele>112</ele>
        <time>2024-11-26T16:42:39Z</time>
      </trkpt>
      <trkpt lat="48.64899" lon="-3.59388">
        <ele>112</ele>
        <time>2024-11-26T16:42:47Z</time>
      </trkpt>
      <trkpt lat="48.64875" lon="-3.59437">
        <ele>111</ele>
        <time>2024-11-26T16:42:54Z</time>
      </trkpt>
      <trkpt lat="48.64846" lon="-3.59515">
        <ele>109</ele>
        <time>2024-11-26T16:43:05Z</time>
      </trkpt>
      <trkpt lat="48.6484" lon="-3.59509">
        <ele>109</ele>
        <time>2024-11-26T16:43:06Z</time>
      </trkpt>
      <trkpt lat="48.64835" lon="-3.59496">
        <ele>109</ele>
        <time>2024-11-26T16:43:08Z</time>
      </trkpt>
      <trkpt lat="48.64816" lon="-3.59416">
        <ele>110</ele>
        <time>2024-11-26T16:43:18Z</time>
      </trkpt>
      <trkpt lat="48.64803" lon="-3.59371">
        <ele>111</ele>
        <time>2024-11-26T16:43:24Z</time>
      </trkpt>
      <trkpt lat="48.64789" lon="-3.59316">
        <ele>112</ele>
        <time>2024-11-26T16:43:31Z</time>
      </trkpt>
      <trkpt lat="48.6478" lon="-3.59266">
        <ele>112</ele>
        <time>2024-11-26T16:43:37Z</time>
      </trkpt>
      <trkpt lat="48.64778" lon="-3.59241">
        <ele>112</ele>
        <time>2024-11-26T16:43:40Z</time>
      </trkpt>
      <trkpt lat="48.64777" lon="-3.59218">
        <ele>111</ele>
        <time>2024-11-26T16:43:42Z</time>
      </trkpt>
      <trkpt lat="48.64796" lon="-3.58771">
        <ele>99</ele>
        <time>2024-11-26T16:44:35Z</time>
      </trkpt>
      <trkpt lat="48.64785" lon="-3.58518">
        <ele>95</ele>
        <time>2024-11-26T16:45:05Z</time>
      </trkpt>
      <trkpt lat="48.64781" lon="-3.585">
        <ele>95</ele>
        <time>2024-11-26T16:45:07Z</time>
      </trkpt>
      <trkpt lat="48.6477" lon="-3.58464">
        <ele>95</ele>
        <time>2024-11-26T16:45:12Z</time>
      </trkpt>
      <trkpt lat="48.64766" lon="-3.58456">
        <ele>95</ele>
        <time>2024-11-26T16:45:13Z</time>
      </trkpt>
      <trkpt lat="48.64761" lon="-3.58447">
        <ele>95</ele>
        <time>2024-11-26T16:45:14Z</time>
      </trkpt>
      <trkpt lat="48.64735" lon="-3.58423">
        <ele>94</ele>
        <time>2024-11-26T16:45:20Z</time>
      </trkpt>
      <trkpt lat="48.64621" lon="-3.58347">
        <ele>89</ele>
        <time>2024-11-26T16:45:42Z</time>
      </trkpt>
      <trkpt lat="48.64577" lon="-3.58321">
        <ele>86</ele>
        <time>2024-11-26T16:45:50Z</time>
      </trkpt>
      <trkpt lat="48.64558" lon="-3.58305">
        <ele>83</ele>
        <time>2024-11-26T16:45:54Z</time>
      </trkpt>
      <trkpt lat="48.64547" lon="-3.58293">
        <ele>81</ele>
        <time>2024-11-26T16:45:57Z</time>
      </trkpt>
      <trkpt lat="48.64525" lon="-3.58262">
        <ele>77</ele>
        <time>2024-11-26T16:46:02Z</time>
      </trkpt>
      <trkpt lat="48.64515" lon="-3.58242">
        <ele>75</ele>
        <time>2024-11-26T16:46:05Z</time>
      </trkpt>
      <trkpt lat="48.645" lon="-3.58168">
        <ele>70</ele>
        <time>2024-11-26T16:46:14Z</time>
      </trkpt>
      <trkpt lat="48.64499" lon="-3.58145">
        <ele>68</ele>
        <time>2024-11-26T16:46:17Z</time>
      </trkpt>
      <trkpt lat="48.64502" lon="-3.58124">
        <ele>67</ele>
        <time>2024-11-26T16:46:19Z</time>
      </trkpt>
      <trkpt lat="48.64508" lon="-3.58104">
        <ele>66</ele>
        <time>2024-11-26T16:46:22Z</time>
      </trkpt>
      <trkpt lat="48.64572" lon="-3.57935">
        <ele>48</ele>
        <time>2024-11-26T16:46:45Z</time>
      </trkpt>
      <trkpt lat="48.64629" lon="-3.57842">
        <ele>41</ele>
        <time>2024-11-26T16:47:00Z</time>
      </trkpt>
      <trkpt lat="48.6468" lon="-3.57777">
        <ele>36</ele>
        <time>2024-11-26T16:47:11Z</time>
      </trkpt>
      <trkpt lat="48.64686" lon="-3.5776">
        <ele>34</ele>
        <time>2024-11-26T16:47:14Z</time>
      </trkpt>
      <trkpt lat="48.64692" lon="-3.5774">
        <ele>33</ele>
        <time>2024-11-26T16:47:16Z</time>
      </trkpt>
      <trkpt lat="48.64697" lon="-3.57702">
        <ele>33</ele>
        <time>2024-11-26T16:47:21Z</time>
      </trkpt>
      <trkpt lat="48.64698" lon="-3.57609">
        <ele>40</ele>
        <time>2024-11-26T16:47:32Z</time>
      </trkpt>
      <trkpt lat="48.64697" lon="-3.57596">
        <ele>42</ele>
        <time>2024-11-26T16:47:33Z</time>
      </trkpt>
      <trkpt lat="48.64661" lon="-3.57617">
        <ele>37</ele>
        <time>2024-11-26T16:47:40Z</time>
      </trkpt>
      <trkpt lat="48.64624" lon="-3.57636">
        <ele>36</ele>
        <time>2024-11-26T16:47:47Z</time>
      </trkpt>
      <trkpt lat="48.64605" lon="-3.57658">
        <ele>36</ele>
        <time>2024-11-26T16:47:51Z</time>
      </trkpt>
      <trkpt lat="48.64587" lon="-3.5769">
        <ele>36</ele>
        <time>2024-11-26T16:47:56Z</time>
      </trkpt>
      <trkpt lat="48.64553" lon="-3.57721">
        <ele>41</ele>
        <time>2024-11-26T16:48:03Z</time>
      </trkpt>
      <trkpt lat="48.64443" lon="-3.57783">
        <ele>49</ele>
        <time>2024-11-26T16:48:24Z</time>
      </trkpt>
      <trkpt lat="48.64341" lon="-3.5789">
        <ele>57</ele>
        <time>2024-11-26T16:48:46Z</time>
      </trkpt>
      <trkpt lat="48.64279" lon="-3.57987">
        <ele>61</ele>
        <time>2024-11-26T16:49:02Z</time>
      </trkpt>
      <trkpt lat="48.64263" lon="-3.58004">
        <ele>63</ele>
        <time>2024-11-26T16:49:06Z</time>
      </trkpt>
      <trkpt lat="48.64242" lon="-3.58018">
        <ele>64</ele>
        <time>2024-11-26T16:49:10Z</time>
      </trkpt>
      <trkpt lat="48.64228" lon="-3.58019">
        <ele>63</ele>
        <time>2024-11-26T16:49:12Z</time>
      </trkpt>
      <trkpt lat="48.64218" lon="-3.58012">
        <ele>64</ele>
        <time>2024-11-26T16:49:14Z</time>
      </trkpt>
      <trkpt lat="48.64191" lon="-3.57983">
        <ele>66</ele>
        <time>2024-11-26T16:49:20Z</time>
      </trkpt>
      <trkpt lat="48.64116" lon="-3.57957">
        <ele>71</ele>
        <time>2024-11-26T16:49:34Z</time>
      </trkpt>
      <trkpt lat="48.64038" lon="-3.57818">
        <ele>81</ele>
        <time>2024-11-26T16:49:55Z</time>
      </trkpt>
      <trkpt lat="48.63973" lon="-3.57739">
        <ele>85</ele>
        <time>2024-11-26T16:50:10Z</time>
      </trkpt>
      <trkpt lat="48.63942" lon="-3.57712">
        <ele>86</ele>
        <time>2024-11-26T16:50:16Z</time>
      </trkpt>
      <trkpt lat="48.63882" lon="-3.57672">
        <ele>86</ele>
        <time>2024-11-26T16:50:28Z</time>
      </trkpt>
      <trkpt lat="48.63823" lon="-3.57645">
        <ele>85</ele>
        <time>2024-11-26T16:50:39Z</time>
      </trkpt>
      <trkpt lat="48.63767" lon="-3.57606">
        <ele>83</ele>
        <time>2024-11-26T16:50:50Z</time>
      </trkpt>
      <trkpt lat="48.63705" lon="-3.57572">
        <ele>81</ele>
        <time>2024-11-26T16:51:02Z</time>
      </trkpt>
      <trkpt lat="48.63682" lon="-3.57564">
        <ele>81</ele>
        <time>2024-11-26T16:51:06Z</time>
      </trkpt>
      <trkpt lat="48.63662" lon="-3.57553">
        <ele>81</ele>
        <time>2024-11-26T16:51:10Z</time>
      </trkpt>
      <trkpt lat="48.6365" lon="-3.57546">
        <ele>81</ele>
        <time>2024-11-26T16:51:12Z</time>
      </trkpt>
      <trkpt lat="48.63641" lon="-3.57536">
        <ele>82</ele>
        <time>2024-11-26T16:51:14Z</time>
      </trkpt>
      <trkpt lat="48.63631" lon="-3.57519">
        <ele>83</ele>
        <time>2024-11-26T16:51:17Z</time>
      </trkpt>
      <trkpt lat="48.63606" lon="-3.574">
        <ele>89</ele>
        <time>2024-11-26T16:51:31Z</time>
      </trkpt>
      <trkpt lat="48.63547" lon="-3.57314">
        <ele>90</ele>
        <time>2024-11-26T16:51:46Z</time>
      </trkpt>
      <trkpt lat="48.6353" lon="-3.57292">
        <ele>90</ele>
        <time>2024-11-26T16:51:50Z</time>
      </trkpt>
      <trkpt lat="48.63483" lon="-3.5726">
        <ele>89</ele>
        <time>2024-11-26T16:51:59Z</time>
      </trkpt>
      <trkpt lat="48.63464" lon="-3.57243">
        <ele>89</ele>
        <time>2024-11-26T16:52:03Z</time>
      </trkpt>
      <trkpt lat="48.63453" lon="-3.57226">
        <ele>89</ele>
        <time>2024-11-26T16:52:06Z</time>
      </trkpt>
      <trkpt lat="48.63445" lon="-3.57204">
        <ele>89</ele>
        <time>2024-11-26T16:52:09Z</time>
      </trkpt>
      <trkpt lat="48.63449" lon="-3.57118">
        <ele>90</ele>
        <time>2024-11-26T16:52:19Z</time>
      </trkpt>
      <trkpt lat="48.6344" lon="-3.57092">
        <ele>90</ele>
        <time>2024-11-26T16:52:22Z</time>
      </trkpt>
      <trkpt lat="48.63401" lon="-3.57029">
        <ele>91</ele>
        <time>2024-11-26T16:52:33Z</time>
      </trkpt>
      <trkpt lat="48.63347" lon="-3.56958">
        <ele>94</ele>
        <time>2024-11-26T16:52:45Z</time>
      </trkpt>
      <trkpt lat="48.63333" lon="-3.56952">
        <ele>95</ele>
        <time>2024-11-26T16:52:48Z</time>
      </trkpt>
      <trkpt lat="48.63322" lon="-3.56955">
        <ele>95</ele>
        <time>2024-11-26T16:52:50Z</time>
      </trkpt>
      <trkpt lat="48.63263" lon="-3.56997">
        <ele>97</ele>
        <time>2024-11-26T16:53:01Z</time>
      </trkpt>
      <trkpt lat="48.63167" lon="-3.57052">
        <ele>97</ele>
        <time>2024-11-26T16:53:20Z</time>
      </trkpt>
      <trkpt lat="48.63088" lon="-3.57084">
        <ele>96</ele>
        <time>2024-11-26T16:53:34Z</time>
      </trkpt>
      <trkpt lat="48.6294" lon="-3.57129">
        <ele>97</ele>
        <time>2024-11-26T16:54:01Z</time>
      </trkpt>
      <trkpt lat="48.62922" lon="-3.57128">
        <ele>97</ele>
        <time>2024-11-26T16:54:04Z</time>
      </trkpt>
      <trkpt lat="48.62885" lon="-3.57105">
        <ele>98</ele>
        <time>2024-11-26T16:54:11Z</time>
      </trkpt>
      <trkpt lat="48.62859" lon="-3.57092">
        <ele>98</ele>
        <time>2024-11-26T16:54:16Z</time>
      </trkpt>
      <trkpt lat="48.62839" lon="-3.57093">
        <ele>99</ele>
        <time>2024-11-26T16:54:20Z</time>
      </trkpt>
      <trkpt lat="48.62831" lon="-3.57096">
        <ele>99</ele>
        <time>2024-11-26T16:54:21Z</time>
      </trkpt>
      <trkpt lat="48.62794" lon="-3.57119">
        <ele>99</ele>
        <time>2024-11-26T16:54:28Z</time>
      </trkpt>
      <trkpt lat="48.62762" lon="-3.57145">
        <ele>99</ele>
        <time>2024-11-26T16:54:35Z</time>
      </trkpt>
      <trkpt lat="48.62728" lon="-3.57152">
        <ele>100</ele>
        <time>2024-11-26T16:54:41Z</time>
      </trkpt>
      <trkpt lat="48.62718" lon="-3.57156">
        <ele>100</ele>
        <time>2024-11-26T16:54:43Z</time>
      </trkpt>
      <trkpt lat="48.62699" lon="-3.57171">
        <ele>100</ele>
        <time>2024-11-26T16:54:47Z</time>
      </trkpt>
      <trkpt lat="48.62691" lon="-3.57181">
        <ele>100</ele>
        <time>2024-11-26T16:54:49Z</time>
      </trkpt>
      <trkpt lat="48.62681" lon="-3.57197">
        <ele>100</ele>
        <time>2024-11-26T16:54:51Z</time>
      </trkpt>
      <trkpt lat="48.6262" lon="-3.57268">
        <ele>100</ele>
        <time>2024-11-26T16:55:05Z</time>
      </trkpt>
      <trkpt lat="48.62596" lon="-3.57288">
        <ele>100</ele>
        <time>2024-11-26T16:55:10Z</time>
      </trkpt>
      <trkpt lat="48.62428" lon="-3.5729">
        <ele>103</ele>
        <time>2024-11-26T16:55:40Z</time>
      </trkpt>
      <trkpt lat="48.62373" lon="-3.57286">
        <ele>105</ele>
        <time>2024-11-26T16:55:49Z</time>
      </trkpt>
      <trkpt lat="48.62322" lon="-3.57273">
        <ele>106</ele>
        <time>2024-11-26T16:55:59Z</time>
      </trkpt>
      <trkpt lat="48.62297" lon="-3.57262">
        <ele>107</ele>
        <time>2024-11-26T16:56:03Z</time>
      </trkpt>
      <trkpt lat="48.62252" lon="-3.5723">
        <ele>108</ele>
        <time>2024-11-26T16:56:12Z</time>
      </trkpt>
      <trkpt lat="48.62232" lon="-3.57226">
        <ele>108</ele>
        <time>2024-11-26T16:56:16Z</time>
      </trkpt>
      <trkpt lat="48.62104" lon="-3.57237">
        <ele>107</ele>
        <time>2024-11-26T16:56:38Z</time>
      </trkpt>
      <trkpt lat="48.61859" lon="-3.57224">
        <ele>110</ele>
        <time>2024-11-26T16:57:22Z</time>
      </trkpt>
      <trkpt lat="48.61822" lon="-3.57217">
        <ele>111</ele>
        <time>2024-11-26T16:57:29Z</time>
      </trkpt>
      <trkpt lat="48.61784" lon="-3.57203">
        <ele>111</ele>
        <time>2024-11-26T16:57:36Z</time>
      </trkpt>
      <trkpt lat="48.61712" lon="-3.57197">
        <ele>111</ele>
        <time>2024-11-26T16:57:48Z</time>
      </trkpt>
      <trkpt lat="48.61604" lon="-3.57205">
        <ele>114</ele>
        <time>2024-11-26T16:58:08Z</time>
      </trkpt>
      <trkpt lat="48.61544" lon="-3.57203">
        <ele>116</ele>
        <time>2024-11-26T16:58:18Z</time>
      </trkpt>
      <trkpt lat="48.61531" lon="-3.57205">
        <ele>117</ele>
        <time>2024-11-26T16:58:21Z</time>
      </trkpt>
      <trkpt lat="48.61513" lon="-3.57214">
        <ele>118</ele>
        <time>2024-11-26T16:58:24Z</time>
      </trkpt>
      <trkpt lat="48.61505" lon="-3.5722">
        <ele>119</ele>
        <time>2024-11-26T16:58:26Z</time>
      </trkpt>
      <trkpt lat="48.61484" lon="-3.57243">
        <ele>121</ele>
        <time>2024-11-26T16:58:30Z</time>
      </trkpt>
      <trkpt lat="48.61467" lon="-3.57257">
        <ele>121</ele>
        <time>2024-11-26T16:58:34Z</time>
      </trkpt>
      <trkpt lat="48.61454" lon="-3.57264">
        <ele>122</ele>
        <time>2024-11-26T16:58:36Z</time>
      </trkpt>
      <trkpt lat="48.61428" lon="-3.57268">
        <ele>122</ele>
        <time>2024-11-26T16:58:41Z</time>
      </trkpt>
      <trkpt lat="48.61389" lon="-3.57268">
        <ele>122</ele>
        <time>2024-11-26T16:58:48Z</time>
      </trkpt>
      <trkpt lat="48.61371" lon="-3.57273">
        <ele>123</ele>
        <time>2024-11-26T16:58:51Z</time>
      </trkpt>
      <trkpt lat="48.61359" lon="-3.57278">
        <ele>123</ele>
        <time>2024-11-26T16:58:53Z</time>
      </trkpt>
      <trkpt lat="48.61307" lon="-3.57313">
        <ele>125</ele>
        <time>2024-11-26T16:59:03Z</time>
      </trkpt>
      <trkpt lat="48.61219" lon="-3.57357">
        <ele>125</ele>
        <time>2024-11-26T16:59:20Z</time>
      </trkpt>
      <trkpt lat="48.6115" lon="-3.57369">
        <ele>124</ele>
        <time>2024-11-26T16:59:32Z</time>
      </trkpt>
      <trkpt lat="48.61126" lon="-3.57381">
        <ele>125</ele>
        <time>2024-11-26T16:59:37Z</time>
      </trkpt>
      <trkpt lat="48.61016" lon="-3.5741">
        <ele>129</ele>
        <time>2024-11-26T16:59:57Z</time>
      </trkpt>
      <trkpt lat="48.61032" lon="-3.57358">
        <ele>126</ele>
        <time>2024-11-26T17:00:03Z</time>
      </trkpt>
      <trkpt lat="48.61045" lon="-3.57326">
        <ele>124</ele>
        <time>2024-11-26T17:00:08Z</time>
      </trkpt>
      <trkpt lat="48.61066" lon="-3.57292">
        <ele>122</ele>
        <time>2024-11-26T17:00:13Z</time>
      </trkpt>
      <trkpt lat="48.61082" lon="-3.5726">
        <ele>120</ele>
        <time>2024-11-26T17:00:18Z</time>
      </trkpt>
      <trkpt lat="48.61111" lon="-3.57186">
        <ele>116</ele>
        <time>2024-11-26T17:00:28Z</time>
      </trkpt>
      <trkpt lat="48.61147" lon="-3.57122">
        <ele>114</ele>
        <time>2024-11-26T17:00:38Z</time>
      </trkpt>
      <trkpt lat="48.61154" lon="-3.57105">
        <ele>114</ele>
        <time>2024-11-26T17:00:40Z</time>
      </trkpt>
      <trkpt lat="48.61159" lon="-3.5709">
        <ele>114</ele>
        <time>2024-11-26T17:00:42Z</time>
      </trkpt>
      <trkpt lat="48.61162" lon="-3.57068">
        <ele>114</ele>
        <time>2024-11-26T17:00:45Z</time>
      </trkpt>
      <trkpt lat="48.61166" lon="-3.57025">
        <ele>115</ele>
        <time>2024-11-26T17:00:50Z</time>
      </trkpt>
      <trkpt lat="48.61176" lon="-3.56985">
        <ele>115</ele>
        <time>2024-11-26T17:00:55Z</time>
      </trkpt>
      <trkpt lat="48.61202" lon="-3.56914">
        <ele>115</ele>
        <time>2024-11-26T17:01:05Z</time>
      </trkpt>
      <trkpt lat="48.61261" lon="-3.56728">
        <ele>111</ele>
        <time>2024-11-26T17:01:29Z</time>
      </trkpt>
      <trkpt lat="48.61278" lon="-3.56659">
        <ele>110</ele>
        <time>2024-11-26T17:01:38Z</time>
      </trkpt>
      <trkpt lat="48.61294" lon="-3.56627">
        <ele>111</ele>
        <time>2024-11-26T17:01:42Z</time>
      </trkpt>
      <trkpt lat="48.61334" lon="-3.56574">
        <ele>113</ele>
        <time>2024-11-26T17:01:52Z</time>
      </trkpt>
      <trkpt lat="48.61344" lon="-3.56555">
        <ele>114</ele>
        <time>2024-11-26T17:01:55Z</time>
      </trkpt>
      <trkpt lat="48.6135" lon="-3.56541">
        <ele>114</ele>
        <time>2024-11-26T17:01:57Z</time>
      </trkpt>
      <trkpt lat="48.61365" lon="-3.56482">
        <ele>117</ele>
        <time>2024-11-26T17:02:04Z</time>
      </trkpt>
      <trkpt lat="48.61383" lon="-3.56423">
        <ele>119</ele>
        <time>2024-11-26T17:02:12Z</time>
      </trkpt>
      <trkpt lat="48.61421" lon="-3.56341">
        <ele>120</ele>
        <time>2024-11-26T17:02:23Z</time>
      </trkpt>
      <trkpt lat="48.61457" lon="-3.56288">
        <ele>119</ele>
        <time>2024-11-26T17:02:32Z</time>
      </trkpt>
      <trkpt lat="48.61468" lon="-3.56264">
        <ele>119</ele>
        <time>2024-11-26T17:02:36Z</time>
      </trkpt>
      <trkpt lat="48.61475" lon="-3.56237">
        <ele>119</ele>
        <time>2024-11-26T17:02:39Z</time>
      </trkpt>
      <trkpt lat="48.61481" lon="-3.56169">
        <ele>119</ele>
        <time>2024-11-26T17:02:47Z</time>
      </trkpt>
      <trkpt lat="48.61484" lon="-3.56147">
        <ele>119</ele>
        <time>2024-11-26T17:02:50Z</time>
      </trkpt>
      <trkpt lat="48.61488" lon="-3.56129">
        <ele>119</ele>
        <time>2024-11-26T17:02:52Z</time>
      </trkpt>
      <trkpt lat="48.61496" lon="-3.56109">
        <ele>119</ele>
        <time>2024-11-26T17:02:55Z</time>
      </trkpt>
      <trkpt lat="48.61505" lon="-3.56095">
        <ele>119</ele>
        <time>2024-11-26T17:02:57Z</time>
      </trkpt>
      <trkpt lat="48.61536" lon="-3.56058">
        <ele>118</ele>
        <time>2024-11-26T17:03:04Z</time>
      </trkpt>
      <trkpt lat="48.61575" lon="-3.5603">
        <ele>116</ele>
        <time>2024-11-26T17:03:12Z</time>
      </trkpt>
      <trkpt lat="48.61597" lon="-3.56012">
        <ele>116</ele>
        <time>2024-11-26T17:03:16Z</time>
      </trkpt>
      <trkpt lat="48.61607" lon="-3.56001">
        <ele>116</ele>
        <time>2024-11-26T17:03:19Z</time>
      </trkpt>
      <trkpt lat="48.61614" lon="-3.55992">
        <ele>116</ele>
        <time>2024-11-26T17:03:20Z</time>
      </trkpt>
      <trkpt lat="48.61631" lon="-3.55956">
        <ele>117</ele>
        <time>2024-11-26T17:03:25Z</time>
      </trkpt>
      <trkpt lat="48.61685" lon="-3.55882">
        <ele>118</ele>
        <time>2024-11-26T17:03:38Z</time>
      </trkpt>
      <trkpt lat="48.617" lon="-3.55858">
        <ele>118</ele>
        <time>2024-11-26T17:03:42Z</time>
      </trkpt>
      <trkpt lat="48.61725" lon="-3.55808">
        <ele>117</ele>
        <time>2024-11-26T17:03:50Z</time>
      </trkpt>
      <trkpt lat="48.61736" lon="-3.55777">
        <ele>117</ele>
        <time>2024-11-26T17:03:54Z</time>
      </trkpt>
      <trkpt lat="48.61746" lon="-3.55727">
        <ele>118</ele>
        <time>2024-11-26T17:04:00Z</time>
      </trkpt>
      <trkpt lat="48.61758" lon="-3.55632">
        <ele>118</ele>
        <time>2024-11-26T17:04:11Z</time>
      </trkpt>
      <trkpt lat="48.61772" lon="-3.5555">
        <ele>117</ele>
        <time>2024-11-26T17:04:21Z</time>
      </trkpt>
      <trkpt lat="48.61777" lon="-3.55542">
        <ele>116</ele>
        <time>2024-11-26T17:04:23Z</time>
      </trkpt>
      <trkpt lat="48.61786" lon="-3.55533">
        <ele>115</ele>
        <time>2024-11-26T17:04:24Z</time>
      </trkpt>
      <trkpt lat="48.61838" lon="-3.55511">
        <ele>109</ele>
        <time>2024-11-26T17:04:34Z</time>
      </trkpt>
      <trkpt lat="48.61868" lon="-3.55488">
        <ele>106</ele>
        <time>2024-11-26T17:04:40Z</time>
      </trkpt>
      <trkpt lat="48.61875" lon="-3.55476">
        <ele>105</ele>
        <time>2024-11-26T17:04:42Z</time>
      </trkpt>
      <trkpt lat="48.61881" lon="-3.55435">
        <ele>102</ele>
        <time>2024-11-26T17:04:47Z</time>
      </trkpt>
      <trkpt lat="48.61884" lon="-3.55417">
        <ele>101</ele>
        <time>2024-11-26T17:04:49Z</time>
      </trkpt>
      <trkpt lat="48.61886" lon="-3.55411">
        <ele>101</ele>
        <time>2024-11-26T17:04:50Z</time>
      </trkpt>
      <trkpt lat="48.61928" lon="-3.5536">
        <ele>98</ele>
        <time>2024-11-26T17:04:59Z</time>
      </trkpt>
      <trkpt lat="48.6196" lon="-3.55308">
        <ele>94</ele>
        <time>2024-11-26T17:05:08Z</time>
      </trkpt>
      <trkpt lat="48.61968" lon="-3.55291">
        <ele>93</ele>
        <time>2024-11-26T17:05:10Z</time>
      </trkpt>
      <trkpt lat="48.62" lon="-3.55192">
        <ele>86</ele>
        <time>2024-11-26T17:05:23Z</time>
      </trkpt>
      <trkpt lat="48.62023" lon="-3.5514">
        <ele>82</ele>
        <time>2024-11-26T17:05:31Z</time>
      </trkpt>
      <trkpt lat="48.62043" lon="-3.55116">
        <ele>80</ele>
        <time>2024-11-26T17:05:35Z</time>
      </trkpt>
      <trkpt lat="48.62064" lon="-3.55079">
        <ele>77</ele>
        <time>2024-11-26T17:05:41Z</time>
      </trkpt>
      <trkpt lat="48.62069" lon="-3.55065">
        <ele>77</ele>
        <time>2024-11-26T17:05:43Z</time>
      </trkpt>
      <trkpt lat="48.6207" lon="-3.55038">
        <ele>78</ele>
        <time>2024-11-26T17:05:46Z</time>
      </trkpt>
      <trkpt lat="48.62059" lon="-3.54994">
        <ele>79</ele>
        <time>2024-11-26T17:05:51Z</time>
      </trkpt>
      <trkpt lat="48.62048" lon="-3.5496">
        <ele>79</ele>
        <time>2024-11-26T17:05:56Z</time>
      </trkpt>
      <trkpt lat="48.62051" lon="-3.54919">
        <ele>79</ele>
        <time>2024-11-26T17:06:01Z</time>
      </trkpt>
      <trkpt lat="48.62063" lon="-3.54802">
        <ele>83</ele>
        <time>2024-11-26T17:06:15Z</time>
      </trkpt>
      <trkpt lat="48.62069" lon="-3.54706">
        <ele>90</ele>
        <time>2024-11-26T17:06:26Z</time>
      </trkpt>
      <trkpt lat="48.62065" lon="-3.54625">
        <ele>96</ele>
        <time>2024-11-26T17:06:36Z</time>
      </trkpt>
      <trkpt lat="48.6205" lon="-3.54502">
        <ele>102</ele>
        <time>2024-11-26T17:06:50Z</time>
      </trkpt>
      <trkpt lat="48.62044" lon="-3.5444">
        <ele>104</ele>
        <time>2024-11-26T17:06:58Z</time>
      </trkpt>
      <trkpt lat="48.62032" lon="-3.54174">
        <ele>110</ele>
        <time>2024-11-26T17:07:29Z</time>
      </trkpt>
      <trkpt lat="48.62035" lon="-3.53963">
        <ele>111</ele>
        <time>2024-11-26T17:07:54Z</time>
      </trkpt>
      <trkpt lat="48.62034" lon="-3.5383">
        <ele>108</ele>
        <time>2024-11-26T17:08:09Z</time>
      </trkpt>
      <trkpt lat="48.62029" lon="-3.53811">
        <ele>108</ele>
        <time>2024-11-26T17:08:12Z</time>
      </trkpt>
      <trkpt lat="48.62026" lon="-3.53808">
        <ele>108</ele>
        <time>2024-11-26T17:08:12Z</time>
      </trkpt>
      <trkpt lat="48.62013" lon="-3.538">
        <ele>108</ele>
        <time>2024-11-26T17:08:15Z</time>
      </trkpt>
      <trkpt lat="48.61969" lon="-3.53788">
        <ele>108</ele>
        <time>2024-11-26T17:08:23Z</time>
      </trkpt>
      <trkpt lat="48.61976" lon="-3.53758">
        <ele>108</ele>
        <time>2024-11-26T17:08:27Z</time>
      </trkpt>
      <trkpt lat="48.62012" lon="-3.53644">
        <ele>106</ele>
        <time>2024-11-26T17:08:42Z</time>
      </trkpt>
      <trkpt lat="48.62048" lon="-3.5362">
        <ele>106</ele>
        <time>2024-11-26T17:08:49Z</time>
      </trkpt>
      <trkpt lat="48.62072" lon="-3.53587">
        <ele>106</ele>
        <time>2024-11-26T17:08:54Z</time>
      </trkpt>
      <trkpt lat="48.62085" lon="-3.53567">
        <ele>106</ele>
        <time>2024-11-26T17:08:58Z</time>
      </trkpt>
      <trkpt lat="48.62166" lon="-3.53403">
        <ele>106</ele>
        <time>2024-11-26T17:09:22Z</time>
      </trkpt>
      <trkpt lat="48.62189" lon="-3.53371">
        <ele>105</ele>
        <time>2024-11-26T17:09:27Z</time>
      </trkpt>
      <trkpt lat="48.62225" lon="-3.53349">
        <ele>102</ele>
        <time>2024-11-26T17:09:34Z</time>
      </trkpt>
      <trkpt lat="48.62233" lon="-3.53341">
        <ele>102</ele>
        <time>2024-11-26T17:09:36Z</time>
      </trkpt>
      <trkpt lat="48.62257" lon="-3.53302">
        <ele>99</ele>
        <time>2024-11-26T17:09:42Z</time>
      </trkpt>
      <trkpt lat="48.62265" lon="-3.53291">
        <ele>98</ele>
        <time>2024-11-26T17:09:44Z</time>
      </trkpt>
      <trkpt lat="48.62277" lon="-3.5328">
        <ele>97</ele>
        <time>2024-11-26T17:09:47Z</time>
      </trkpt>
      <trkpt lat="48.62317" lon="-3.53257">
        <ele>94</ele>
        <time>2024-11-26T17:09:54Z</time>
      </trkpt>
      <trkpt lat="48.62351" lon="-3.53231">
        <ele>92</ele>
        <time>2024-11-26T17:10:01Z</time>
      </trkpt>
      <trkpt lat="48.62377" lon="-3.53217">
        <ele>92</ele>
        <time>2024-11-26T17:10:06Z</time>
      </trkpt>
      <trkpt lat="48.6254" lon="-3.53201">
        <ele>91</ele>
        <time>2024-11-26T17:10:35Z</time>
      </trkpt>
      <trkpt lat="48.62555" lon="-3.53203">
        <ele>91</ele>
        <time>2024-11-26T17:10:38Z</time>
      </trkpt>
      <trkpt lat="48.62571" lon="-3.5321">
        <ele>91</ele>
        <time>2024-11-26T17:10:41Z</time>
      </trkpt>
      <trkpt lat="48.62596" lon="-3.53241">
        <ele>90</ele>
        <time>2024-11-26T17:10:46Z</time>
      </trkpt>
      <trkpt lat="48.6263" lon="-3.53291">
        <ele>90</ele>
        <time>2024-11-26T17:10:55Z</time>
      </trkpt>
      <trkpt lat="48.62642" lon="-3.53299">
        <ele>90</ele>
        <time>2024-11-26T17:10:57Z</time>
      </trkpt>
      <trkpt lat="48.62661" lon="-3.53304">
        <ele>91</ele>
        <time>2024-11-26T17:11:01Z</time>
      </trkpt>
      <trkpt lat="48.62692" lon="-3.53298">
        <ele>90</ele>
        <time>2024-11-26T17:11:06Z</time>
      </trkpt>
      <trkpt lat="48.62728" lon="-3.53259">
        <ele>89</ele>
        <time>2024-11-26T17:11:14Z</time>
      </trkpt>
      <trkpt lat="48.62749" lon="-3.53231">
        <ele>88</ele>
        <time>2024-11-26T17:11:19Z</time>
      </trkpt>
      <trkpt lat="48.62779" lon="-3.53178">
        <ele>85</ele>
        <time>2024-11-26T17:11:27Z</time>
      </trkpt>
      <trkpt lat="48.62797" lon="-3.53142">
        <ele>83</ele>
        <time>2024-11-26T17:11:32Z</time>
      </trkpt>
      <trkpt lat="48.62849" lon="-3.52965">
        <ele>78</ele>
        <time>2024-11-26T17:11:55Z</time>
      </trkpt>
      <trkpt lat="48.62858" lon="-3.5294">
        <ele>79</ele>
        <time>2024-11-26T17:11:59Z</time>
      </trkpt>
      <trkpt lat="48.62869" lon="-3.52921">
        <ele>79</ele>
        <time>2024-11-26T17:12:02Z</time>
      </trkpt>
      <trkpt lat="48.62881" lon="-3.5291">
        <ele>80</ele>
        <time>2024-11-26T17:12:04Z</time>
      </trkpt>
      <trkpt lat="48.62898" lon="-3.52903">
        <ele>80</ele>
        <time>2024-11-26T17:12:07Z</time>
      </trkpt>
      <trkpt lat="48.62915" lon="-3.52903">
        <ele>80</ele>
        <time>2024-11-26T17:12:10Z</time>
      </trkpt>
      <trkpt lat="48.62928" lon="-3.52906">
        <ele>80</ele>
        <time>2024-11-26T17:12:13Z</time>
      </trkpt>
      <trkpt lat="48.63009" lon="-3.52945">
        <ele>83</ele>
        <time>2024-11-26T17:12:28Z</time>
      </trkpt>
      <trkpt lat="48.63034" lon="-3.52954">
        <ele>84</ele>
        <time>2024-11-26T17:12:32Z</time>
      </trkpt>
      <trkpt lat="48.63068" lon="-3.52959">
        <ele>85</ele>
        <time>2024-11-26T17:12:38Z</time>
      </trkpt>
      <trkpt lat="48.63134" lon="-3.52954">
        <ele>89</ele>
        <time>2024-11-26T17:12:50Z</time>
      </trkpt>
      <trkpt lat="48.63146" lon="-3.52957">
        <ele>90</ele>
        <time>2024-11-26T17:12:52Z</time>
      </trkpt>
      <trkpt lat="48.63183" lon="-3.52973">
        <ele>92</ele>
        <time>2024-11-26T17:12:59Z</time>
      </trkpt>
      <trkpt lat="48.6321" lon="-3.52982">
        <ele>93</ele>
        <time>2024-11-26T17:13:04Z</time>
      </trkpt>
      <trkpt lat="48.63225" lon="-3.52981">
        <ele>93</ele>
        <time>2024-11-26T17:13:07Z</time>
      </trkpt>
      <trkpt lat="48.63234" lon="-3.52977">
        <ele>94</ele>
        <time>2024-11-26T17:13:08Z</time>
      </trkpt>
      <trkpt lat="48.63246" lon="-3.52968">
        <ele>94</ele>
        <time>2024-11-26T17:13:11Z</time>
      </trkpt>
      <trkpt lat="48.63275" lon="-3.52933">
        <ele>95</ele>
        <time>2024-11-26T17:13:17Z</time>
      </trkpt>
      <trkpt lat="48.63287" lon="-3.5291">
        <ele>95</ele>
        <time>2024-11-26T17:13:21Z</time>
      </trkpt>
      <trkpt lat="48.63322" lon="-3.52814">
        <ele>97</ele>
        <time>2024-11-26T17:13:34Z</time>
      </trkpt>
      <trkpt lat="48.63344" lon="-3.52748">
        <ele>100</ele>
        <time>2024-11-26T17:13:42Z</time>
      </trkpt>
      <trkpt lat="48.63363" lon="-3.52619">
        <ele>105</ele>
        <time>2024-11-26T17:13:58Z</time>
      </trkpt>
      <trkpt lat="48.63373" lon="-3.52513">
        <ele>106</ele>
        <time>2024-11-26T17:14:10Z</time>
      </trkpt>
      <trkpt lat="48.63403" lon="-3.52354">
        <ele>107</ele>
        <time>2024-11-26T17:14:30Z</time>
      </trkpt>
      <trkpt lat="48.63409" lon="-3.52313">
        <ele>108</ele>
        <time>2024-11-26T17:14:35Z</time>
      </trkpt>
      <trkpt lat="48.63421" lon="-3.52276">
        <ele>108</ele>
        <time>2024-11-26T17:14:40Z</time>
      </trkpt>
      <trkpt lat="48.63441" lon="-3.52242">
        <ele>108</ele>
        <time>2024-11-26T17:14:45Z</time>
      </trkpt>
      <trkpt lat="48.63496" lon="-3.52209">
        <ele>107</ele>
        <time>2024-11-26T17:14:56Z</time>
      </trkpt>
      <trkpt lat="48.63557" lon="-3.52179">
        <ele>105</ele>
        <time>2024-11-26T17:15:07Z</time>
      </trkpt>
      <trkpt lat="48.63648" lon="-3.52103">
        <ele>103</ele>
        <time>2024-11-26T17:15:26Z</time>
      </trkpt>
      <trkpt lat="48.63724" lon="-3.52043">
        <ele>104</ele>
        <time>2024-11-26T17:15:41Z</time>
      </trkpt>
      <trkpt lat="48.63744" lon="-3.52035">
        <ele>104</ele>
        <time>2024-11-26T17:15:44Z</time>
      </trkpt>
      <trkpt lat="48.63791" lon="-3.52032">
        <ele>105</ele>
        <time>2024-11-26T17:15:53Z</time>
      </trkpt>
      <trkpt lat="48.63994" lon="-3.52072">
        <ele>111</ele>
        <time>2024-11-26T17:16:29Z</time>
      </trkpt>
      <trkpt lat="48.64169" lon="-3.52082">
        <ele>119</ele>
        <time>2024-11-26T17:17:00Z</time>
      </trkpt>
      <trkpt lat="48.64198" lon="-3.52086">
        <ele>120</ele>
        <time>2024-11-26T17:17:06Z</time>
      </trkpt>
      <trkpt lat="48.64226" lon="-3.52096">
        <ele>121</ele>
        <time>2024-11-26T17:17:11Z</time>
      </trkpt>
      <trkpt lat="48.64276" lon="-3.52124">
        <ele>121</ele>
        <time>2024-11-26T17:17:20Z</time>
      </trkpt>
      <trkpt lat="48.64494" lon="-3.52285">
        <ele>112</ele>
        <time>2024-11-26T17:18:03Z</time>
      </trkpt>
      <trkpt lat="48.64548" lon="-3.5232">
        <ele>110</ele>
        <time>2024-11-26T17:18:14Z</time>
      </trkpt>
      <trkpt lat="48.64633" lon="-3.5237">
        <ele>109</ele>
        <time>2024-11-26T17:18:30Z</time>
      </trkpt>
      <trkpt lat="48.64649" lon="-3.52377">
        <ele>108</ele>
        <time>2024-11-26T17:18:33Z</time>
      </trkpt>
      <trkpt lat="48.64672" lon="-3.52386">
        <ele>108</ele>
        <time>2024-11-26T17:18:37Z</time>
      </trkpt>
      <trkpt lat="48.64686" lon="-3.52389">
        <ele>108</ele>
        <time>2024-11-26T17:18:40Z</time>
      </trkpt>
      <trkpt lat="48.64765" lon="-3.52393">
        <ele>108</ele>
        <time>2024-11-26T17:18:54Z</time>
      </trkpt>
      <trkpt lat="48.64792" lon="-3.52398">
        <ele>109</ele>
        <time>2024-11-26T17:18:59Z</time>
      </trkpt>
      <trkpt lat="48.64819" lon="-3.52408">
        <ele>109</ele>
        <time>2024-11-26T17:19:04Z</time>
      </trkpt>
      <trkpt lat="48.64867" lon="-3.52435">
        <ele>108</ele>
        <time>2024-11-26T17:19:13Z</time>
      </trkpt>
      <trkpt lat="48.64905" lon="-3.52448">
        <ele>108</ele>
        <time>2024-11-26T17:19:20Z</time>
      </trkpt>
      <trkpt lat="48.64921" lon="-3.5245">
        <ele>108</ele>
        <time>2024-11-26T17:19:22Z</time>
      </trkpt>
      <trkpt lat="48.64949" lon="-3.52449">
        <ele>107</ele>
        <time>2024-11-26T17:19:27Z</time>
      </trkpt>
      <trkpt lat="48.64976" lon="-3.5244">
        <ele>108</ele>
        <time>2024-11-26T17:19:32Z</time>
      </trkpt>
      <trkpt lat="48.65015" lon="-3.52416">
        <ele>108</ele>
        <time>2024-11-26T17:19:40Z</time>
      </trkpt>
      <trkpt lat="48.65063" lon="-3.52366">
        <ele>107</ele>
        <time>2024-11-26T17:19:50Z</time>
      </trkpt>
      <trkpt lat="48.65141" lon="-3.52276">
        <ele>107</ele>
        <time>2024-11-26T17:20:08Z</time>
      </trkpt>
      <trkpt lat="48.6517" lon="-3.5225">
        <ele>107</ele>
        <time>2024-11-26T17:20:14Z</time>
      </trkpt>
      <trkpt lat="48.65205" lon="-3.5223">
        <ele>108</ele>
        <time>2024-11-26T17:20:20Z</time>
      </trkpt>
      <trkpt lat="48.65236" lon="-3.52217">
        <ele>109</ele>
        <time>2024-11-26T17:20:26Z</time>
      </trkpt>
      <trkpt lat="48.65316" lon="-3.52192">
        <ele>109</ele>
        <time>2024-11-26T17:20:41Z</time>
      </trkpt>
      <trkpt lat="48.65408" lon="-3.52158">
        <ele>110</ele>
        <time>2024-11-26T17:20:57Z</time>
      </trkpt>
      <trkpt lat="48.655" lon="-3.52109">
        <ele>108</ele>
        <time>2024-11-26T17:21:15Z</time>
      </trkpt>
      <trkpt lat="48.65571" lon="-3.52075">
        <ele>107</ele>
        <time>2024-11-26T17:21:28Z</time>
      </trkpt>
      <trkpt lat="48.6564" lon="-3.52029">
        <ele>107</ele>
        <time>2024-11-26T17:21:41Z</time>
      </trkpt>
      <trkpt lat="48.65698" lon="-3.51985">
        <ele>107</ele>
        <time>2024-11-26T17:21:53Z</time>
      </trkpt>
      <trkpt lat="48.65748" lon="-3.51954">
        <ele>106</ele>
        <time>2024-11-26T17:22:03Z</time>
      </trkpt>
      <trkpt lat="48.65792" lon="-3.51941">
        <ele>106</ele>
        <time>2024-11-26T17:22:11Z</time>
      </trkpt>
      <trkpt lat="48.65837" lon="-3.51937">
        <ele>106</ele>
        <time>2024-11-26T17:22:19Z</time>
      </trkpt>
      <trkpt lat="48.65918" lon="-3.51938">
        <ele>104</ele>
        <time>2024-11-26T17:22:33Z</time>
      </trkpt>
      <trkpt lat="48.65938" lon="-3.51935">
        <ele>104</ele>
        <time>2024-11-26T17:22:37Z</time>
      </trkpt>
      <trkpt lat="48.66007" lon="-3.51918">
        <ele>105</ele>
        <time>2024-11-26T17:22:49Z</time>
      </trkpt>
      <trkpt lat="48.66065" lon="-3.51896">
        <ele>103</ele>
        <time>2024-11-26T17:23:00Z</time>
      </trkpt>
      <trkpt lat="48.66207" lon="-3.51818">
        <ele>101</ele>
        <time>2024-11-26T17:23:27Z</time>
      </trkpt>
      <trkpt lat="48.6631" lon="-3.51764">
        <ele>98</ele>
        <time>2024-11-26T17:23:46Z</time>
      </trkpt>
      <trkpt lat="48.66347" lon="-3.51741">
        <ele>97</ele>
        <time>2024-11-26T17:23:53Z</time>
      </trkpt>
      <trkpt lat="48.66376" lon="-3.51716">
        <ele>96</ele>
        <time>2024-11-26T17:23:59Z</time>
      </trkpt>
      <trkpt lat="48.66392" lon="-3.51698">
        <ele>96</ele>
        <time>2024-11-26T17:24:03Z</time>
      </trkpt>
      <trkpt lat="48.6642" lon="-3.51662">
        <ele>97</ele>
        <time>2024-11-26T17:24:09Z</time>
      </trkpt>
      <trkpt lat="48.66449" lon="-3.51615">
        <ele>98</ele>
        <time>2024-11-26T17:24:17Z</time>
      </trkpt>
      <trkpt lat="48.66461" lon="-3.51591">
        <ele>98</ele>
        <time>2024-11-26T17:24:20Z</time>
      </trkpt>
      <trkpt lat="48.66517" lon="-3.51441">
        <ele>100</ele>
        <time>2024-11-26T17:24:40Z</time>
      </trkpt>
      <trkpt lat="48.66602" lon="-3.51191">
        <ele>101</ele>
        <time>2024-11-26T17:25:13Z</time>
      </trkpt>
      <trkpt lat="48.66608" lon="-3.51162">
        <ele>101</ele>
        <time>2024-11-26T17:25:17Z</time>
      </trkpt>
      <trkpt lat="48.66631" lon="-3.51156">
        <ele>101</ele>
        <time>2024-11-26T17:25:21Z</time>
      </trkpt>
      <trkpt lat="48.66652" lon="-3.51144">
        <ele>101</ele>
        <time>2024-11-26T17:25:25Z</time>
      </trkpt>
      <trkpt lat="48.66688" lon="-3.51117">
        <ele>101</ele>
        <time>2024-11-26T17:25:32Z</time>
      </trkpt>
      <trkpt lat="48.66703" lon="-3.51102">
        <ele>102</ele>
        <time>2024-11-26T17:25:36Z</time>
      </trkpt>
      <trkpt lat="48.66719" lon="-3.51082">
        <ele>102</ele>
        <time>2024-11-26T17:25:39Z</time>
      </trkpt>
      <trkpt lat="48.66735" lon="-3.51055">
        <ele>103</ele>
        <time>2024-11-26T17:25:44Z</time>
      </trkpt>
      <trkpt lat="48.66755" lon="-3.51016">
        <ele>103</ele>
        <time>2024-11-26T17:25:49Z</time>
      </trkpt>
      <trkpt lat="48.66774" lon="-3.50982">
        <ele>104</ele>
        <time>2024-11-26T17:25:55Z</time>
      </trkpt>
      <trkpt lat="48.66803" lon="-3.50946">
        <ele>104</ele>
        <time>2024-11-26T17:26:01Z</time>
      </trkpt>
      <trkpt lat="48.66877" lon="-3.5087">
        <ele>105</ele>
        <time>2024-11-26T17:26:17Z</time>
      </trkpt>
      <trkpt lat="48.66927" lon="-3.50827">
        <ele>106</ele>
        <time>2024-11-26T17:26:27Z</time>
      </trkpt>
      <trkpt lat="48.66982" lon="-3.50791">
        <ele>107</ele>
        <time>2024-11-26T17:26:38Z</time>
      </trkpt>
      <trkpt lat="48.67067" lon="-3.50748">
        <ele>109</ele>
        <time>2024-11-26T17:26:54Z</time>
      </trkpt>
      <trkpt lat="48.671" lon="-3.50735">
        <ele>109</ele>
        <time>2024-11-26T17:27:00Z</time>
      </trkpt>
      <trkpt lat="48.672" lon="-3.50724">
        <ele>109</ele>
        <time>2024-11-26T17:27:18Z</time>
      </trkpt>
      <trkpt lat="48.67393" lon="-3.50726">
        <ele>109</ele>
        <time>2024-11-26T17:27:52Z</time>
      </trkpt>
      <trkpt lat="48.67455" lon="-3.50724">
        <ele>109</ele>
        <time>2024-11-26T17:28:03Z</time>
      </trkpt>
      <trkpt lat="48.67485" lon="-3.5072">
        <ele>108</ele>
        <time>2024-11-26T17:28:09Z</time>
      </trkpt>
      <trkpt lat="48.67485" lon="-3.50713">
        <ele>109</ele>
        <time>2024-11-26T17:28:09Z</time>
      </trkpt>
      <trkpt lat="48.67491" lon="-3.50701">
        <ele>109</ele>
        <time>2024-11-26T17:28:11Z</time>
      </trkpt>
      <trkpt lat="48.67461" lon="-3.50658">
        <ele>109</ele>
        <time>2024-11-26T17:28:19Z</time>
      </trkpt>
      <trkpt lat="48.67441" lon="-3.50635">
        <ele>110</ele>
        <time>2024-11-26T17:28:23Z</time>
      </trkpt>
      <trkpt lat="48.67401" lon="-3.50594">
        <ele>111</ele>
        <time>2024-11-26T17:28:32Z</time>
      </trkpt>
      <trkpt lat="48.67277" lon="-3.50462">
        <ele>111</ele>
        <time>2024-11-26T17:28:59Z</time>
      </trkpt>
      <trkpt lat="48.67255" lon="-3.50429">
        <ele>111</ele>
        <time>2024-11-26T17:29:04Z</time>
      </trkpt>
      <trkpt lat="48.67234" lon="-3.50385">
        <ele>111</ele>
        <time>2024-11-26T17:29:10Z</time>
      </trkpt>
      <trkpt lat="48.67223" lon="-3.50352">
        <ele>111</ele>
        <time>2024-11-26T17:29:15Z</time>
      </trkpt>
      <trkpt lat="48.67163" lon="-3.50121">
        <ele>113</ele>
        <time>2024-11-26T17:29:44Z</time>
      </trkpt>
      <trkpt lat="48.67138" lon="-3.50011">
        <ele>113</ele>
        <time>2024-11-26T17:29:58Z</time>
      </trkpt>
      <trkpt lat="48.67099" lon="-3.49723">
        <ele>114</ele>
        <time>2024-11-26T17:30:32Z</time>
      </trkpt>
      <trkpt lat="48.67087" lon="-3.4967">
        <ele>115</ele>
        <time>2024-11-26T17:30:39Z</time>
      </trkpt>
      <trkpt lat="48.67029" lon="-3.49489">
        <ele>117</ele>
        <time>2024-11-26T17:31:02Z</time>
      </trkpt>
      <trkpt lat="48.67025" lon="-3.4942">
        <ele>118</ele>
        <time>2024-11-26T17:31:11Z</time>
      </trkpt>
      <trkpt lat="48.67026" lon="-3.49389">
        <ele>118</ele>
        <time>2024-11-26T17:31:14Z</time>
      </trkpt>
      <trkpt lat="48.67023" lon="-3.49305">
        <ele>118</ele>
        <time>2024-11-26T17:31:24Z</time>
      </trkpt>
      <trkpt lat="48.66973" lon="-3.49301">
        <ele>118</ele>
        <time>2024-11-26T17:31:33Z</time>
      </trkpt>
      <trkpt lat="48.6694" lon="-3.49292">
        <ele>118</ele>
        <time>2024-11-26T17:31:39Z</time>
      </trkpt>
      <trkpt lat="48.66918" lon="-3.49277">
        <ele>118</ele>
        <time>2024-11-26T17:31:43Z</time>
      </trkpt>
      <trkpt lat="48.66898" lon="-3.49256">
        <ele>118</ele>
        <time>2024-11-26T17:31:48Z</time>
      </trkpt>
      <trkpt lat="48.66863" lon="-3.49215">
        <ele>117</ele>
        <time>2024-11-26T17:31:55Z</time>
      </trkpt>
      <trkpt lat="48.66792" lon="-3.49112">
        <ele>116</ele>
        <time>2024-11-26T17:32:13Z</time>
      </trkpt>
      <trkpt lat="48.66707" lon="-3.48989">
        <ele>115</ele>
        <time>2024-11-26T17:32:34Z</time>
      </trkpt>
      <trkpt lat="48.6669" lon="-3.4896">
        <ele>115</ele>
        <time>2024-11-26T17:32:38Z</time>
      </trkpt>
      <trkpt lat="48.66674" lon="-3.48928">
        <ele>115</ele>
        <time>2024-11-26T17:32:43Z</time>
      </trkpt>
      <trkpt lat="48.66638" lon="-3.48835">
        <ele>111</ele>
        <time>2024-11-26T17:32:56Z</time>
      </trkpt>
      <trkpt lat="48.66612" lon="-3.48773">
        <ele>111</ele>
        <time>2024-11-26T17:33:04Z</time>
      </trkpt>
      <trkpt lat="48.66502" lon="-3.48554">
        <ele>107</ele>
        <time>2024-11-26T17:33:37Z</time>
      </trkpt>
      <trkpt lat="48.6649" lon="-3.48527">
        <ele>106</ele>
        <time>2024-11-26T17:33:41Z</time>
      </trkpt>
      <trkpt lat="48.6648" lon="-3.48496">
        <ele>106</ele>
        <time>2024-11-26T17:33:45Z</time>
      </trkpt>
      <trkpt lat="48.66473" lon="-3.48464">
        <ele>105</ele>
        <time>2024-11-26T17:33:49Z</time>
      </trkpt>
      <trkpt lat="48.66466" lon="-3.48404">
        <ele>105</ele>
        <time>2024-11-26T17:33:56Z</time>
      </trkpt>
      <trkpt lat="48.66448" lon="-3.48188">
        <ele>102</ele>
        <time>2024-11-26T17:34:21Z</time>
      </trkpt>
      <trkpt lat="48.66441" lon="-3.48148">
        <ele>102</ele>
        <time>2024-11-26T17:34:26Z</time>
      </trkpt>
      <trkpt lat="48.66404" lon="-3.4804">
        <ele>99</ele>
        <time>2024-11-26T17:34:41Z</time>
      </trkpt>
      <trkpt lat="48.66313" lon="-3.47803">
        <ele>94</ele>
        <time>2024-11-26T17:35:13Z</time>
      </trkpt>
      <trkpt lat="48.66301" lon="-3.47767">
        <ele>94</ele>
        <time>2024-11-26T17:35:17Z</time>
      </trkpt>
      <trkpt lat="48.66296" lon="-3.47746">
        <ele>94</ele>
        <time>2024-11-26T17:35:20Z</time>
      </trkpt>
      <trkpt lat="48.66281" lon="-3.47643">
        <ele>89</ele>
        <time>2024-11-26T17:35:32Z</time>
      </trkpt>
      <trkpt lat="48.66274" lon="-3.47606">
        <ele>88</ele>
        <time>2024-11-26T17:35:37Z</time>
      </trkpt>
      <trkpt lat="48.66262" lon="-3.47572">
        <ele>87</ele>
        <time>2024-11-26T17:35:42Z</time>
      </trkpt>
      <trkpt lat="48.66238" lon="-3.47523">
        <ele>87</ele>
        <time>2024-11-26T17:35:49Z</time>
      </trkpt>
      <trkpt lat="48.66177" lon="-3.47411">
        <ele>91</ele>
        <time>2024-11-26T17:36:06Z</time>
      </trkpt>
      <trkpt lat="48.66165" lon="-3.47378">
        <ele>93</ele>
        <time>2024-11-26T17:36:10Z</time>
      </trkpt>
      <trkpt lat="48.66159" lon="-3.47349">
        <ele>95</ele>
        <time>2024-11-26T17:36:14Z</time>
      </trkpt>
      <trkpt lat="48.66156" lon="-3.47317">
        <ele>96</ele>
        <time>2024-11-26T17:36:18Z</time>
      </trkpt>
      <trkpt lat="48.66165" lon="-3.4688">
        <ele>102</ele>
        <time>2024-11-26T17:37:09Z</time>
      </trkpt>
      <trkpt lat="48.6647" lon="-3.46714">
        <ele>89</ele>
        <time>2024-11-26T17:38:07Z</time>
      </trkpt>
      <trkpt lat="48.66509" lon="-3.46686">
        <ele>88</ele>
        <time>2024-11-26T17:38:14Z</time>
      </trkpt>
      <trkpt lat="48.66567" lon="-3.46635">
        <ele>88</ele>
        <time>2024-11-26T17:38:26Z</time>
      </trkpt>
      <trkpt lat="48.66631" lon="-3.46562">
        <ele>87</ele>
        <time>2024-11-26T17:38:40Z</time>
      </trkpt>
      <trkpt lat="48.66647" lon="-3.46536">
        <ele>87</ele>
        <time>2024-11-26T17:38:45Z</time>
      </trkpt>
      <trkpt lat="48.66747" lon="-3.4635">
        <ele>89</ele>
        <time>2024-11-26T17:39:13Z</time>
      </trkpt>
      <trkpt lat="48.66753" lon="-3.46341">
        <ele>89</ele>
        <time>2024-11-26T17:39:14Z</time>
      </trkpt>
      <trkpt lat="48.66766" lon="-3.46328">
        <ele>89</ele>
        <time>2024-11-26T17:39:17Z</time>
      </trkpt>
      <trkpt lat="48.66802" lon="-3.46304">
        <ele>87</ele>
        <time>2024-11-26T17:39:24Z</time>
      </trkpt>
      <trkpt lat="48.66852" lon="-3.46267">
        <ele>85</ele>
        <time>2024-11-26T17:39:34Z</time>
      </trkpt>
      <trkpt lat="48.66873" lon="-3.46247">
        <ele>84</ele>
        <time>2024-11-26T17:39:38Z</time>
      </trkpt>
      <trkpt lat="48.66921" lon="-3.46166">
        <ele>81</ele>
        <time>2024-11-26T17:39:51Z</time>
      </trkpt>
      <trkpt lat="48.66935" lon="-3.46131">
        <ele>81</ele>
        <time>2024-11-26T17:39:56Z</time>
      </trkpt>
      <trkpt lat="48.66945" lon="-3.46111">
        <ele>81</ele>
        <time>2024-11-26T17:39:59Z</time>
      </trkpt>
      <trkpt lat="48.66963" lon="-3.46094">
        <ele>81</ele>
        <time>2024-11-26T17:40:03Z</time>
      </trkpt>
      <trkpt lat="48.6699" lon="-3.46079">
        <ele>80</ele>
        <time>2024-11-26T17:40:08Z</time>
      </trkpt>
      <trkpt lat="48.67008" lon="-3.46064">
        <ele>81</ele>
        <time>2024-11-26T17:40:12Z</time>
      </trkpt>
      <trkpt lat="48.67092" lon="-3.46049">
        <ele>80</ele>
        <time>2024-11-26T17:40:27Z</time>
      </trkpt>
      <trkpt lat="48.6714" lon="-3.46036">
        <ele>81</ele>
        <time>2024-11-26T17:40:35Z</time>
      </trkpt>
      <trkpt lat="48.67179" lon="-3.46032">
        <ele>81</ele>
        <time>2024-11-26T17:40:42Z</time>
      </trkpt>
      <trkpt lat="48.6719" lon="-3.46029">
        <ele>81</ele>
        <time>2024-11-26T17:40:44Z</time>
      </trkpt>
      <trkpt lat="48.67207" lon="-3.46015">
        <ele>81</ele>
        <time>2024-11-26T17:40:48Z</time>
      </trkpt>
      <trkpt lat="48.67239" lon="-3.45982">
        <ele>80</ele>
        <time>2024-11-26T17:40:55Z</time>
      </trkpt>
      <trkpt lat="48.67279" lon="-3.4595">
        <ele>80</ele>
        <time>2024-11-26T17:41:03Z</time>
      </trkpt>
      <trkpt lat="48.6732" lon="-3.45907">
        <ele>82</ele>
        <time>2024-11-26T17:41:11Z</time>
      </trkpt>
      <trkpt lat="48.67335" lon="-3.45883">
        <ele>82</ele>
        <time>2024-11-26T17:41:15Z</time>
      </trkpt>
      <trkpt lat="48.67357" lon="-3.45844">
        <ele>83</ele>
        <time>2024-11-26T17:41:21Z</time>
      </trkpt>
      <trkpt lat="48.67382" lon="-3.45813">
        <ele>84</ele>
        <time>2024-11-26T17:41:27Z</time>
      </trkpt>
      <trkpt lat="48.67409" lon="-3.45784">
        <ele>85</ele>
        <time>2024-11-26T17:41:33Z</time>
      </trkpt>
      <trkpt lat="48.67433" lon="-3.45764">
        <ele>86</ele>
        <time>2024-11-26T17:41:38Z</time>
      </trkpt>
      <trkpt lat="48.67466" lon="-3.45743">
        <ele>87</ele>
        <time>2024-11-26T17:41:44Z</time>
      </trkpt>
      <trkpt lat="48.67508" lon="-3.45723">
        <ele>87</ele>
        <time>2024-11-26T17:41:52Z</time>
      </trkpt>
      <trkpt lat="48.67571" lon="-3.45673">
        <ele>88</ele>
        <time>2024-11-26T17:42:05Z</time>
      </trkpt>
      <trkpt lat="48.67589" lon="-3.45654">
        <ele>88</ele>
        <time>2024-11-26T17:42:09Z</time>
      </trkpt>
      <trkpt lat="48.67595" lon="-3.45639">
        <ele>88</ele>
        <time>2024-11-26T17:42:11Z</time>
      </trkpt>
      <trkpt lat="48.67601" lon="-3.45612">
        <ele>88</ele>
        <time>2024-11-26T17:42:14Z</time>
      </trkpt>
      <trkpt lat="48.67606" lon="-3.45551">
        <ele>88</ele>
        <time>2024-11-26T17:42:21Z</time>
      </trkpt>
      <trkpt lat="48.67611" lon="-3.45536">
        <ele>88</ele>
        <time>2024-11-26T17:42:23Z</time>
      </trkpt>
      <trkpt lat="48.67629" lon="-3.45507">
        <ele>88</ele>
        <time>2024-11-26T17:42:28Z</time>
      </trkpt>
      <trkpt lat="48.67643" lon="-3.45495">
        <ele>88</ele>
        <time>2024-11-26T17:42:31Z</time>
      </trkpt>
      <trkpt lat="48.67651" lon="-3.45492">
        <ele>88</ele>
        <time>2024-11-26T17:42:32Z</time>
      </trkpt>
      <trkpt lat="48.67668" lon="-3.45495">
        <ele>88</ele>
        <time>2024-11-26T17:42:35Z</time>
      </trkpt>
      <trkpt lat="48.67686" lon="-3.45506">
        <ele>88</ele>
        <time>2024-11-26T17:42:39Z</time>
      </trkpt>
      <trkpt lat="48.67696" lon="-3.45507">
        <ele>88</ele>
        <time>2024-11-26T17:42:41Z</time>
      </trkpt>
      <trkpt lat="48.67704" lon="-3.45505">
        <ele>88</ele>
        <time>2024-11-26T17:42:42Z</time>
      </trkpt>
      <trkpt lat="48.67773" lon="-3.45443">
        <ele>89</ele>
        <time>2024-11-26T17:42:56Z</time>
      </trkpt>
      <trkpt lat="48.67793" lon="-3.45417">
        <ele>89</ele>
        <time>2024-11-26T17:43:01Z</time>
      </trkpt>
      <trkpt lat="48.67817" lon="-3.45379">
        <ele>88</ele>
        <time>2024-11-26T17:43:07Z</time>
      </trkpt>
      <trkpt lat="48.67859" lon="-3.45302">
        <ele>87</ele>
        <time>2024-11-26T17:43:19Z</time>
      </trkpt>
      <trkpt lat="48.67871" lon="-3.45281">
        <ele>86</ele>
        <time>2024-11-26T17:43:22Z</time>
      </trkpt>
      <trkpt lat="48.67882" lon="-3.45269">
        <ele>86</ele>
        <time>2024-11-26T17:43:25Z</time>
      </trkpt>
      <trkpt lat="48.67894" lon="-3.45259">
        <ele>86</ele>
        <time>2024-11-26T17:43:27Z</time>
      </trkpt>
      <trkpt lat="48.67925" lon="-3.45243">
        <ele>85</ele>
        <time>2024-11-26T17:43:33Z</time>
      </trkpt>
      <trkpt lat="48.67941" lon="-3.45229">
        <ele>84</ele>
        <time>2024-11-26T17:43:36Z</time>
      </trkpt>
      <trkpt lat="48.67948" lon="-3.45221">
        <ele>83</ele>
        <time>2024-11-26T17:43:38Z</time>
      </trkpt>
      <trkpt lat="48.67974" lon="-3.45169">
        <ele>82</ele>
        <time>2024-11-26T17:43:45Z</time>
      </trkpt>
      <trkpt lat="48.67995" lon="-3.45138">
        <ele>82</ele>
        <time>2024-11-26T17:43:51Z</time>
      </trkpt>
      <trkpt lat="48.6802" lon="-3.45107">
        <ele>83</ele>
        <time>2024-11-26T17:43:56Z</time>
      </trkpt>
      <trkpt lat="48.68051" lon="-3.45075">
        <ele>83</ele>
        <time>2024-11-26T17:44:03Z</time>
      </trkpt>
      <trkpt lat="48.6812" lon="-3.45026">
        <ele>82</ele>
        <time>2024-11-26T17:44:16Z</time>
      </trkpt>
      <trkpt lat="48.68167" lon="-3.45008">
        <ele>82</ele>
        <time>2024-11-26T17:44:25Z</time>
      </trkpt>
      <trkpt lat="48.68178" lon="-3.4501">
        <ele>82</ele>
        <time>2024-11-26T17:44:27Z</time>
      </trkpt>
      <trkpt lat="48.68212" lon="-3.45022">
        <ele>82</ele>
        <time>2024-11-26T17:44:33Z</time>
      </trkpt>
      <trkpt lat="48.68244" lon="-3.45036">
        <ele>83</ele>
        <time>2024-11-26T17:44:39Z</time>
      </trkpt>
      <trkpt lat="48.68253" lon="-3.45037">
        <ele>83</ele>
        <time>2024-11-26T17:44:41Z</time>
      </trkpt>
      <trkpt lat="48.68261" lon="-3.45034">
        <ele>83</ele>
        <time>2024-11-26T17:44:42Z</time>
      </trkpt>
      <trkpt lat="48.68291" lon="-3.44988">
        <ele>84</ele>
        <time>2024-11-26T17:44:50Z</time>
      </trkpt>
      <trkpt lat="48.68323" lon="-3.44895">
        <ele>85</ele>
        <time>2024-11-26T17:45:02Z</time>
      </trkpt>
      <trkpt lat="48.6838" lon="-3.44856">
        <ele>87</ele>
        <time>2024-11-26T17:45:13Z</time>
      </trkpt>
      <trkpt lat="48.6838" lon="-3.44809">
        <ele>87</ele>
        <time>2024-11-26T17:45:19Z</time>
      </trkpt>
      <trkpt lat="48.68393" lon="-3.44817">
        <ele>88</ele>
        <time>2024-11-26T17:45:21Z</time>
      </trkpt>
      <trkpt lat="48.68413" lon="-3.4482">
        <ele>88</ele>
        <time>2024-11-26T17:45:25Z</time>
      </trkpt>
      <trkpt lat="48.68561" lon="-3.44646">
        <ele>86</ele>
        <time>2024-11-26T17:45:58Z</time>
      </trkpt>
      <trkpt lat="48.68595" lon="-3.44557">
        <ele>87</ele>
        <time>2024-11-26T17:46:10Z</time>
      </trkpt>
      <trkpt lat="48.68599" lon="-3.44545">
        <ele>87</ele>
        <time>2024-11-26T17:46:12Z</time>
      </trkpt>
      <trkpt lat="48.68524" lon="-3.4452">
        <ele>88</ele>
        <time>2024-11-26T17:46:26Z</time>
      </trkpt>
      <trkpt lat="48.68634" lon="-3.44557">
        <ele>87</ele>
        <time>2024-11-26T17:46:46Z</time>
      </trkpt>
      <trkpt lat="48.68744" lon="-3.44581">
        <ele>85</ele>
        <time>2024-11-26T17:47:05Z</time>
      </trkpt>
      <trkpt lat="48.68805" lon="-3.44587">
        <ele>85</ele>
        <time>2024-11-26T17:47:16Z</time>
      </trkpt>
      <trkpt lat="48.68868" lon="-3.44578">
        <ele>86</ele>
        <time>2024-11-26T17:47:28Z</time>
      </trkpt>
      <trkpt lat="48.6892" lon="-3.44565">
        <ele>87</ele>
        <time>2024-11-26T17:47:37Z</time>
      </trkpt>
      <trkpt lat="48.69064" lon="-3.44536">
        <ele>90</ele>
        <time>2024-11-26T17:48:03Z</time>
      </trkpt>
      <trkpt lat="48.69224" lon="-3.44487">
        <ele>91</ele>
        <time>2024-11-26T17:48:32Z</time>
      </trkpt>
      <trkpt lat="48.69283" lon="-3.44472">
        <ele>90</ele>
        <time>2024-11-26T17:48:42Z</time>
      </trkpt>
      <trkpt lat="48.69328" lon="-3.44477">
        <ele>91</ele>
        <time>2024-11-26T17:48:50Z</time>
      </trkpt>
      <trkpt lat="48.6941" lon="-3.44512">
        <ele>93</ele>
        <time>2024-11-26T17:49:06Z</time>
      </trkpt>
      <trkpt lat="48.69467" lon="-3.4454">
        <ele>92</ele>
        <time>2024-11-26T17:49:16Z</time>
      </trkpt>
      <trkpt lat="48.69556" lon="-3.44612">
        <ele>88</ele>
        <time>2024-11-26T17:49:34Z</time>
      </trkpt>
      <trkpt lat="48.696" lon="-3.44644">
        <ele>86</ele>
        <time>2024-11-26T17:49:43Z</time>
      </trkpt>
      <trkpt lat="48.69713" lon="-3.44713">
        <ele>85</ele>
        <time>2024-11-26T17:50:05Z</time>
      </trkpt>
      <trkpt lat="48.69738" lon="-3.44726">
        <ele>85</ele>
        <time>2024-11-26T17:50:09Z</time>
      </trkpt>
      <trkpt lat="48.69765" lon="-3.44737">
        <ele>84</ele>
        <time>2024-11-26T17:50:14Z</time>
      </trkpt>
      <trkpt lat="48.69867" lon="-3.44765">
        <ele>81</ele>
        <time>2024-11-26T17:50:33Z</time>
      </trkpt>
      <trkpt lat="48.6996" lon="-3.44787">
        <ele>79</ele>
        <time>2024-11-26T17:50:50Z</time>
      </trkpt>
      <trkpt lat="48.70004" lon="-3.44789">
        <ele>79</ele>
        <time>2024-11-26T17:50:57Z</time>
      </trkpt>
      <trkpt lat="48.7002" lon="-3.44793">
        <ele>79</ele>
        <time>2024-11-26T17:51:00Z</time>
      </trkpt>
      <trkpt lat="48.70083" lon="-3.448">
        <ele>79</ele>
        <time>2024-11-26T17:51:11Z</time>
      </trkpt>
      <trkpt lat="48.70102" lon="-3.44803">
        <ele>79</ele>
        <time>2024-11-26T17:51:15Z</time>
      </trkpt>
      <trkpt lat="48.70154" lon="-3.44818">
        <ele>79</ele>
        <time>2024-11-26T17:51:24Z</time>
      </trkpt>
      <trkpt lat="48.70194" lon="-3.4482">
        <ele>78</ele>
        <time>2024-11-26T17:51:31Z</time>
      </trkpt>
      <trkpt lat="48.70226" lon="-3.44817">
        <ele>77</ele>
        <time>2024-11-26T17:51:37Z</time>
      </trkpt>
      <trkpt lat="48.70313" lon="-3.44826">
        <ele>77</ele>
        <time>2024-11-26T17:51:53Z</time>
      </trkpt>
      <trkpt lat="48.7035" lon="-3.4484">
        <ele>77</ele>
        <time>2024-11-26T17:51:59Z</time>
      </trkpt>
      <trkpt lat="48.70365" lon="-3.44848">
        <ele>78</ele>
        <time>2024-11-26T17:52:02Z</time>
      </trkpt>
      <trkpt lat="48.70392" lon="-3.44854">
        <ele>78</ele>
        <time>2024-11-26T17:52:07Z</time>
      </trkpt>
      <trkpt lat="48.70411" lon="-3.4485">
        <ele>78</ele>
        <time>2024-11-26T17:52:11Z</time>
      </trkpt>
      <trkpt lat="48.70479" lon="-3.44822">
        <ele>78</ele>
        <time>2024-11-26T17:52:23Z</time>
      </trkpt>
      <trkpt lat="48.70502" lon="-3.44817">
        <ele>78</ele>
        <time>2024-11-26T17:52:27Z</time>
      </trkpt>
      <trkpt lat="48.70534" lon="-3.44822">
        <ele>78</ele>
        <time>2024-11-26T17:52:33Z</time>
      </trkpt>
      <trkpt lat="48.70567" lon="-3.44822">
        <ele>78</ele>
        <time>2024-11-26T17:52:39Z</time>
      </trkpt>
      <trkpt lat="48.70631" lon="-3.44804">
        <ele>77</ele>
        <time>2024-11-26T17:52:50Z</time>
      </trkpt>
      <trkpt lat="48.70683" lon="-3.44804">
        <ele>75</ele>
        <time>2024-11-26T17:53:00Z</time>
      </trkpt>
      <trkpt lat="48.70743" lon="-3.44819">
        <ele>70</ele>
        <time>2024-11-26T17:53:10Z</time>
      </trkpt>
      <trkpt lat="48.70827" lon="-3.44864">
        <ele>67</ele>
        <time>2024-11-26T17:53:26Z</time>
      </trkpt>
      <trkpt lat="48.70867" lon="-3.44888">
        <ele>65</ele>
        <time>2024-11-26T17:53:34Z</time>
      </trkpt>
      <trkpt lat="48.70951" lon="-3.44957">
        <ele>63</ele>
        <time>2024-11-26T17:53:51Z</time>
      </trkpt>
      <trkpt lat="48.70963" lon="-3.44961">
        <ele>62</ele>
        <time>2024-11-26T17:53:53Z</time>
      </trkpt>
      <trkpt lat="48.70976" lon="-3.44963">
        <ele>62</ele>
        <time>2024-11-26T17:53:55Z</time>
      </trkpt>
      <trkpt lat="48.7098" lon="-3.44958">
        <ele>61</ele>
        <time>2024-11-26T17:53:56Z</time>
      </trkpt>
      <trkpt lat="48.70984" lon="-3.44957">
        <ele>61</ele>
        <time>2024-11-26T17:53:57Z</time>
      </trkpt>
      <trkpt lat="48.70988" lon="-3.44959">
        <ele>61</ele>
        <time>2024-11-26T17:53:58Z</time>
      </trkpt>
      <trkpt lat="48.70991" lon="-3.44967">
        <ele>61</ele>
        <time>2024-11-26T17:53:59Z</time>
      </trkpt>
      <trkpt lat="48.70991" lon="-3.44972">
        <ele>61</ele>
        <time>2024-11-26T17:54:00Z</time>
      </trkpt>
      <trkpt lat="48.71005" lon="-3.44991">
        <ele>61</ele>
        <time>2024-11-26T17:54:03Z</time>
      </trkpt>
      <trkpt lat="48.7102" lon="-3.44995">
        <ele>61</ele>
        <time>2024-11-26T17:54:06Z</time>
      </trkpt>
      <trkpt lat="48.71036" lon="-3.44996">
        <ele>61</ele>
        <time>2024-11-26T17:54:08Z</time>
      </trkpt>
      <trkpt lat="48.71133" lon="-3.44998">
        <ele>62</ele>
        <time>2024-11-26T17:54:26Z</time>
      </trkpt>
      <trkpt lat="48.71151" lon="-3.45001">
        <ele>63</ele>
        <time>2024-11-26T17:54:29Z</time>
      </trkpt>
      <trkpt lat="48.71217" lon="-3.45026">
        <ele>62</ele>
        <time>2024-11-26T17:54:41Z</time>
      </trkpt>
      <trkpt lat="48.71342" lon="-3.4509">
        <ele>64</ele>
        <time>2024-11-26T17:55:04Z</time>
      </trkpt>
      <trkpt lat="48.71408" lon="-3.4513">
        <ele>61</ele>
        <time>2024-11-26T17:55:17Z</time>
      </trkpt>
      <trkpt lat="48.71428" lon="-3.45143">
        <ele>60</ele>
        <time>2024-11-26T17:55:21Z</time>
      </trkpt>
      <trkpt lat="48.71564" lon="-3.45245">
        <ele>60</ele>
        <time>2024-11-26T17:55:48Z</time>
      </trkpt>
      <trkpt lat="48.71576" lon="-3.45266">
        <ele>59</ele>
        <time>2024-11-26T17:55:51Z</time>
      </trkpt>
      <trkpt lat="48.71698" lon="-3.45585">
        <ele>52</ele>
        <time>2024-11-26T17:56:35Z</time>
      </trkpt>
      <trkpt lat="48.7171" lon="-3.45607">
        <ele>51</ele>
        <time>2024-11-26T17:56:38Z</time>
      </trkpt>
      <trkpt lat="48.7173" lon="-3.4563">
        <ele>50</ele>
        <time>2024-11-26T17:56:42Z</time>
      </trkpt>
      <trkpt lat="48.71908" lon="-3.45809">
        <ele>41</ele>
        <time>2024-11-26T17:57:20Z</time>
      </trkpt>
      <trkpt lat="48.71922" lon="-3.45827">
        <ele>41</ele>
        <time>2024-11-26T17:57:24Z</time>
      </trkpt>
      <trkpt lat="48.7193" lon="-3.45849">
        <ele>40</ele>
        <time>2024-11-26T17:57:27Z</time>
      </trkpt>
      <trkpt lat="48.71949" lon="-3.45938">
        <ele>36</ele>
        <time>2024-11-26T17:57:38Z</time>
      </trkpt>
      <trkpt lat="48.71956" lon="-3.45957">
        <ele>36</ele>
        <time>2024-11-26T17:57:40Z</time>
      </trkpt>
      <trkpt lat="48.71965" lon="-3.45976">
        <ele>35</ele>
        <time>2024-11-26T17:57:43Z</time>
      </trkpt>
      <trkpt lat="48.71981" lon="-3.45998">
        <ele>34</ele>
        <time>2024-11-26T17:57:47Z</time>
      </trkpt>
      <trkpt lat="48.72005" lon="-3.46015">
        <ele>34</ele>
        <time>2024-11-26T17:57:51Z</time>
      </trkpt>
      <trkpt lat="48.72021" lon="-3.46021">
        <ele>33</ele>
        <time>2024-11-26T17:57:54Z</time>
      </trkpt>
      <trkpt lat="48.72045" lon="-3.4602">
        <ele>33</ele>
        <time>2024-11-26T17:57:59Z</time>
      </trkpt>
      <trkpt lat="48.72082" lon="-3.46002">
        <ele>33</ele>
        <time>2024-11-26T17:58:06Z</time>
      </trkpt>
      <trkpt lat="48.72136" lon="-3.45959">
        <ele>31</ele>
        <time>2024-11-26T17:58:16Z</time>
      </trkpt>
      <trkpt lat="48.72163" lon="-3.45952">
        <ele>30</ele>
        <time>2024-11-26T17:58:21Z</time>
      </trkpt>
      <trkpt lat="48.72192" lon="-3.45962">
        <ele>28</ele>
        <time>2024-11-26T17:58:27Z</time>
      </trkpt>
      <trkpt lat="48.72221" lon="-3.45979">
        <ele>26</ele>
        <time>2024-11-26T17:58:32Z</time>
      </trkpt>
      <trkpt lat="48.72278" lon="-3.46005">
        <ele>22</ele>
        <time>2024-11-26T17:58:43Z</time>
      </trkpt>
      <trkpt lat="48.72298" lon="-3.46012">
        <ele>21</ele>
        <time>2024-11-26T17:58:46Z</time>
      </trkpt>
      <trkpt lat="48.72325" lon="-3.4601">
        <ele>21</ele>
        <time>2024-11-26T17:58:51Z</time>
      </trkpt>
      <trkpt lat="48.72389" lon="-3.45992">
        <ele>21</ele>
        <time>2024-11-26T17:59:03Z</time>
      </trkpt>
      <trkpt lat="48.72408" lon="-3.45992">
        <ele>20</ele>
        <time>2024-11-26T17:59:06Z</time>
      </trkpt>
      <trkpt lat="48.72506" lon="-3.46032">
        <ele>13</ele>
        <time>2024-11-26T17:59:24Z</time>
      </trkpt>
      <trkpt lat="48.7253" lon="-3.4604">
        <ele>12</ele>
        <time>2024-11-26T17:59:29Z</time>
      </trkpt>
      <trkpt lat="48.7259" lon="-3.4603">
        <ele>12</ele>
        <time>2024-11-26T17:59:39Z</time>
      </trkpt>
      <trkpt lat="48.72746" lon="-3.4599">
        <ele>6</ele>
        <time>2024-11-26T18:00:07Z</time>
      </trkpt>
      <trkpt lat="48.7277" lon="-3.45983">
        <ele>6</ele>
        <time>2024-11-26T18:00:12Z</time>
      </trkpt>
      <trkpt lat="48.72769" lon="-3.45981">
        <ele>6</ele>
        <time>2024-11-26T18:00:12Z</time>
      </trkpt>
      <trkpt lat="48.72774" lon="-3.45972">
        <ele>6</ele>
        <time>2024-11-26T18:00:13Z</time>
      </trkpt>
      <trkpt lat="48.72779" lon="-3.45974">
        <ele>6</ele>
        <time>2024-11-26T18:00:14Z</time>
      </trkpt>
      <trkpt lat="48.72781" lon="-3.45982">
        <ele>6</ele>
        <time>2024-11-26T18:00:15Z</time>
      </trkpt>
      <trkpt lat="48.72872" lon="-3.45962">
        <ele>5</ele>
        <time>2024-11-26T18:00:32Z</time>
      </trkpt>
      <trkpt lat="48.72877" lon="-3.45965">
        <ele>5</ele>
        <time>2024-11-26T18:00:33Z</time>
      </trkpt>
      <trkpt lat="48.72881" lon="-3.45971">
        <ele>5</ele>
        <time>2024-11-26T18:00:34Z</time>
      </trkpt>
      <trkpt lat="48.72901" lon="-3.46006">
        <ele>5</ele>
        <time>2024-11-26T18:00:39Z</time>
      </trkpt>
      <trkpt lat="48.72908" lon="-3.46003">
        <ele>5</ele>
        <time>2024-11-26T18:00:40Z</time>
      </trkpt>
      <trkpt lat="48.72911" lon="-3.46005">
        <ele>5</ele>
        <time>2024-11-26T18:00:41Z</time>
      </trkpt>
      <trkpt lat="48.72915" lon="-3.46013">
        <ele>5</ele>
        <time>2024-11-26T18:00:42Z</time>
      </trkpt>
      <trkpt lat="48.72915" lon="-3.46018">
        <ele>6</ele>
        <time>2024-11-26T18:00:43Z</time>
      </trkpt>
      <trkpt lat="48.7299" lon="-3.46056">
        <ele>6</ele>
        <time>2024-11-26T18:00:57Z</time>
      </trkpt>
      <trkpt lat="48.73011" lon="-3.46049">
        <ele>6</ele>
        <time>2024-11-26T18:01:01Z</time>
      </trkpt>
      <trkpt lat="48.73038" lon="-3.46034">
        <ele>5</ele>
        <time>2024-11-26T18:01:06Z</time>
      </trkpt>
      <trkpt lat="48.73068" lon="-3.4599">
        <ele>5</ele>
        <time>2024-11-26T18:01:13Z</time>
      </trkpt>
      <trkpt lat="48.73077" lon="-3.45985">
        <ele>5</ele>
        <time>2024-11-26T18:01:15Z</time>
      </trkpt>
      <trkpt lat="48.73085" lon="-3.45986">
        <ele>6</ele>
        <time>2024-11-26T18:01:16Z</time>
      </trkpt>
      <trkpt lat="48.73094" lon="-3.4599">
        <ele>6</ele>
        <time>2024-11-26T18:01:18Z</time>
      </trkpt>
      <trkpt lat="48.73125" lon="-3.46029">
        <ele>7</ele>
        <time>2024-11-26T18:01:25Z</time>
      </trkpt>
      <trkpt lat="48.73185" lon="-3.46115">
        <ele>7</ele>
        <time>2024-11-26T18:01:40Z</time>
      </trkpt>
      <trkpt lat="48.73228" lon="-3.46187">
        <ele>5</ele>
        <time>2024-11-26T18:01:51Z</time>
      </trkpt>
      <trkpt lat="48.73233" lon="-3.46201">
        <ele>5</ele>
        <time>2024-11-26T18:01:53Z</time>
      </trkpt>
      <trkpt lat="48.73249" lon="-3.46229">
        <ele>4</ele>
        <time>2024-11-26T18:01:57Z</time>
      </trkpt>
      <trkpt lat="48.73252" lon="-3.4624">
        <ele>4</ele>
        <time>2024-11-26T18:01:59Z</time>
      </trkpt>
      <trkpt lat="48.73255" lon="-3.46257">
        <ele>4</ele>
        <time>2024-11-26T18:02:01Z</time>
      </trkpt>
      <trkpt lat="48.73258" lon="-3.46264">
        <ele>5</ele>
        <time>2024-11-26T18:02:02Z</time>
      </trkpt>
      <trkpt lat="48.73253" lon="-3.46295">
        <ele>4</ele>
        <time>2024-11-26T18:02:06Z</time>
      </trkpt>
      <trkpt lat="48.73245" lon="-3.46319">
        <ele>4</ele>
        <time>2024-11-26T18:02:09Z</time>
      </trkpt>
      <trkpt lat="48.73217" lon="-3.46381">
        <ele>5</ele>
        <time>2024-11-26T18:02:18Z</time>
      </trkpt>
      <trkpt lat="48.73192" lon="-3.4646">
        <ele>6</ele>
        <time>2024-11-26T18:02:28Z</time>
      </trkpt>
      <trkpt lat="48.73191" lon="-3.46473">
        <ele>6</ele>
        <time>2024-11-26T18:02:29Z</time>
      </trkpt>
      <trkpt lat="48.73194" lon="-3.46475">
        <ele>6</ele>
        <time>2024-11-26T18:02:30Z</time>
      </trkpt>
      <trkpt lat="48.73197" lon="-3.46481">
        <ele>6</ele>
        <time>2024-11-26T18:02:31Z</time>
      </trkpt>
      <trkpt lat="48.73197" lon="-3.46485">
        <ele>6</ele>
        <time>2024-11-26T18:02:31Z</time>
      </trkpt>
      <trkpt lat="48.73195" lon="-3.46493">
        <ele>6</ele>
        <time>2024-11-26T18:02:32Z</time>
      </trkpt>
      <trkpt lat="48.73191" lon="-3.46496">
        <ele>6</ele>
        <time>2024-11-26T18:02:33Z</time>
      </trkpt>
      <trkpt lat="48.73184" lon="-3.46494">
        <ele>6</ele>
        <time>2024-11-26T18:02:34Z</time>
      </trkpt>
      <trkpt lat="48.73181" lon="-3.46485">
        <ele>5</ele>
        <time>2024-11-26T18:02:36Z</time>
      </trkpt>
      <trkpt lat="48.73169" lon="-3.46487">
        <ele>5</ele>
        <time>2024-11-26T18:02:38Z</time>
      </trkpt>
      <trkpt lat="48.7314" lon="-3.46497">
        <ele>4</ele>
        <time>2024-11-26T18:02:43Z</time>
      </trkpt>
      <trkpt lat="48.73139" lon="-3.46508">
        <ele>4</ele>
        <time>2024-11-26T18:02:44Z</time>
      </trkpt>
      <trkpt lat="48.73137" lon="-3.46511">
        <ele>4</ele>
        <time>2024-11-26T18:02:45Z</time>
      </trkpt>
      <trkpt lat="48.73144" lon="-3.46548">
        <ele>4</ele>
        <time>2024-11-26T18:02:49Z</time>
      </trkpt>
      <trkpt lat="48.73216" lon="-3.46709">
        <ele>3</ele>
        <time>2024-11-26T18:03:12Z</time>
      </trkpt>
      <trkpt lat="48.73239" lon="-3.46744">
        <ele>4</ele>
        <time>2024-11-26T18:03:18Z</time>
      </trkpt>
      <trkpt lat="48.73422" lon="-3.46939">
        <ele>9</ele>
        <time>2024-11-26T18:03:58Z</time>
      </trkpt>
      <trkpt lat="48.73436" lon="-3.46951">
        <ele>11</ele>
        <time>2024-11-26T18:04:01Z</time>
      </trkpt>
      <trkpt lat="48.7344" lon="-3.46949">
        <ele>10</ele>
        <time>2024-11-26T18:04:01Z</time>
      </trkpt>
      <trkpt lat="48.73463" lon="-3.46969">
        <ele>14</ele>
        <time>2024-11-26T18:04:06Z</time>
      </trkpt>
      <trkpt lat="48.73475" lon="-3.46977">
        <ele>15</ele>
        <time>2024-11-26T18:04:08Z</time>
      </trkpt>
      <trkpt lat="48.73488" lon="-3.46982">
        <ele>15</ele>
        <time>2024-11-26T18:04:11Z</time>
      </trkpt>
      <trkpt lat="48.73625" lon="-3.47019">
        <ele>17</ele>
        <time>2024-11-26T18:04:36Z</time>
      </trkpt>
      <trkpt lat="48.73709" lon="-3.47061">
        <ele>17</ele>
        <time>2024-11-26T18:04:51Z</time>
      </trkpt>
      <trkpt lat="48.73728" lon="-3.47064">
        <ele>15</ele>
        <time>2024-11-26T18:04:55Z</time>
      </trkpt>
      <trkpt lat="48.73757" lon="-3.47077">
        <ele>12</ele>
        <time>2024-11-26T18:05:00Z</time>
      </trkpt>
      <trkpt lat="48.73794" lon="-3.47112">
        <ele>11</ele>
        <time>2024-11-26T18:05:08Z</time>
      </trkpt>
      <trkpt lat="48.738" lon="-3.47128">
        <ele>11</ele>
        <time>2024-11-26T18:05:10Z</time>
      </trkpt>
      <trkpt lat="48.73816" lon="-3.47156">
        <ele>9</ele>
        <time>2024-11-26T18:05:14Z</time>
      </trkpt>
      <trkpt lat="48.73824" lon="-3.47185">
        <ele>9</ele>
        <time>2024-11-26T18:05:18Z</time>
      </trkpt>
      <trkpt lat="48.73839" lon="-3.4722">
        <ele>7</ele>
        <time>2024-11-26T18:05:23Z</time>
      </trkpt>
      <trkpt lat="48.73862" lon="-3.4726">
        <ele>6</ele>
        <time>2024-11-26T18:05:29Z</time>
      </trkpt>
      <trkpt lat="48.73871" lon="-3.47282">
        <ele>6</ele>
        <time>2024-11-26T18:05:32Z</time>
      </trkpt>
      <trkpt lat="48.73892" lon="-3.4735">
        <ele>5</ele>
        <time>2024-11-26T18:05:41Z</time>
      </trkpt>
      <trkpt lat="48.73901" lon="-3.47384">
        <ele>6</ele>
        <time>2024-11-26T18:05:45Z</time>
      </trkpt>
      <trkpt lat="48.73902" lon="-3.47413">
        <ele>8</ele>
        <time>2024-11-26T18:05:49Z</time>
      </trkpt>
      <trkpt lat="48.7391" lon="-3.47472">
        <ele>7</ele>
        <time>2024-11-26T18:05:56Z</time>
      </trkpt>
      <trkpt lat="48.73915" lon="-3.47578">
        <ele>4</ele>
        <time>2024-11-26T18:06:08Z</time>
      </trkpt>
      <trkpt lat="48.73909" lon="-3.4764">
        <ele>7</ele>
        <time>2024-11-26T18:06:16Z</time>
      </trkpt>
      <trkpt lat="48.73887" lon="-3.47749">
        <ele>10</ele>
        <time>2024-11-26T18:06:29Z</time>
      </trkpt>
      <trkpt lat="48.73875" lon="-3.47794">
        <ele>9</ele>
        <time>2024-11-26T18:06:35Z</time>
      </trkpt>
      <trkpt lat="48.73864" lon="-3.47826">
        <ele>7</ele>
        <time>2024-11-26T18:06:39Z</time>
      </trkpt>
      <trkpt lat="48.7385" lon="-3.47869">
        <ele>6</ele>
        <time>2024-11-26T18:06:45Z</time>
      </trkpt>
      <trkpt lat="48.73829" lon="-3.47923">
        <ele>3</ele>
        <time>2024-11-26T18:06:52Z</time>
      </trkpt>
      <trkpt lat="48.73766" lon="-3.48055">
        <ele>7</ele>
        <time>2024-11-26T18:07:11Z</time>
      </trkpt>
      <trkpt lat="48.73768" lon="-3.48064">
        <ele>7</ele>
        <time>2024-11-26T18:07:12Z</time>
      </trkpt>
      <trkpt lat="48.73768" lon="-3.48078">
        <ele>7</ele>
        <time>2024-11-26T18:07:14Z</time>
      </trkpt>
      <trkpt lat="48.73754" lon="-3.48131">
        <ele>5</ele>
        <time>2024-11-26T18:07:21Z</time>
      </trkpt>
      <trkpt lat="48.73717" lon="-3.48233">
        <ele>7</ele>
        <time>2024-11-26T18:07:34Z</time>
      </trkpt>
      <trkpt lat="48.73712" lon="-3.4824">
        <ele>7</ele>
        <time>2024-11-26T18:07:35Z</time>
      </trkpt>
      <trkpt lat="48.737" lon="-3.48271">
        <ele>8</ele>
        <time>2024-11-26T18:07:40Z</time>
      </trkpt>
      <trkpt lat="48.73695" lon="-3.48271">
        <ele>8</ele>
        <time>2024-11-26T18:07:41Z</time>
      </trkpt>
      <trkpt lat="48.73666" lon="-3.48256">
        <ele>9</ele>
        <time>2024-11-26T18:07:46Z</time>
      </trkpt>
      <trkpt lat="48.73652" lon="-3.48269">
        <ele>10</ele>
        <time>2024-11-26T18:07:49Z</time>
      </trkpt>
      <trkpt lat="48.73639" lon="-3.48267">
        <ele>12</ele>
        <time>2024-11-26T18:07:51Z</time>
      </trkpt>
      <trkpt lat="48.73599" lon="-3.48246">
        <ele>17</ele>
        <time>2024-11-26T18:07:59Z</time>
      </trkpt>
      <trkpt lat="48.73566" lon="-3.48244">
        <ele>23</ele>
        <time>2024-11-26T18:08:05Z</time>
      </trkpt>
      <trkpt lat="48.73539" lon="-3.48229">
        <ele>29</ele>
        <time>2024-11-26T18:08:10Z</time>
      </trkpt>
      <trkpt lat="48.73518" lon="-3.48322">
        <ele>31</ele>
        <time>2024-11-26T18:08:21Z</time>
      </trkpt>
      <trkpt lat="48.73504" lon="-3.48368">
        <ele>35</ele>
        <time>2024-11-26T18:08:27Z</time>
      </trkpt>
      <trkpt lat="48.73478" lon="-3.48529">
        <ele>49</ele>
        <time>2024-11-26T18:08:47Z</time>
      </trkpt>
      <trkpt lat="48.73481" lon="-3.48576">
        <ele>51</ele>
        <time>2024-11-26T18:08:52Z</time>
      </trkpt>
      <trkpt lat="48.73492" lon="-3.48619">
        <ele>52</ele>
        <time>2024-11-26T18:08:58Z</time>
      </trkpt>
      <trkpt lat="48.73497" lon="-3.48668">
        <ele>55</ele>
        <time>2024-11-26T18:09:03Z</time>
      </trkpt>
      <trkpt lat="48.73495" lon="-3.48699">
        <ele>57</ele>
        <time>2024-11-26T18:09:07Z</time>
      </trkpt>
      <trkpt lat="48.7348" lon="-3.4876">
        <ele>61</ele>
        <time>2024-11-26T18:09:15Z</time>
      </trkpt>
      <trkpt lat="48.73473" lon="-3.48778">
        <ele>61</ele>
        <time>2024-11-26T18:09:17Z</time>
      </trkpt>
      <trkpt lat="48.73462" lon="-3.48786">
        <ele>62</ele>
        <time>2024-11-26T18:09:19Z</time>
      </trkpt>
      <trkpt lat="48.7339" lon="-3.48788">
        <ele>69</ele>
        <time>2024-11-26T18:09:32Z</time>
      </trkpt>
      <trkpt lat="48.73379" lon="-3.48786">
        <ele>70</ele>
        <time>2024-11-26T18:09:34Z</time>
      </trkpt>
      <trkpt lat="48.73365" lon="-3.48789">
        <ele>71</ele>
        <time>2024-11-26T18:09:37Z</time>
      </trkpt>
      <trkpt lat="48.7335" lon="-3.48797">
        <ele>72</ele>
        <time>2024-11-26T18:09:40Z</time>
      </trkpt>
      <trkpt lat="48.7334" lon="-3.48807">
        <ele>72</ele>
        <time>2024-11-26T18:09:42Z</time>
      </trkpt>
      <trkpt lat="48.73329" lon="-3.48822">
        <ele>72</ele>
        <time>2024-11-26T18:09:44Z</time>
      </trkpt>
      <trkpt lat="48.73317" lon="-3.48872">
        <ele>72</ele>
        <time>2024-11-26T18:09:51Z</time>
      </trkpt>
      <trkpt lat="48.73306" lon="-3.48944">
        <ele>70</ele>
        <time>2024-11-26T18:09:59Z</time>
      </trkpt>
      <trkpt lat="48.73293" lon="-3.48995">
        <ele>70</ele>
        <time>2024-11-26T18:10:06Z</time>
      </trkpt>
      <trkpt lat="48.7328" lon="-3.49061">
        <ele>68</ele>
        <time>2024-11-26T18:10:14Z</time>
      </trkpt>
      <trkpt lat="48.73271" lon="-3.4909">
        <ele>67</ele>
        <time>2024-11-26T18:10:17Z</time>
      </trkpt>
      <trkpt lat="48.73238" lon="-3.49234">
        <ele>65</ele>
        <time>2024-11-26T18:10:35Z</time>
      </trkpt>
      <trkpt lat="48.73213" lon="-3.49301">
        <ele>64</ele>
        <time>2024-11-26T18:10:44Z</time>
      </trkpt>
      <trkpt lat="48.73154" lon="-3.49428">
        <ele>61</ele>
        <time>2024-11-26T18:11:03Z</time>
      </trkpt>
      <trkpt lat="48.73132" lon="-3.49488">
        <ele>57</ele>
        <time>2024-11-26T18:11:11Z</time>
      </trkpt>
      <trkpt lat="48.73098" lon="-3.49501">
        <ele>56</ele>
        <time>2024-11-26T18:11:17Z</time>
      </trkpt>
      <trkpt lat="48.73078" lon="-3.49614">
        <ele>56</ele>
        <time>2024-11-26T18:11:31Z</time>
      </trkpt>
      <trkpt lat="48.73069" lon="-3.49645">
        <ele>58</ele>
        <time>2024-11-26T18:11:35Z</time>
      </trkpt>
      <trkpt lat="48.73053" lon="-3.49683">
        <ele>60</ele>
        <time>2024-11-26T18:11:40Z</time>
      </trkpt>
      <trkpt lat="48.73019" lon="-3.49753">
        <ele>64</ele>
        <time>2024-11-26T18:11:50Z</time>
      </trkpt>
      <trkpt lat="48.73007" lon="-3.49782">
        <ele>65</ele>
        <time>2024-11-26T18:11:54Z</time>
      </trkpt>
      <trkpt lat="48.72981" lon="-3.49891">
        <ele>67</ele>
        <time>2024-11-26T18:12:08Z</time>
      </trkpt>
      <trkpt lat="48.72935" lon="-3.49867">
        <ele>69</ele>
        <time>2024-11-26T18:12:16Z</time>
      </trkpt>
      <trkpt lat="48.72855" lon="-3.49816">
        <ele>74</ele>
        <time>2024-11-26T18:12:32Z</time>
      </trkpt>
      <trkpt lat="48.72803" lon="-3.4979">
        <ele>76</ele>
        <time>2024-11-26T18:12:42Z</time>
      </trkpt>
      <trkpt lat="48.72774" lon="-3.49781">
        <ele>77</ele>
        <time>2024-11-26T18:12:47Z</time>
      </trkpt>
      <trkpt lat="48.72751" lon="-3.49778">
        <ele>78</ele>
        <time>2024-11-26T18:12:51Z</time>
      </trkpt>
      <trkpt lat="48.72718" lon="-3.49788">
        <ele>80</ele>
        <time>2024-11-26T18:12:57Z</time>
      </trkpt>
      <trkpt lat="48.72696" lon="-3.49786">
        <ele>81</ele>
        <time>2024-11-26T18:13:01Z</time>
      </trkpt>
      <trkpt lat="48.72664" lon="-3.49774">
        <ele>82</ele>
        <time>2024-11-26T18:13:07Z</time>
      </trkpt>
      <trkpt lat="48.72646" lon="-3.49769">
        <ele>83</ele>
        <time>2024-11-26T18:13:10Z</time>
      </trkpt>
      <trkpt lat="48.7263" lon="-3.4977">
        <ele>84</ele>
        <time>2024-11-26T18:13:13Z</time>
      </trkpt>
      <trkpt lat="48.72573" lon="-3.4978">
        <ele>86</ele>
        <time>2024-11-26T18:13:23Z</time>
      </trkpt>
      <trkpt lat="48.72456" lon="-3.49764">
        <ele>90</ele>
        <time>2024-11-26T18:13:44Z</time>
      </trkpt>
      <trkpt lat="48.72409" lon="-3.4976">
        <ele>91</ele>
        <time>2024-11-26T18:13:52Z</time>
      </trkpt>
      <trkpt lat="48.72391" lon="-3.49762">
        <ele>92</ele>
        <time>2024-11-26T18:13:56Z</time>
      </trkpt>
      <trkpt lat="48.72371" lon="-3.49773">
        <ele>93</ele>
        <time>2024-11-26T18:13:59Z</time>
      </trkpt>
      <trkpt lat="48.72356" lon="-3.49793">
        <ele>93</ele>
        <time>2024-11-26T18:14:03Z</time>
      </trkpt>
      <trkpt lat="48.72315" lon="-3.49861">
        <ele>95</ele>
        <time>2024-11-26T18:14:14Z</time>
      </trkpt>
      <trkpt lat="48.72306" lon="-3.49868">
        <ele>95</ele>
        <time>2024-11-26T18:14:15Z</time>
      </trkpt>
      <trkpt lat="48.72296" lon="-3.49872">
        <ele>95</ele>
        <time>2024-11-26T18:14:17Z</time>
      </trkpt>
      <trkpt lat="48.72192" lon="-3.49866">
        <ele>97</ele>
        <time>2024-11-26T18:14:36Z</time>
      </trkpt>
      <trkpt lat="48.72173" lon="-3.49873">
        <ele>97</ele>
        <time>2024-11-26T18:14:39Z</time>
      </trkpt>
      <trkpt lat="48.72141" lon="-3.49908">
        <ele>97</ele>
        <time>2024-11-26T18:14:46Z</time>
      </trkpt>
      <trkpt lat="48.72098" lon="-3.4999">
        <ele>97</ele>
        <time>2024-11-26T18:14:59Z</time>
      </trkpt>
      <trkpt lat="48.72075" lon="-3.50029">
        <ele>97</ele>
        <time>2024-11-26T18:15:05Z</time>
      </trkpt>
      <trkpt lat="48.72032" lon="-3.50092">
        <ele>96</ele>
        <time>2024-11-26T18:15:15Z</time>
      </trkpt>
      <trkpt lat="48.71968" lon="-3.50167">
        <ele>98</ele>
        <time>2024-11-26T18:15:30Z</time>
      </trkpt>
      <trkpt lat="48.71905" lon="-3.50227">
        <ele>99</ele>
        <time>2024-11-26T18:15:43Z</time>
      </trkpt>
      <trkpt lat="48.71889" lon="-3.50237">
        <ele>99</ele>
        <time>2024-11-26T18:15:46Z</time>
      </trkpt>
      <trkpt lat="48.71892" lon="-3.50259">
        <ele>98</ele>
        <time>2024-11-26T18:15:49Z</time>
      </trkpt>
      <trkpt lat="48.71891" lon="-3.50276">
        <ele>98</ele>
        <time>2024-11-26T18:15:51Z</time>
      </trkpt>
      <trkpt lat="48.71877" lon="-3.50378">
        <ele>96</ele>
        <time>2024-11-26T18:16:03Z</time>
      </trkpt>
      <trkpt lat="48.71867" lon="-3.50431">
        <ele>95</ele>
        <time>2024-11-26T18:16:09Z</time>
      </trkpt>
      <trkpt lat="48.71868" lon="-3.50446">
        <ele>94</ele>
        <time>2024-11-26T18:16:11Z</time>
      </trkpt>
      <trkpt lat="48.71859" lon="-3.50471">
        <ele>94</ele>
        <time>2024-11-26T18:16:15Z</time>
      </trkpt>
      <trkpt lat="48.71833" lon="-3.50508">
        <ele>94</ele>
        <time>2024-11-26T18:16:21Z</time>
      </trkpt>
      <trkpt lat="48.71821" lon="-3.50531">
        <ele>93</ele>
        <time>2024-11-26T18:16:24Z</time>
      </trkpt>
      <trkpt lat="48.71813" lon="-3.50549">
        <ele>92</ele>
        <time>2024-11-26T18:16:27Z</time>
      </trkpt>
      <trkpt lat="48.71792" lon="-3.50639">
        <ele>90</ele>
        <time>2024-11-26T18:16:38Z</time>
      </trkpt>
      <trkpt lat="48.71785" lon="-3.50685">
        <ele>88</ele>
        <time>2024-11-26T18:16:44Z</time>
      </trkpt>
      <trkpt lat="48.71772" lon="-3.50741">
        <ele>86</ele>
        <time>2024-11-26T18:16:51Z</time>
      </trkpt>
      <trkpt lat="48.71763" lon="-3.50796">
        <ele>85</ele>
        <time>2024-11-26T18:16:57Z</time>
      </trkpt>
      <trkpt lat="48.71752" lon="-3.50901">
        <ele>85</ele>
        <time>2024-11-26T18:17:10Z</time>
      </trkpt>
      <trkpt lat="48.71756" lon="-3.50945">
        <ele>85</ele>
        <time>2024-11-26T18:17:15Z</time>
      </trkpt>
      <trkpt lat="48.71761" lon="-3.50963">
        <ele>85</ele>
        <time>2024-11-26T18:17:17Z</time>
      </trkpt>
      <trkpt lat="48.71762" lon="-3.5099">
        <ele>85</ele>
        <time>2024-11-26T18:17:20Z</time>
      </trkpt>
      <trkpt lat="48.71763" lon="-3.5102">
        <ele>84</ele>
        <time>2024-11-26T18:17:24Z</time>
      </trkpt>
      <trkpt lat="48.7176" lon="-3.51068">
        <ele>82</ele>
        <time>2024-11-26T18:17:30Z</time>
      </trkpt>
      <trkpt lat="48.71756" lon="-3.511">
        <ele>82</ele>
        <time>2024-11-26T18:17:33Z</time>
      </trkpt>
      <trkpt lat="48.71746" lon="-3.51137">
        <ele>81</ele>
        <time>2024-11-26T18:17:38Z</time>
      </trkpt>
      <trkpt lat="48.7173" lon="-3.51225">
        <ele>80</ele>
        <time>2024-11-26T18:17:49Z</time>
      </trkpt>
      <trkpt lat="48.71727" lon="-3.51253">
        <ele>80</ele>
        <time>2024-11-26T18:17:52Z</time>
      </trkpt>
      <trkpt lat="48.71726" lon="-3.51301">
        <ele>80</ele>
        <time>2024-11-26T18:17:58Z</time>
      </trkpt>
      <trkpt lat="48.71716" lon="-3.51387">
        <ele>81</ele>
        <time>2024-11-26T18:18:08Z</time>
      </trkpt>
      <trkpt lat="48.71712" lon="-3.51472">
        <ele>78</ele>
        <time>2024-11-26T18:18:18Z</time>
      </trkpt>
      <trkpt lat="48.71683" lon="-3.517">
        <ele>73</ele>
        <time>2024-11-26T18:18:45Z</time>
      </trkpt>
      <trkpt lat="48.71678" lon="-3.51731">
        <ele>71</ele>
        <time>2024-11-26T18:18:49Z</time>
      </trkpt>
      <trkpt lat="48.71639" lon="-3.51935">
        <ele>77</ele>
        <time>2024-11-26T18:19:14Z</time>
      </trkpt>
      <trkpt lat="48.71637" lon="-3.51972">
        <ele>77</ele>
        <time>2024-11-26T18:19:18Z</time>
      </trkpt>
      <trkpt lat="48.71638" lon="-3.52002">
        <ele>78</ele>
        <time>2024-11-26T18:19:22Z</time>
      </trkpt>
      <trkpt lat="48.71652" lon="-3.52204">
        <ele>80</ele>
        <time>2024-11-26T18:19:46Z</time>
      </trkpt>
      <trkpt lat="48.71653" lon="-3.52235">
        <ele>81</ele>
        <time>2024-11-26T18:19:49Z</time>
      </trkpt>
      <trkpt lat="48.71635" lon="-3.52349">
        <ele>82</ele>
        <time>2024-11-26T18:20:03Z</time>
      </trkpt>
      <trkpt lat="48.71627" lon="-3.52382">
        <ele>84</ele>
        <time>2024-11-26T18:20:07Z</time>
      </trkpt>
      <trkpt lat="48.71621" lon="-3.52399">
        <ele>84</ele>
        <time>2024-11-26T18:20:10Z</time>
      </trkpt>
      <trkpt lat="48.71598" lon="-3.52445">
        <ele>87</ele>
        <time>2024-11-26T18:20:16Z</time>
      </trkpt>
      <trkpt lat="48.71536" lon="-3.52554">
        <ele>91</ele>
        <time>2024-11-26T18:20:33Z</time>
      </trkpt>
      <trkpt lat="48.71522" lon="-3.52575">
        <ele>92</ele>
        <time>2024-11-26T18:20:37Z</time>
      </trkpt>
      <trkpt lat="48.71493" lon="-3.52608">
        <ele>94</ele>
        <time>2024-11-26T18:20:43Z</time>
      </trkpt>
      <trkpt lat="48.71464" lon="-3.52632">
        <ele>95</ele>
        <time>2024-11-26T18:20:49Z</time>
      </trkpt>
      <trkpt lat="48.7142" lon="-3.52662">
        <ele>96</ele>
        <time>2024-11-26T18:20:58Z</time>
      </trkpt>
      <trkpt lat="48.71337" lon="-3.52759">
        <ele>98</ele>
        <time>2024-11-26T18:21:16Z</time>
      </trkpt>
      <trkpt lat="48.71328" lon="-3.52766">
        <ele>98</ele>
        <time>2024-11-26T18:21:18Z</time>
      </trkpt>
      <trkpt lat="48.71335" lon="-3.52798">
        <ele>99</ele>
        <time>2024-11-26T18:21:22Z</time>
      </trkpt>
      <trkpt lat="48.71389" lon="-3.52933">
        <ele>99</ele>
        <time>2024-11-26T18:21:41Z</time>
      </trkpt>
      <trkpt lat="48.71413" lon="-3.52981">
        <ele>99</ele>
        <time>2024-11-26T18:21:48Z</time>
      </trkpt>
      <trkpt lat="48.71464" lon="-3.53064">
        <ele>98</ele>
        <time>2024-11-26T18:22:01Z</time>
      </trkpt>
      <trkpt lat="48.71484" lon="-3.53108">
        <ele>97</ele>
        <time>2024-11-26T18:22:07Z</time>
      </trkpt>
      <trkpt lat="48.71492" lon="-3.53132">
        <ele>97</ele>
        <time>2024-11-26T18:22:10Z</time>
      </trkpt>
      <trkpt lat="48.71514" lon="-3.53175">
        <ele>96</ele>
        <time>2024-11-26T18:22:17Z</time>
      </trkpt>
      <trkpt lat="48.71552" lon="-3.53225">
        <ele>95</ele>
        <time>2024-11-26T18:22:26Z</time>
      </trkpt>
      <trkpt lat="48.71617" lon="-3.53297">
        <ele>94</ele>
        <time>2024-11-26T18:22:40Z</time>
      </trkpt>
      <trkpt lat="48.71635" lon="-3.53323">
        <ele>94</ele>
        <time>2024-11-26T18:22:44Z</time>
      </trkpt>
      <trkpt lat="48.71647" lon="-3.53352">
        <ele>94</ele>
        <time>2024-11-26T18:22:48Z</time>
      </trkpt>
      <trkpt lat="48.71665" lon="-3.5342">
        <ele>96</ele>
        <time>2024-11-26T18:22:57Z</time>
      </trkpt>
      <trkpt lat="48.71685" lon="-3.5348">
        <ele>96</ele>
        <time>2024-11-26T18:23:05Z</time>
      </trkpt>
      <trkpt lat="48.71703" lon="-3.53539">
        <ele>95</ele>
        <time>2024-11-26T18:23:13Z</time>
      </trkpt>
      <trkpt lat="48.71748" lon="-3.53725">
        <ele>91</ele>
        <time>2024-11-26T18:23:36Z</time>
      </trkpt>
      <trkpt lat="48.7177" lon="-3.5381">
        <ele>88</ele>
        <time>2024-11-26T18:23:47Z</time>
      </trkpt>
      <trkpt lat="48.71785" lon="-3.53846">
        <ele>87</ele>
        <time>2024-11-26T18:23:52Z</time>
      </trkpt>
      <trkpt lat="48.718" lon="-3.53877">
        <ele>87</ele>
        <time>2024-11-26T18:23:56Z</time>
      </trkpt>
      <trkpt lat="48.71817" lon="-3.539">
        <ele>86</ele>
        <time>2024-11-26T18:24:00Z</time>
      </trkpt>
      <trkpt lat="48.71875" lon="-3.53961">
        <ele>86</ele>
        <time>2024-11-26T18:24:13Z</time>
      </trkpt>
      <trkpt lat="48.71896" lon="-3.53985">
        <ele>87</ele>
        <time>2024-11-26T18:24:17Z</time>
      </trkpt>
      <trkpt lat="48.71907" lon="-3.54007">
        <ele>87</ele>
        <time>2024-11-26T18:24:21Z</time>
      </trkpt>
      <trkpt lat="48.71912" lon="-3.54018">
        <ele>86</ele>
        <time>2024-11-26T18:24:22Z</time>
      </trkpt>
      <trkpt lat="48.71919" lon="-3.54048">
        <ele>86</ele>
        <time>2024-11-26T18:24:26Z</time>
      </trkpt>
      <trkpt lat="48.71921" lon="-3.54063">
        <ele>86</ele>
        <time>2024-11-26T18:24:28Z</time>
      </trkpt>
      <trkpt lat="48.71921" lon="-3.54085">
        <ele>85</ele>
        <time>2024-11-26T18:24:30Z</time>
      </trkpt>
      <trkpt lat="48.71919" lon="-3.54136">
        <ele>84</ele>
        <time>2024-11-26T18:24:36Z</time>
      </trkpt>
      <trkpt lat="48.71903" lon="-3.54332">
        <ele>81</ele>
        <time>2024-11-26T18:25:00Z</time>
      </trkpt>
      <trkpt lat="48.71905" lon="-3.54402">
        <ele>80</ele>
        <time>2024-11-26T18:25:08Z</time>
      </trkpt>
      <trkpt lat="48.71919" lon="-3.54482">
        <ele>80</ele>
        <time>2024-11-26T18:25:17Z</time>
      </trkpt>
      <trkpt lat="48.71932" lon="-3.54538">
        <ele>79</ele>
        <time>2024-11-26T18:25:24Z</time>
      </trkpt>
      <trkpt lat="48.71947" lon="-3.54588">
        <ele>78</ele>
        <time>2024-11-26T18:25:31Z</time>
      </trkpt>
      <trkpt lat="48.71954" lon="-3.54621">
        <ele>77</ele>
        <time>2024-11-26T18:25:35Z</time>
      </trkpt>
      <trkpt lat="48.71961" lon="-3.54664">
        <ele>76</ele>
        <time>2024-11-26T18:25:40Z</time>
      </trkpt>
      <trkpt lat="48.7197" lon="-3.54696">
        <ele>76</ele>
        <time>2024-11-26T18:25:44Z</time>
      </trkpt>
      <trkpt lat="48.71997" lon="-3.54753">
        <ele>76</ele>
        <time>2024-11-26T18:25:52Z</time>
      </trkpt>
      <trkpt lat="48.7212" lon="-3.55071">
        <ele>71</ele>
        <time>2024-11-26T18:26:36Z</time>
      </trkpt>
      <trkpt lat="48.7213" lon="-3.55102">
        <ele>71</ele>
        <time>2024-11-26T18:26:40Z</time>
      </trkpt>
      <trkpt lat="48.72133" lon="-3.55122">
        <ele>71</ele>
        <time>2024-11-26T18:26:42Z</time>
      </trkpt>
      <trkpt lat="48.72135" lon="-3.55172">
        <ele>71</ele>
        <time>2024-11-26T18:26:48Z</time>
      </trkpt>
      <trkpt lat="48.72139" lon="-3.55205">
        <ele>71</ele>
        <time>2024-11-26T18:26:52Z</time>
      </trkpt>
      <trkpt lat="48.72144" lon="-3.55225">
        <ele>71</ele>
        <time>2024-11-26T18:26:55Z</time>
      </trkpt>
      <trkpt lat="48.72163" lon="-3.55259">
        <ele>71</ele>
        <time>2024-11-26T18:27:00Z</time>
      </trkpt>
      <trkpt lat="48.72177" lon="-3.55274">
        <ele>70</ele>
        <time>2024-11-26T18:27:03Z</time>
      </trkpt>
      <trkpt lat="48.72197" lon="-3.55302">
        <ele>69</ele>
        <time>2024-11-26T18:27:08Z</time>
      </trkpt>
      <trkpt lat="48.72238" lon="-3.55375">
        <ele>69</ele>
        <time>2024-11-26T18:27:19Z</time>
      </trkpt>
      <trkpt lat="48.7226" lon="-3.55418">
        <ele>69</ele>
        <time>2024-11-26T18:27:25Z</time>
      </trkpt>
      <trkpt lat="48.72266" lon="-3.55436">
        <ele>68</ele>
        <time>2024-11-26T18:27:28Z</time>
      </trkpt>
      <trkpt lat="48.72272" lon="-3.55425">
        <ele>68</ele>
        <time>2024-11-26T18:27:29Z</time>
      </trkpt>
      <trkpt lat="48.72282" lon="-3.55393">
        <ele>67</ele>
        <time>2024-11-26T18:27:33Z</time>
      </trkpt>
      <trkpt lat="48.72272" lon="-3.55425">
        <ele>68</ele>
        <time>2024-11-26T18:27:38Z</time>
      </trkpt>
      <trkpt lat="48.72266" lon="-3.55436">
        <ele>68</ele>
        <time>2024-11-26T18:27:39Z</time>
      </trkpt>
      <trkpt lat="48.72273" lon="-3.5546">
        <ele>67</ele>
        <time>2024-11-26T18:27:42Z</time>
      </trkpt>
      <trkpt lat="48.72332" lon="-3.55614">
        <ele>63</ele>
        <time>2024-11-26T18:28:03Z</time>
      </trkpt>
      <trkpt lat="48.7234" lon="-3.55643">
        <ele>63</ele>
        <time>2024-11-26T18:28:07Z</time>
      </trkpt>
      <trkpt lat="48.72357" lon="-3.55739">
        <ele>60</ele>
        <time>2024-11-26T18:28:19Z</time>
      </trkpt>
      <trkpt lat="48.72407" lon="-3.55959">
        <ele>51</ele>
        <time>2024-11-26T18:28:46Z</time>
      </trkpt>
      <trkpt lat="48.72414" lon="-3.56027">
        <ele>48</ele>
        <time>2024-11-26T18:28:54Z</time>
      </trkpt>
      <trkpt lat="48.72433" lon="-3.561">
        <ele>45</ele>
        <time>2024-11-26T18:29:03Z</time>
      </trkpt>
      <trkpt lat="48.72442" lon="-3.56122">
        <ele>44</ele>
        <time>2024-11-26T18:29:06Z</time>
      </trkpt>
      <trkpt lat="48.72457" lon="-3.56149">
        <ele>44</ele>
        <time>2024-11-26T18:29:10Z</time>
      </trkpt>
      <trkpt lat="48.72476" lon="-3.56213">
        <ele>43</ele>
        <time>2024-11-26T18:29:19Z</time>
      </trkpt>
      <trkpt lat="48.72477" lon="-3.56247">
        <ele>42</ele>
        <time>2024-11-26T18:29:23Z</time>
      </trkpt>
      <trkpt lat="48.72469" lon="-3.56284">
        <ele>41</ele>
        <time>2024-11-26T18:29:27Z</time>
      </trkpt>
      <trkpt lat="48.72438" lon="-3.5635">
        <ele>39</ele>
        <time>2024-11-26T18:29:37Z</time>
      </trkpt>
      <trkpt lat="48.72428" lon="-3.56365">
        <ele>38</ele>
        <time>2024-11-26T18:29:39Z</time>
      </trkpt>
      <trkpt lat="48.72417" lon="-3.56372">
        <ele>37</ele>
        <time>2024-11-26T18:29:41Z</time>
      </trkpt>
      <trkpt lat="48.72411" lon="-3.56374">
        <ele>37</ele>
        <time>2024-11-26T18:29:42Z</time>
      </trkpt>
      <trkpt lat="48.72362" lon="-3.56376">
        <ele>34</ele>
        <time>2024-11-26T18:29:51Z</time>
      </trkpt>
      <trkpt lat="48.72357" lon="-3.56382">
        <ele>34</ele>
        <time>2024-11-26T18:29:52Z</time>
      </trkpt>
      <trkpt lat="48.72346" lon="-3.56403">
        <ele>34</ele>
        <time>2024-11-26T18:29:55Z</time>
      </trkpt>
      <trkpt lat="48.72327" lon="-3.56423">
        <ele>33</ele>
        <time>2024-11-26T18:30:00Z</time>
      </trkpt>
      <trkpt lat="48.72319" lon="-3.56427">
        <ele>32</ele>
        <time>2024-11-26T18:30:01Z</time>
      </trkpt>
      <trkpt lat="48.72323" lon="-3.56458">
        <ele>33</ele>
        <time>2024-11-26T18:30:05Z</time>
      </trkpt>
      <trkpt lat="48.72333" lon="-3.56484">
        <ele>35</ele>
        <time>2024-11-26T18:30:08Z</time>
      </trkpt>
      <trkpt lat="48.7234" lon="-3.56511">
        <ele>35</ele>
        <time>2024-11-26T18:30:12Z</time>
      </trkpt>
      <trkpt lat="48.72346" lon="-3.56567">
        <ele>36</ele>
        <time>2024-11-26T18:30:18Z</time>
      </trkpt>
      <trkpt lat="48.72355" lon="-3.5667">
        <ele>34</ele>
        <time>2024-11-26T18:30:31Z</time>
      </trkpt>
      <trkpt lat="48.7237" lon="-3.56796">
        <ele>30</ele>
        <time>2024-11-26T18:30:46Z</time>
      </trkpt>
      <trkpt lat="48.72375" lon="-3.5687">
        <ele>27</ele>
        <time>2024-11-26T18:30:54Z</time>
      </trkpt>
      <trkpt lat="48.72379" lon="-3.56987">
        <ele>21</ele>
        <time>2024-11-26T18:31:08Z</time>
      </trkpt>
      <trkpt lat="48.72385" lon="-3.57036">
        <ele>17</ele>
        <time>2024-11-26T18:31:14Z</time>
      </trkpt>
      <trkpt lat="48.724" lon="-3.571">
        <ele>10</ele>
        <time>2024-11-26T18:31:22Z</time>
      </trkpt>
      <trkpt lat="48.72412" lon="-3.57122">
        <ele>8</ele>
        <time>2024-11-26T18:31:25Z</time>
      </trkpt>
      <trkpt lat="48.7243" lon="-3.57147">
        <ele>5</ele>
        <time>2024-11-26T18:31:30Z</time>
      </trkpt>
      <trkpt lat="48.72405" lon="-3.57175">
        <ele>4</ele>
        <time>2024-11-26T18:31:35Z</time>
      </trkpt>
      <trkpt lat="48.72376" lon="-3.57197">
        <ele>5</ele>
        <time>2024-11-26T18:31:41Z</time>
      </trkpt>
      <trkpt lat="48.7229" lon="-3.57206">
        <ele>8</ele>
        <time>2024-11-26T18:31:56Z</time>
      </trkpt>
      <trkpt lat="48.7226" lon="-3.57228">
        <ele>9</ele>
        <time>2024-11-26T18:32:02Z</time>
      </trkpt>
      <trkpt lat="48.72247" lon="-3.57255">
        <ele>9</ele>
        <time>2024-11-26T18:32:06Z</time>
      </trkpt>
      <trkpt lat="48.72225" lon="-3.57306">
        <ele>11</ele>
        <time>2024-11-26T18:32:13Z</time>
      </trkpt>
      <trkpt lat="48.72214" lon="-3.57287">
        <ele>12</ele>
        <time>2024-11-26T18:32:16Z</time>
      </trkpt>
      <trkpt lat="48.72197" lon="-3.5727">
        <ele>13</ele>
        <time>2024-11-26T18:32:20Z</time>
      </trkpt>
      <trkpt lat="48.72162" lon="-3.57243">
        <ele>15</ele>
        <time>2024-11-26T18:32:27Z</time>
      </trkpt>
      <trkpt lat="48.72148" lon="-3.57227">
        <ele>17</ele>
        <time>2024-11-26T18:32:30Z</time>
      </trkpt>
      <trkpt lat="48.72106" lon="-3.57114">
        <ele>22</ele>
        <time>2024-11-26T18:32:45Z</time>
      </trkpt>
      <trkpt lat="48.72105" lon="-3.57099">
        <ele>23</ele>
        <time>2024-11-26T18:32:47Z</time>
      </trkpt>
      <trkpt lat="48.7211" lon="-3.5701">
        <ele>26</ele>
        <time>2024-11-26T18:32:57Z</time>
      </trkpt>
      <trkpt lat="48.72112" lon="-3.56995">
        <ele>27</ele>
        <time>2024-11-26T18:32:59Z</time>
      </trkpt>
      <trkpt lat="48.72137" lon="-3.5693">
        <ele>25</ele>
        <time>2024-11-26T18:33:08Z</time>
      </trkpt>
      <trkpt lat="48.72147" lon="-3.569">
        <ele>24</ele>
        <time>2024-11-26T18:33:12Z</time>
      </trkpt>
      <trkpt lat="48.72154" lon="-3.56865">
        <ele>24</ele>
        <time>2024-11-26T18:33:16Z</time>
      </trkpt>
      <trkpt lat="48.72154" lon="-3.56836">
        <ele>25</ele>
        <time>2024-11-26T18:33:20Z</time>
      </trkpt>
      <trkpt lat="48.72153" lon="-3.56823">
        <ele>26</ele>
        <time>2024-11-26T18:33:21Z</time>
      </trkpt>
      <trkpt lat="48.72139" lon="-3.56791">
        <ele>28</ele>
        <time>2024-11-26T18:33:26Z</time>
      </trkpt>
      <trkpt lat="48.72129" lon="-3.56777">
        <ele>29</ele>
        <time>2024-11-26T18:33:28Z</time>
      </trkpt>
      <trkpt lat="48.72117" lon="-3.56768">
        <ele>31</ele>
        <time>2024-11-26T18:33:31Z</time>
      </trkpt>
      <trkpt lat="48.72106" lon="-3.56763">
        <ele>32</ele>
        <time>2024-11-26T18:33:33Z</time>
      </trkpt>
      <trkpt lat="48.72065" lon="-3.56755">
        <ele>36</ele>
        <time>2024-11-26T18:33:40Z</time>
      </trkpt>
      <trkpt lat="48.71969" lon="-3.56744">
        <ele>42</ele>
        <time>2024-11-26T18:33:57Z</time>
      </trkpt>
      <trkpt lat="48.71913" lon="-3.56732">
        <ele>46</ele>
        <time>2024-11-26T18:34:07Z</time>
      </trkpt>
      <trkpt lat="48.71885" lon="-3.56718">
        <ele>47</ele>
        <time>2024-11-26T18:34:12Z</time>
      </trkpt>
      <trkpt lat="48.71844" lon="-3.56688">
        <ele>47</ele>
        <time>2024-11-26T18:34:20Z</time>
      </trkpt>
      <trkpt lat="48.7182" lon="-3.56666">
        <ele>48</ele>
        <time>2024-11-26T18:34:25Z</time>
      </trkpt>
      <trkpt lat="48.71793" lon="-3.56629">
        <ele>52</ele>
        <time>2024-11-26T18:34:32Z</time>
      </trkpt>
      <trkpt lat="48.71711" lon="-3.56477">
        <ele>59</ele>
        <time>2024-11-26T18:34:55Z</time>
      </trkpt>
      <trkpt lat="48.71677" lon="-3.56427">
        <ele>60</ele>
        <time>2024-11-26T18:35:03Z</time>
      </trkpt>
      <trkpt lat="48.71644" lon="-3.56397">
        <ele>62</ele>
        <time>2024-11-26T18:35:10Z</time>
      </trkpt>
      <trkpt lat="48.71559" lon="-3.56336">
        <ele>67</ele>
        <time>2024-11-26T18:35:27Z</time>
      </trkpt>
      <trkpt lat="48.7153" lon="-3.56313">
        <ele>68</ele>
        <time>2024-11-26T18:35:33Z</time>
      </trkpt>
      <trkpt lat="48.71452" lon="-3.56239">
        <ele>71</ele>
        <time>2024-11-26T18:35:49Z</time>
      </trkpt>
      <trkpt lat="48.71437" lon="-3.56228">
        <ele>71</ele>
        <time>2024-11-26T18:35:52Z</time>
      </trkpt>
      <trkpt lat="48.71423" lon="-3.56222">
        <ele>72</ele>
        <time>2024-11-26T18:35:55Z</time>
      </trkpt>
      <trkpt lat="48.71404" lon="-3.56219">
        <ele>73</ele>
        <time>2024-11-26T18:35:58Z</time>
      </trkpt>
      <trkpt lat="48.71321" lon="-3.56214">
        <ele>77</ele>
        <time>2024-11-26T18:36:13Z</time>
      </trkpt>
      <trkpt lat="48.71241" lon="-3.562">
        <ele>77</ele>
        <time>2024-11-26T18:36:27Z</time>
      </trkpt>
      <trkpt lat="48.712" lon="-3.5619">
        <ele>79</ele>
        <time>2024-11-26T18:36:35Z</time>
      </trkpt>
      <trkpt lat="48.71168" lon="-3.56197">
        <ele>80</ele>
        <time>2024-11-26T18:36:40Z</time>
      </trkpt>
      <trkpt lat="48.71135" lon="-3.56211">
        <ele>82</ele>
        <time>2024-11-26T18:36:47Z</time>
      </trkpt>
      <trkpt lat="48.71118" lon="-3.56215">
        <ele>83</ele>
        <time>2024-11-26T18:36:50Z</time>
      </trkpt>
      <trkpt lat="48.70971" lon="-3.56233">
        <ele>86</ele>
        <time>2024-11-26T18:37:16Z</time>
      </trkpt>
      <trkpt lat="48.70926" lon="-3.56236">
        <ele>87</ele>
        <time>2024-11-26T18:37:24Z</time>
      </trkpt>
      <trkpt lat="48.70917" lon="-3.56234">
        <ele>88</ele>
        <time>2024-11-26T18:37:25Z</time>
      </trkpt>
      <trkpt lat="48.70897" lon="-3.56221">
        <ele>88</ele>
        <time>2024-11-26T18:37:29Z</time>
      </trkpt>
      <trkpt lat="48.70849" lon="-3.56281">
        <ele>90</ele>
        <time>2024-11-26T18:37:40Z</time>
      </trkpt>
      <trkpt lat="48.70837" lon="-3.56289">
        <ele>91</ele>
        <time>2024-11-26T18:37:43Z</time>
      </trkpt>
      <trkpt lat="48.70786" lon="-3.56314">
        <ele>92</ele>
        <time>2024-11-26T18:37:52Z</time>
      </trkpt>
      <trkpt lat="48.70775" lon="-3.56312">
        <ele>93</ele>
        <time>2024-11-26T18:37:54Z</time>
      </trkpt>
      <trkpt lat="48.70761" lon="-3.56301">
        <ele>92</ele>
        <time>2024-11-26T18:37:57Z</time>
      </trkpt>
      <trkpt lat="48.70732" lon="-3.5627">
        <ele>92</ele>
        <time>2024-11-26T18:38:03Z</time>
      </trkpt>
      <trkpt lat="48.70701" lon="-3.56245">
        <ele>91</ele>
        <time>2024-11-26T18:38:10Z</time>
      </trkpt>
      <trkpt lat="48.70653" lon="-3.5622">
        <ele>91</ele>
        <time>2024-11-26T18:38:19Z</time>
      </trkpt>
      <trkpt lat="48.70596" lon="-3.56203">
        <ele>93</ele>
        <time>2024-11-26T18:38:29Z</time>
      </trkpt>
      <trkpt lat="48.70574" lon="-3.56192">
        <ele>93</ele>
        <time>2024-11-26T18:38:33Z</time>
      </trkpt>
      <trkpt lat="48.70559" lon="-3.56175">
        <ele>93</ele>
        <time>2024-11-26T18:38:36Z</time>
      </trkpt>
      <trkpt lat="48.70539" lon="-3.56139">
        <ele>93</ele>
        <time>2024-11-26T18:38:42Z</time>
      </trkpt>
      <trkpt lat="48.70532" lon="-3.56129">
        <ele>93</ele>
        <time>2024-11-26T18:38:44Z</time>
      </trkpt>
      <trkpt lat="48.70517" lon="-3.56116">
        <ele>93</ele>
        <time>2024-11-26T18:38:47Z</time>
      </trkpt>
      <trkpt lat="48.70485" lon="-3.56103">
        <ele>93</ele>
        <time>2024-11-26T18:38:53Z</time>
      </trkpt>
      <trkpt lat="48.70376" lon="-3.56065">
        <ele>92</ele>
        <time>2024-11-26T18:39:13Z</time>
      </trkpt>
      <trkpt lat="48.70331" lon="-3.56053">
        <ele>91</ele>
        <time>2024-11-26T18:39:21Z</time>
      </trkpt>
      <trkpt lat="48.7029" lon="-3.5605">
        <ele>92</ele>
        <time>2024-11-26T18:39:28Z</time>
      </trkpt>
      <trkpt lat="48.70272" lon="-3.56052">
        <ele>92</ele>
        <time>2024-11-26T18:39:31Z</time>
      </trkpt>
      <trkpt lat="48.70244" lon="-3.56062">
        <ele>92</ele>
        <time>2024-11-26T18:39:36Z</time>
      </trkpt>
      <trkpt lat="48.70192" lon="-3.56086">
        <ele>91</ele>
        <time>2024-11-26T18:39:46Z</time>
      </trkpt>
      <trkpt lat="48.7019" lon="-3.5606">
        <ele>92</ele>
        <time>2024-11-26T18:39:49Z</time>
      </trkpt>
      <trkpt lat="48.70192" lon="-3.56086">
        <ele>91</ele>
        <time>2024-11-26T18:39:52Z</time>
      </trkpt>
      <trkpt lat="48.70184" lon="-3.56123">
        <ele>91</ele>
        <time>2024-11-26T18:39:57Z</time>
      </trkpt>
      <trkpt lat="48.70147" lon="-3.56123">
        <ele>90</ele>
        <time>2024-11-26T18:40:03Z</time>
      </trkpt>
      <trkpt lat="48.70058" lon="-3.56112">
        <ele>89</ele>
        <time>2024-11-26T18:40:19Z</time>
      </trkpt>
      <trkpt lat="48.70005" lon="-3.56122">
        <ele>86</ele>
        <time>2024-11-26T18:40:29Z</time>
      </trkpt>
      <trkpt lat="48.69954" lon="-3.56142">
        <ele>84</ele>
        <time>2024-11-26T18:40:38Z</time>
      </trkpt>
      <trkpt lat="48.69938" lon="-3.56147">
        <ele>83</ele>
        <time>2024-11-26T18:40:41Z</time>
      </trkpt>
      <trkpt lat="48.69916" lon="-3.56147">
        <ele>82</ele>
        <time>2024-11-26T18:40:45Z</time>
      </trkpt>
      <trkpt lat="48.69894" lon="-3.56142">
        <ele>82</ele>
        <time>2024-11-26T18:40:49Z</time>
      </trkpt>
      <trkpt lat="48.69824" lon="-3.56104">
        <ele>79</ele>
        <time>2024-11-26T18:41:02Z</time>
      </trkpt>
      <trkpt lat="48.69713" lon="-3.56052">
        <ele>74</ele>
        <time>2024-11-26T18:41:23Z</time>
      </trkpt>
      <trkpt lat="48.69638" lon="-3.56026">
        <ele>72</ele>
        <time>2024-11-26T18:41:36Z</time>
      </trkpt>
      <trkpt lat="48.69613" lon="-3.56021">
        <ele>72</ele>
        <time>2024-11-26T18:41:41Z</time>
      </trkpt>
      <trkpt lat="48.69573" lon="-3.5603">
        <ele>71</ele>
        <time>2024-11-26T18:41:48Z</time>
      </trkpt>
      <trkpt lat="48.69498" lon="-3.56033">
        <ele>71</ele>
        <time>2024-11-26T18:42:01Z</time>
      </trkpt>
      <trkpt lat="48.69484" lon="-3.56036">
        <ele>72</ele>
        <time>2024-11-26T18:42:04Z</time>
      </trkpt>
      <trkpt lat="48.6947" lon="-3.5604">
        <ele>72</ele>
        <time>2024-11-26T18:42:06Z</time>
      </trkpt>
      <trkpt lat="48.69417" lon="-3.56068">
        <ele>74</ele>
        <time>2024-11-26T18:42:16Z</time>
      </trkpt>
      <trkpt lat="48.69386" lon="-3.56076">
        <ele>74</ele>
        <time>2024-11-26T18:42:22Z</time>
      </trkpt>
      <trkpt lat="48.69345" lon="-3.56069">
        <ele>76</ele>
        <time>2024-11-26T18:42:29Z</time>
      </trkpt>
      <trkpt lat="48.69308" lon="-3.56056">
        <ele>78</ele>
        <time>2024-11-26T18:42:36Z</time>
      </trkpt>
      <trkpt lat="48.69292" lon="-3.56058">
        <ele>78</ele>
        <time>2024-11-26T18:42:39Z</time>
      </trkpt>
      <trkpt lat="48.6927" lon="-3.5607">
        <ele>78</ele>
        <time>2024-11-26T18:42:43Z</time>
      </trkpt>
      <trkpt lat="48.69212" lon="-3.56112">
        <ele>77</ele>
        <time>2024-11-26T18:42:55Z</time>
      </trkpt>
      <trkpt lat="48.69099" lon="-3.56166">
        <ele>73</ele>
        <time>2024-11-26T18:43:16Z</time>
      </trkpt>
      <trkpt lat="48.69073" lon="-3.56174">
        <ele>71</ele>
        <time>2024-11-26T18:43:20Z</time>
      </trkpt>
      <trkpt lat="48.69048" lon="-3.56174">
        <ele>68</ele>
        <time>2024-11-26T18:43:25Z</time>
      </trkpt>
      <trkpt lat="48.69001" lon="-3.56219">
        <ele>67</ele>
        <time>2024-11-26T18:43:35Z</time>
      </trkpt>
      <trkpt lat="48.68872" lon="-3.56333">
        <ele>68</ele>
        <time>2024-11-26T18:44:01Z</time>
      </trkpt>
      <trkpt lat="48.68796" lon="-3.56407">
        <ele>63</ele>
        <time>2024-11-26T18:44:17Z</time>
      </trkpt>
      <trkpt lat="48.68785" lon="-3.56415">
        <ele>62</ele>
        <time>2024-11-26T18:44:20Z</time>
      </trkpt>
      <trkpt lat="48.6877" lon="-3.56419">
        <ele>61</ele>
        <time>2024-11-26T18:44:22Z</time>
      </trkpt>
      <trkpt lat="48.68735" lon="-3.56416">
        <ele>56</ele>
        <time>2024-11-26T18:44:29Z</time>
      </trkpt>
      <trkpt lat="48.68722" lon="-3.56417">
        <ele>54</ele>
        <time>2024-11-26T18:44:31Z</time>
      </trkpt>
      <trkpt lat="48.68709" lon="-3.56427">
        <ele>51</ele>
        <time>2024-11-26T18:44:33Z</time>
      </trkpt>
      <trkpt lat="48.687" lon="-3.56447">
        <ele>48</ele>
        <time>2024-11-26T18:44:36Z</time>
      </trkpt>
      <trkpt lat="48.68683" lon="-3.56504">
        <ele>42</ele>
        <time>2024-11-26T18:44:44Z</time>
      </trkpt>
      <trkpt lat="48.68649" lon="-3.56567">
        <ele>35</ele>
        <time>2024-11-26T18:44:53Z</time>
      </trkpt>
      <trkpt lat="48.68627" lon="-3.56619">
        <ele>29</ele>
        <time>2024-11-26T18:45:00Z</time>
      </trkpt>
      <trkpt lat="48.68619" lon="-3.56632">
        <ele>27</ele>
        <time>2024-11-26T18:45:03Z</time>
      </trkpt>
      <trkpt lat="48.686" lon="-3.56656">
        <ele>23</ele>
        <time>2024-11-26T18:45:07Z</time>
      </trkpt>
      <trkpt lat="48.68568" lon="-3.56685">
        <ele>18</ele>
        <time>2024-11-26T18:45:14Z</time>
      </trkpt>
      <trkpt lat="48.68548" lon="-3.56698">
        <ele>15</ele>
        <time>2024-11-26T18:45:17Z</time>
      </trkpt>
      <trkpt lat="48.6851" lon="-3.56701">
        <ele>11</ele>
        <time>2024-11-26T18:45:24Z</time>
      </trkpt>
      <trkpt lat="48.68463" lon="-3.56715">
        <ele>11</ele>
        <time>2024-11-26T18:45:33Z</time>
      </trkpt>
      <trkpt lat="48.68419" lon="-3.56709">
        <ele>14</ele>
        <time>2024-11-26T18:45:41Z</time>
      </trkpt>
      <trkpt lat="48.68367" lon="-3.56718">
        <ele>14</ele>
        <time>2024-11-26T18:45:50Z</time>
      </trkpt>
      <trkpt lat="48.683" lon="-3.5674">
        <ele>14</ele>
        <time>2024-11-26T18:46:02Z</time>
      </trkpt>
      <trkpt lat="48.68217" lon="-3.56781">
        <ele>13</ele>
        <time>2024-11-26T18:46:18Z</time>
      </trkpt>
      <trkpt lat="48.67993" lon="-3.56908">
        <ele>12</ele>
        <time>2024-11-26T18:47:00Z</time>
      </trkpt>
      <trkpt lat="48.67824" lon="-3.57006">
        <ele>11</ele>
        <time>2024-11-26T18:47:32Z</time>
      </trkpt>
      <trkpt lat="48.67594" lon="-3.57197">
        <ele>5</ele>
        <time>2024-11-26T18:48:19Z</time>
      </trkpt>
      <trkpt lat="48.67541" lon="-3.5725">
        <ele>4</ele>
        <time>2024-11-26T18:48:30Z</time>
      </trkpt>
      <trkpt lat="48.67531" lon="-3.57262">
        <ele>4</ele>
        <time>2024-11-26T18:48:33Z</time>
      </trkpt>
      <trkpt lat="48.67511" lon="-3.5729">
        <ele>4</ele>
        <time>2024-11-26T18:48:37Z</time>
      </trkpt>
      <trkpt lat="48.67478" lon="-3.57341">
        <ele>9</ele>
        <time>2024-11-26T18:48:46Z</time>
      </trkpt>
      <trkpt lat="48.67263" lon="-3.57705">
        <ele>13</ele>
        <time>2024-11-26T18:49:43Z</time>
      </trkpt>
      <trkpt lat="48.67157" lon="-3.57865">
        <ele>3</ele>
        <time>2024-11-26T18:50:10Z</time>
      </trkpt>
      <trkpt lat="48.67097" lon="-3.57957">
        <ele>3</ele>
        <time>2024-11-26T18:50:25Z</time>
      </trkpt>
      <trkpt lat="48.67082" lon="-3.57985">
        <ele>3</ele>
        <time>2024-11-26T18:50:29Z</time>
      </trkpt>
      <trkpt lat="48.67065" lon="-3.58024">
        <ele>3</ele>
        <time>2024-11-26T18:50:35Z</time>
      </trkpt>
      <trkpt lat="48.6705" lon="-3.58065">
        <ele>3</ele>
        <time>2024-11-26T18:50:40Z</time>
      </trkpt>
      <trkpt lat="48.67033" lon="-3.58125">
        <ele>3</ele>
        <time>2024-11-26T18:50:48Z</time>
      </trkpt>
      <trkpt lat="48.67025" lon="-3.58172">
        <ele>3</ele>
        <time>2024-11-26T18:50:54Z</time>
      </trkpt>
      <trkpt lat="48.67021" lon="-3.58225">
        <ele>4</ele>
        <time>2024-11-26T18:51:00Z</time>
      </trkpt>
      <trkpt lat="48.67022" lon="-3.58301">
        <ele>3</ele>
        <time>2024-11-26T18:51:09Z</time>
        <extensions>
          <visugpx:TrkExtension xmlns:visugpx="https://www.visugpx.com/editgpx/">
            <visugpx:node>1</visugpx:node>
            </visugpx:TrkExtension>
        </extensions>
      </trkpt>
      <trkpt lat="48.67028" lon="-3.58348">
        <ele>6.4</ele>
      </trkpt>
      <trkpt lat="48.67054" lon="-3.58523">
        <ele>6.8</ele>
      </trkpt>
      <trkpt lat="48.67061" lon="-3.58568">
        <ele>6.3</ele>
      </trkpt>
      <trkpt lat="48.6707" lon="-3.58629">
        <ele>5.8</ele>
      </trkpt>
      <trkpt lat="48.67079" lon="-3.58672">
        <ele>7.4</ele>
      </trkpt>
      <trkpt lat="48.67091" lon="-3.58704">
        <ele>7</ele>
      </trkpt>
      <trkpt lat="48.67093" lon="-3.58708">
        <ele>6.8</ele>
      </trkpt>
      <trkpt lat="48.67096" lon="-3.58706">
        <ele>6.1</ele>
      </trkpt>
      <trkpt lat="48.671" lon="-3.58713">
        <ele>5.6</ele>
      </trkpt>
      <trkpt lat="48.67114" lon="-3.58741">
        <ele>6.3</ele>
      </trkpt>
      <trkpt lat="48.6713" lon="-3.58771">
        <ele>5.3</ele>
      </trkpt>
      <trkpt lat="48.67139" lon="-3.58788">
        <ele>5.1</ele>
      </trkpt>
      <trkpt lat="48.67143" lon="-3.58796">
        <ele>5.6</ele>
      </trkpt>
      <trkpt lat="48.67146" lon="-3.58807">
        <ele>6</ele>
      </trkpt>
      <trkpt lat="48.6715" lon="-3.5882">
        <ele>6.3</ele>
      </trkpt>
      <trkpt lat="48.67153" lon="-3.58833">
        <ele>6.4</ele>
      </trkpt>
      <trkpt lat="48.67155" lon="-3.58848">
        <ele>6.5</ele>
      </trkpt>
      <trkpt lat="48.67156" lon="-3.58866">
        <ele>6.8</ele>
      </trkpt>
      <trkpt lat="48.67156" lon="-3.58878">
        <ele>6.9</ele>
      </trkpt>
      <trkpt lat="48.67155" lon="-3.58891">
        <ele>7</ele>
      </trkpt>
      <trkpt lat="48.67154" lon="-3.58897">
        <ele>6.8</ele>
      </trkpt>
      <trkpt lat="48.67153" lon="-3.58905">
        <ele>6.4</ele>
      </trkpt>
      <trkpt lat="48.67143" lon="-3.58958">
        <ele>6.8</ele>
      </trkpt>
      <trkpt lat="48.67142" lon="-3.58961">
        <ele>6.9</ele>
      </trkpt>
      <trkpt lat="48.67138" lon="-3.58976">
        <ele>7.2</ele>
      </trkpt>
      <trkpt lat="48.67133" lon="-3.58988">
        <ele>7.3</ele>
      </trkpt>
      <trkpt lat="48.67127" lon="-3.59002">
        <ele>6.7</ele>
      </trkpt>
      <trkpt lat="48.67108" lon="-3.59037">
        <ele>6</ele>
      </trkpt>
      <trkpt lat="48.67066" lon="-3.59118">
        <ele>5.5</ele>
      </trkpt>
      <trkpt lat="48.67039" lon="-3.59166">
        <ele>6.4</ele>
      </trkpt>
      <trkpt lat="48.67012" lon="-3.59217">
        <ele>6.1</ele>
      </trkpt>
      <trkpt lat="48.66996" lon="-3.59246">
        <ele>5.6</ele>
      </trkpt>
      <trkpt lat="48.66971" lon="-3.59294">
        <ele>6.4</ele>
      </trkpt>
      <trkpt lat="48.66969" lon="-3.59296">
        <ele>6.4</ele>
      </trkpt>
      <trkpt lat="48.66968" lon="-3.59297">
        <ele>6.4</ele>
      </trkpt>
      <trkpt lat="48.66967" lon="-3.59298">
        <ele>6.4</ele>
      </trkpt>
      <trkpt lat="48.66937" lon="-3.59353">
        <ele>6.6</ele>
      </trkpt>
      <trkpt lat="48.66922" lon="-3.59381">
        <ele>6.8</ele>
      </trkpt>
      <trkpt lat="48.66909" lon="-3.59412">
        <ele>7.9</ele>
      </trkpt>
      <trkpt lat="48.66888" lon="-3.59464">
        <ele>7.3</ele>
      </trkpt>
      <trkpt lat="48.66876" lon="-3.59506">
        <ele>7.2</ele>
      </trkpt>
      <trkpt lat="48.66874" lon="-3.59513">
        <ele>7.1</ele>
      </trkpt>
      <trkpt lat="48.66871" lon="-3.59506">
        <ele>7.5</ele>
      </trkpt>
      <trkpt lat="48.66855" lon="-3.59569">
        <ele>8.2</ele>
      </trkpt>
      <trkpt lat="48.66852" lon="-3.59595">
        <ele>8.8</ele>
      </trkpt>
      <trkpt lat="48.66852" lon="-3.5961">
        <ele>9.3</ele>
        <extensions>
          <visugpx:TrkExtension xmlns:visugpx="https://www.visugpx.com/editgpx/">
            <visugpx:node>2</visugpx:node>
            </visugpx:TrkExtension>
        </extensions>
      </trkpt>
      <trkpt lat="48.66851" lon="-3.59619">
        <ele>9.1</ele>
      </trkpt>
      <trkpt lat="48.66852" lon="-3.59634">
        <ele>8.8</ele>
      </trkpt>
      <trkpt lat="48.66852" lon="-3.59643">
        <ele>8.7</ele>
      </trkpt>
      <trkpt lat="48.66861" lon="-3.59771">
        <ele>8.8</ele>
      </trkpt>
      <trkpt lat="48.66864" lon="-3.59818">
        <ele>8.9</ele>
      </trkpt>
      <trkpt lat="48.66865" lon="-3.59832">
        <ele>8.9</ele>
      </trkpt>
      <trkpt lat="48.66873" lon="-3.59957">
        <ele>8.4</ele>
      </trkpt>
      <trkpt lat="48.66881" lon="-3.60059">
        <ele>8.7</ele>
      </trkpt>
      <trkpt lat="48.66881" lon="-3.60069">
        <ele>8.9</ele>
      </trkpt>
      <trkpt lat="48.66882" lon="-3.6007">
        <ele>8.9</ele>
      </trkpt>
      <trkpt lat="48.66892" lon="-3.60226">
        <ele>9.6</ele>
      </trkpt>
      <trkpt lat="48.66894" lon="-3.60245">
        <ele>8.8</ele>
      </trkpt>
      <trkpt lat="48.66908" lon="-3.60449">
        <ele>8.7</ele>
      </trkpt>
      <trkpt lat="48.66908" lon="-3.60452">
        <ele>8.7</ele>
      </trkpt>
      <trkpt lat="48.66909" lon="-3.60463">
        <ele>8.9</ele>
      </trkpt>
      <trkpt lat="48.66914" lon="-3.60526">
        <ele>9.1</ele>
      </trkpt>
      <trkpt lat="48.6692" lon="-3.60599">
        <ele>8.7</ele>
      </trkpt>
      <trkpt lat="48.6692" lon="-3.60605">
        <ele>8.6</ele>
      </trkpt>
      <trkpt lat="48.66928" lon="-3.60713">
        <ele>7</ele>
      </trkpt>
      <trkpt lat="48.66929" lon="-3.60732">
        <ele>7</ele>
      </trkpt>
      <trkpt lat="48.66929" lon="-3.60747">
        <ele>7.1</ele>
      </trkpt>
      <trkpt lat="48.66927" lon="-3.60765">
        <ele>7.4</ele>
      </trkpt>
      <trkpt lat="48.66921" lon="-3.60798">
        <ele>8.6</ele>
      </trkpt>
      <trkpt lat="48.66916" lon="-3.60844">
        <ele>9.9</ele>
      </trkpt>
      <trkpt lat="48.66915" lon="-3.60864">
        <ele>10.9</ele>
      </trkpt>
      <trkpt lat="48.66916" lon="-3.60884">
        <ele>11.2</ele>
      </trkpt>
      <trkpt lat="48.6693" lon="-3.6099">
        <ele>16</ele>
      </trkpt>
      <trkpt lat="48.66937" lon="-3.61034">
        <ele>16.5</ele>
      </trkpt>
      <trkpt lat="48.66944" lon="-3.61078">
        <ele>17.5</ele>
      </trkpt>
      <trkpt lat="48.66948" lon="-3.61095">
        <ele>17.3</ele>
      </trkpt>
      <trkpt lat="48.66953" lon="-3.6111">
        <ele>17.6</ele>
      </trkpt>
      <trkpt lat="48.66959" lon="-3.61122">
        <ele>18.5</ele>
      </trkpt>
      <trkpt lat="48.66965" lon="-3.61135">
        <ele>20.3</ele>
      </trkpt>
      <trkpt lat="48.66978" lon="-3.61153">
        <ele>23</ele>
      </trkpt>
      <trkpt lat="48.66982" lon="-3.61163">
        <ele>24.1</ele>
      </trkpt>
      <trkpt lat="48.66985" lon="-3.61172">
        <ele>24.7</ele>
      </trkpt>
      <trkpt lat="48.66988" lon="-3.61186">
        <ele>25.5</ele>
      </trkpt>
      <trkpt lat="48.6699" lon="-3.612">
        <ele>26</ele>
      </trkpt>
      <trkpt lat="48.66991" lon="-3.61213">
        <ele>26.2</ele>
      </trkpt>
      <trkpt lat="48.6699" lon="-3.61227">
        <ele>26.6</ele>
      </trkpt>
      <trkpt lat="48.66989" lon="-3.61237">
        <ele>26.6</ele>
      </trkpt>
      <trkpt lat="48.66987" lon="-3.6125">
        <ele>26.7</ele>
      </trkpt>
      <trkpt lat="48.66985" lon="-3.61261">
        <ele>26.7</ele>
      </trkpt>
      <trkpt lat="48.66981" lon="-3.61271">
        <ele>26.9</ele>
      </trkpt>
      <trkpt lat="48.66952" lon="-3.6133">
        <ele>29.9</ele>
      </trkpt>
      <trkpt lat="48.66946" lon="-3.61343">
        <ele>30.8</ele>
      </trkpt>
      <trkpt lat="48.66942" lon="-3.61357">
        <ele>30.9</ele>
      </trkpt>
      <trkpt lat="48.66935" lon="-3.61384">
        <ele>32.4</ele>
      </trkpt>
      <trkpt lat="48.66924" lon="-3.61495">
        <ele>36.8</ele>
      </trkpt>
      <trkpt lat="48.66913" lon="-3.61578">
        <ele>38.4</ele>
      </trkpt>
      <trkpt lat="48.66907" lon="-3.61601">
        <ele>40.9</ele>
      </trkpt>
      <trkpt lat="48.66878" lon="-3.61675">
        <ele>42</ele>
      </trkpt>
      <trkpt lat="48.66875" lon="-3.61674">
        <ele>42.1</ele>
      </trkpt>
      <trkpt lat="48.66874" lon="-3.61672">
        <ele>42.2</ele>
      </trkpt>
      <trkpt lat="48.66863" lon="-3.61657">
        <ele>43.2</ele>
      </trkpt>
      <trkpt lat="48.66853" lon="-3.61635">
        <ele>44.3</ele>
      </trkpt>
      <trkpt lat="48.66843" lon="-3.61604">
        <ele>44.6</ele>
        <extensions>
          <visugpx:TrkExtension xmlns:visugpx="https://www.visugpx.com/editgpx/">
            <visugpx:node>3</visugpx:node>
            </visugpx:TrkExtension>
        </extensions>
      </trkpt>
      <trkpt lat="48.66841" lon="-3.61596">
        <ele>44.7</ele>
      </trkpt>
      <trkpt lat="48.66819" lon="-3.61525">
        <ele>47.1</ele>
      </trkpt>
      <trkpt lat="48.66779" lon="-3.61533">
        <ele>49.1</ele>
      </trkpt>
      <trkpt lat="48.66762" lon="-3.61538">
        <ele>50.3</ele>
      </trkpt>
      <trkpt lat="48.66743" lon="-3.61543">
        <ele>51.5</ele>
      </trkpt>
      <trkpt lat="48.66724" lon="-3.61552">
        <ele>52.9</ele>
      </trkpt>
      <trkpt lat="48.66696" lon="-3.6157">
        <ele>54.4</ele>
      </trkpt>
      <trkpt lat="48.66676" lon="-3.61583">
        <ele>56</ele>
      </trkpt>
      <trkpt lat="48.6667" lon="-3.61585">
        <ele>56.6</ele>
      </trkpt>
      <trkpt lat="48.66661" lon="-3.61586">
        <ele>57.1</ele>
      </trkpt>
      <trkpt lat="48.66654" lon="-3.61583">
        <ele>57.5</ele>
      </trkpt>
      <trkpt lat="48.6664" lon="-3.61571">
        <ele>58.4</ele>
      </trkpt>
      <trkpt lat="48.6663" lon="-3.61551">
        <ele>58.7</ele>
      </trkpt>
      <trkpt lat="48.66606" lon="-3.61464">
        <ele>58.5</ele>
      </trkpt>
      <trkpt lat="48.66603" lon="-3.61454">
        <ele>59</ele>
      </trkpt>
      <trkpt lat="48.6659" lon="-3.61392">
        <ele>59.8</ele>
      </trkpt>
      <trkpt lat="48.66578" lon="-3.61321">
        <ele>60.2</ele>
      </trkpt>
      <trkpt lat="48.66578" lon="-3.61289">
        <ele>60.3</ele>
      </trkpt>
      <trkpt lat="48.66576" lon="-3.61234">
        <ele>61.2</ele>
      </trkpt>
      <trkpt lat="48.66567" lon="-3.61186">
        <ele>63.3</ele>
      </trkpt>
      <trkpt lat="48.6656" lon="-3.61162">
        <ele>64.1</ele>
      </trkpt>
      <trkpt lat="48.66538" lon="-3.61156">
        <ele>66.2</ele>
      </trkpt>
      <trkpt lat="48.6652" lon="-3.61151">
        <ele>67.8</ele>
      </trkpt>
      <trkpt lat="48.66413" lon="-3.6113">
        <ele>73.8</ele>
      </trkpt>
      <trkpt lat="48.66376" lon="-3.6113">
        <ele>74.9</ele>
      </trkpt>
      <trkpt lat="48.66312" lon="-3.61144">
        <ele>77.5</ele>
      </trkpt>
      <trkpt lat="48.66269" lon="-3.61148">
        <ele>79.3</ele>
      </trkpt>
      <trkpt lat="48.66267" lon="-3.6119">
        <ele>78.4</ele>
      </trkpt>
      <trkpt lat="48.66269" lon="-3.61227">
        <ele>77.4</ele>
      </trkpt>
      <trkpt lat="48.66272" lon="-3.61286">
        <ele>74.3</ele>
      </trkpt>
      <trkpt lat="48.66268" lon="-3.61359">
        <ele>71.8</ele>
      </trkpt>
      <trkpt lat="48.66269" lon="-3.61439">
        <ele>68.5</ele>
      </trkpt>
      <trkpt lat="48.66268" lon="-3.61454">
        <ele>67.8</ele>
      </trkpt>
      <trkpt lat="48.66266" lon="-3.61467">
        <ele>67.2</ele>
      </trkpt>
      <trkpt lat="48.66261" lon="-3.61487">
        <ele>66.4</ele>
      </trkpt>
      <trkpt lat="48.66255" lon="-3.61502">
        <ele>65.7</ele>
      </trkpt>
      <trkpt lat="48.66251" lon="-3.61512">
        <ele>65.2</ele>
      </trkpt>
      <trkpt lat="48.66248" lon="-3.61517">
        <ele>64.8</ele>
      </trkpt>
      <trkpt lat="48.66241" lon="-3.61536">
        <ele>64</ele>
      </trkpt>
      <trkpt lat="48.66235" lon="-3.61555">
        <ele>63.5</ele>
      </trkpt>
      <trkpt lat="48.66226" lon="-3.61595">
        <ele>64.7</ele>
      </trkpt>
      <trkpt lat="48.66211" lon="-3.61664">
        <ele>66.2</ele>
      </trkpt>
      <trkpt lat="48.66194" lon="-3.61731">
        <ele>66.1</ele>
      </trkpt>
      <trkpt lat="48.66187" lon="-3.61759">
        <ele>66.5</ele>
      </trkpt>
      <trkpt lat="48.66182" lon="-3.61786">
        <ele>66.6</ele>
      </trkpt>
      <trkpt lat="48.66176" lon="-3.61865">
        <ele>65.3</ele>
      </trkpt>
      <trkpt lat="48.66173" lon="-3.61942">
        <ele>64.8</ele>
      </trkpt>
      <trkpt lat="48.66173" lon="-3.6207">
        <ele>63.6</ele>
      </trkpt>
      <trkpt lat="48.66174" lon="-3.62123">
        <ele>62.6</ele>
      </trkpt>
      <trkpt lat="48.66174" lon="-3.62132">
        <ele>62.5</ele>
      </trkpt>
      <trkpt lat="48.66176" lon="-3.62163">
        <ele>62.3</ele>
      </trkpt>
      <trkpt lat="48.66179" lon="-3.62194">
        <ele>61.6</ele>
      </trkpt>
      <trkpt lat="48.662" lon="-3.62315">
        <ele>59.8</ele>
        <extensions>
          <visugpx:TrkExtension xmlns:visugpx="https://www.visugpx.com/editgpx/">
            <visugpx:node>4</visugpx:node>
            </visugpx:TrkExtension>
        </extensions>
      </trkpt>
      <trkpt lat="48.66202" lon="-3.62324">
        <ele>59.7</ele>
      </trkpt>
      <trkpt lat="48.66203" lon="-3.62341">
        <ele>59.7</ele>
      </trkpt>
      <trkpt lat="48.66204" lon="-3.6236">
        <ele>59.7</ele>
      </trkpt>
      <trkpt lat="48.66204" lon="-3.62376">
        <ele>59.3</ele>
      </trkpt>
      <trkpt lat="48.662" lon="-3.62419">
        <ele>59</ele>
      </trkpt>
      <trkpt lat="48.66199" lon="-3.62434">
        <ele>59</ele>
      </trkpt>
      <trkpt lat="48.66199" lon="-3.62446">
        <ele>59</ele>
      </trkpt>
      <trkpt lat="48.662" lon="-3.62457">
        <ele>58.9</ele>
      </trkpt>
      <trkpt lat="48.66202" lon="-3.62469">
        <ele>58.8</ele>
      </trkpt>
      <trkpt lat="48.66207" lon="-3.6249">
        <ele>58.5</ele>
      </trkpt>
      <trkpt lat="48.66224" lon="-3.62541">
        <ele>57.9</ele>
      </trkpt>
      <trkpt lat="48.66225" lon="-3.62541">
        <ele>57.8</ele>
      </trkpt>
      <trkpt lat="48.66226" lon="-3.62541">
        <ele>57.8</ele>
      </trkpt>
      <trkpt lat="48.66227" lon="-3.62541">
        <ele>57.8</ele>
      </trkpt>
      <trkpt lat="48.66227" lon="-3.62542">
        <ele>57.7</ele>
      </trkpt>
      <trkpt lat="48.66228" lon="-3.62543">
        <ele>57.7</ele>
      </trkpt>
      <trkpt lat="48.66228" lon="-3.62544">
        <ele>57.7</ele>
      </trkpt>
      <trkpt lat="48.66228" lon="-3.62546">
        <ele>57.7</ele>
      </trkpt>
      <trkpt lat="48.66227" lon="-3.62547">
        <ele>57.7</ele>
      </trkpt>
      <trkpt lat="48.66226" lon="-3.62548">
        <ele>57.7</ele>
      </trkpt>
      <trkpt lat="48.66226" lon="-3.62548">
        <ele>57.8</ele>
      </trkpt>
      <trkpt lat="48.66225" lon="-3.62548">
        <ele>57.8</ele>
      </trkpt>
      <trkpt lat="48.66224" lon="-3.62548">
        <ele>57.9</ele>
      </trkpt>
      <trkpt lat="48.66223" lon="-3.62547">
        <ele>57.9</ele>
      </trkpt>
      <trkpt lat="48.66212" lon="-3.62562">
        <ele>58.1</ele>
      </trkpt>
      <trkpt lat="48.66179" lon="-3.62614">
        <ele>58</ele>
      </trkpt>
      <trkpt lat="48.66164" lon="-3.62634">
        <ele>58.3</ele>
      </trkpt>
      <trkpt lat="48.66161" lon="-3.62639">
        <ele>58.2</ele>
      </trkpt>
      <trkpt lat="48.66162" lon="-3.62642">
        <ele>58.2</ele>
      </trkpt>
      <trkpt lat="48.66199" lon="-3.62717">
        <ele>55.2</ele>
      </trkpt>
      <trkpt lat="48.66217" lon="-3.62757">
        <ele>54.8</ele>
      </trkpt>
      <trkpt lat="48.66235" lon="-3.62804">
        <ele>53.6</ele>
      </trkpt>
      <trkpt lat="48.66238" lon="-3.62809">
        <ele>53.5</ele>
      </trkpt>
      <trkpt lat="48.66241" lon="-3.62815">
        <ele>53.4</ele>
      </trkpt>
      <trkpt lat="48.6626" lon="-3.62845">
        <ele>53.4</ele>
      </trkpt>
      <trkpt lat="48.66268" lon="-3.62859">
        <ele>53</ele>
      </trkpt>
      <trkpt lat="48.66275" lon="-3.62873">
        <ele>53</ele>
      </trkpt>
      <trkpt lat="48.66278" lon="-3.62881">
        <ele>53</ele>
      </trkpt>
      <trkpt lat="48.6628" lon="-3.62889">
        <ele>53</ele>
      </trkpt>
      <trkpt lat="48.66293" lon="-3.62936">
        <ele>52</ele>
      </trkpt>
      <trkpt lat="48.66308" lon="-3.62983">
        <ele>50</ele>
      </trkpt>
      <trkpt lat="48.66315" lon="-3.62996">
        <ele>49.7</ele>
      </trkpt>
      <trkpt lat="48.66324" lon="-3.63011">
        <ele>48.9</ele>
      </trkpt>
      <trkpt lat="48.66334" lon="-3.63032">
        <ele>48</ele>
      </trkpt>
      <trkpt lat="48.66336" lon="-3.63037">
        <ele>48</ele>
      </trkpt>
      <trkpt lat="48.66338" lon="-3.63041">
        <ele>48</ele>
      </trkpt>
      <trkpt lat="48.66345" lon="-3.63076">
        <ele>48</ele>
      </trkpt>
      <trkpt lat="48.6636" lon="-3.63134">
        <ele>47</ele>
      </trkpt>
      <trkpt lat="48.66364" lon="-3.63176">
        <ele>46</ele>
      </trkpt>
      <trkpt lat="48.66367" lon="-3.63248">
        <ele>45.8</ele>
      </trkpt>
      <trkpt lat="48.66372" lon="-3.63272">
        <ele>44.8</ele>
      </trkpt>
      <trkpt lat="48.6638" lon="-3.63289">
        <ele>43.9</ele>
      </trkpt>
      <trkpt lat="48.66427" lon="-3.63323">
        <ele>41.9</ele>
      </trkpt>
      <trkpt lat="48.66451" lon="-3.63347">
        <ele>40.9</ele>
      </trkpt>
      <trkpt lat="48.66456" lon="-3.63356">
        <ele>40.7</ele>
        <extensions>
          <visugpx:TrkExtension xmlns:visugpx="https://www.visugpx.com/editgpx/">
            <visugpx:node>5</visugpx:node>
            </visugpx:TrkExtension>
        </extensions>
      </trkpt>
      <trkpt lat="48.66461" lon="-3.63367">
        <ele>40.4</ele>
      </trkpt>
      <trkpt lat="48.66462" lon="-3.63385">
        <ele>40.4</ele>
      </trkpt>
      <trkpt lat="48.6646" lon="-3.63405">
        <ele>39.8</ele>
      </trkpt>
      <trkpt lat="48.66446" lon="-3.6345">
        <ele>38.8</ele>
      </trkpt>
      <trkpt lat="48.66431" lon="-3.63527">
        <ele>37.5</ele>
      </trkpt>
      <trkpt lat="48.6643" lon="-3.63532">
        <ele>37.4</ele>
      </trkpt>
      <trkpt lat="48.66428" lon="-3.63542">
        <ele>37.3</ele>
      </trkpt>
      <trkpt lat="48.66428" lon="-3.63544">
        <ele>37.3</ele>
      </trkpt>
      <trkpt lat="48.66426" lon="-3.6355">
        <ele>37.1</ele>
      </trkpt>
      <trkpt lat="48.66424" lon="-3.63573">
        <ele>36.4</ele>
      </trkpt>
      <trkpt lat="48.66426" lon="-3.63586">
        <ele>35.9</ele>
      </trkpt>
      <trkpt lat="48.66429" lon="-3.63597">
        <ele>35.3</ele>
      </trkpt>
      <trkpt lat="48.66446" lon="-3.63611">
        <ele>34</ele>
      </trkpt>
      <trkpt lat="48.66459" lon="-3.63624">
        <ele>33.8</ele>
      </trkpt>
      <trkpt lat="48.66462" lon="-3.63634">
        <ele>33.5</ele>
      </trkpt>
      <trkpt lat="48.66464" lon="-3.63644">
        <ele>33.2</ele>
      </trkpt>
      <trkpt lat="48.66465" lon="-3.63657">
        <ele>32.8</ele>
      </trkpt>
      <trkpt lat="48.66464" lon="-3.6367">
        <ele>32.6</ele>
      </trkpt>
      <trkpt lat="48.6645" lon="-3.63752">
        <ele>31</ele>
      </trkpt>
      <trkpt lat="48.6643" lon="-3.63846">
        <ele>29.3</ele>
      </trkpt>
      <trkpt lat="48.66402" lon="-3.63938">
        <ele>27.6</ele>
      </trkpt>
      <trkpt lat="48.66398" lon="-3.63945">
        <ele>27.6</ele>
      </trkpt>
      <trkpt lat="48.66389" lon="-3.63966">
        <ele>27.2</ele>
      </trkpt>
      <trkpt lat="48.66373" lon="-3.64007">
        <ele>26.3</ele>
      </trkpt>
      <trkpt lat="48.66354" lon="-3.64076">
        <ele>23.3</ele>
      </trkpt>
      <trkpt lat="48.66347" lon="-3.64104">
        <ele>21.9</ele>
      </trkpt>
      <trkpt lat="48.66332" lon="-3.64164">
        <ele>18.3</ele>
      </trkpt>
      <trkpt lat="48.66332" lon="-3.64168">
        <ele>18</ele>
      </trkpt>
      <trkpt lat="48.66314" lon="-3.64218">
        <ele>15.3</ele>
      </trkpt>
      <trkpt lat="48.6628" lon="-3.64317">
        <ele>8.1</ele>
      </trkpt>
      <trkpt lat="48.66276" lon="-3.64334">
        <ele>5.9</ele>
      </trkpt>
      <trkpt lat="48.66266" lon="-3.64372">
        <ele>5</ele>
      </trkpt>
      <trkpt lat="48.66263" lon="-3.64389">
        <ele>6.6</ele>
      </trkpt>
      <trkpt lat="48.66262" lon="-3.644">
        <ele>8</ele>
      </trkpt>
      <trkpt lat="48.66261" lon="-3.64416">
        <ele>10</ele>
      </trkpt>
      <trkpt lat="48.66262" lon="-3.64436">
        <ele>11.1</ele>
      </trkpt>
      <trkpt lat="48.66263" lon="-3.64455">
        <ele>12.1</ele>
      </trkpt>
      <trkpt lat="48.66267" lon="-3.64494">
        <ele>13.8</ele>
      </trkpt>
      <trkpt lat="48.66269" lon="-3.6451">
        <ele>14.5</ele>
      </trkpt>
      <trkpt lat="48.66274" lon="-3.64565">
        <ele>15.4</ele>
      </trkpt>
      <trkpt lat="48.66275" lon="-3.64587">
        <ele>16</ele>
      </trkpt>
      <trkpt lat="48.66274" lon="-3.64604">
        <ele>16</ele>
      </trkpt>
      <trkpt lat="48.66272" lon="-3.64618">
        <ele>16.2</ele>
      </trkpt>
      <trkpt lat="48.66268" lon="-3.64628">
        <ele>16.6</ele>
      </trkpt>
      <trkpt lat="48.66263" lon="-3.64638">
        <ele>17</ele>
      </trkpt>
      <trkpt lat="48.66254" lon="-3.64652">
        <ele>17.4</ele>
      </trkpt>
      <trkpt lat="48.66174" lon="-3.64735">
        <ele>20.8</ele>
      </trkpt>
      <trkpt lat="48.66163" lon="-3.64741">
        <ele>21.5</ele>
      </trkpt>
      <trkpt lat="48.66155" lon="-3.64742">
        <ele>21.9</ele>
      </trkpt>
      <trkpt lat="48.66151" lon="-3.64742">
        <ele>22</ele>
      </trkpt>
      <trkpt lat="48.66146" lon="-3.64741">
        <ele>22.1</ele>
      </trkpt>
      <trkpt lat="48.66132" lon="-3.64734">
        <ele>22.1</ele>
      </trkpt>
      <trkpt lat="48.66105" lon="-3.6472">
        <ele>22.1</ele>
      </trkpt>
      <trkpt lat="48.66083" lon="-3.64713">
        <ele>23</ele>
      </trkpt>
      <trkpt lat="48.66061" lon="-3.6471">
        <ele>24.2</ele>
      </trkpt>
      <trkpt lat="48.66036" lon="-3.64709">
        <ele>25.6</ele>
      </trkpt>
      <trkpt lat="48.65987" lon="-3.64711">
        <ele>26.9</ele>
      </trkpt>
      <trkpt lat="48.65913" lon="-3.64716">
        <ele>28.7</ele>
        <extensions>
          <visugpx:TrkExtension xmlns:visugpx="https://www.visugpx.com/editgpx/">
            <visugpx:node>6</visugpx:node>
            </visugpx:TrkExtension>
        </extensions>
      </trkpt>
      <trkpt lat="48.65855" lon="-3.64721">
        <ele>29.7</ele>
      </trkpt>
      <trkpt lat="48.65796" lon="-3.64704">
        <ele>26.5</ele>
      </trkpt>
      <trkpt lat="48.65751" lon="-3.64679">
        <ele>24.8</ele>
      </trkpt>
      <trkpt lat="48.65568" lon="-3.6458">
        <ele>34</ele>
      </trkpt>
      <trkpt lat="48.65535" lon="-3.64561">
        <ele>34.8</ele>
      </trkpt>
      <trkpt lat="48.65508" lon="-3.64638">
        <ele>38.7</ele>
      </trkpt>
      <trkpt lat="48.65483" lon="-3.64706">
        <ele>41.2</ele>
      </trkpt>
      <trkpt lat="48.65471" lon="-3.64743">
        <ele>42.1</ele>
      </trkpt>
      <trkpt lat="48.6546" lon="-3.6478">
        <ele>43.5</ele>
      </trkpt>
      <trkpt lat="48.6545" lon="-3.64817">
        <ele>44</ele>
      </trkpt>
      <trkpt lat="48.65442" lon="-3.64855">
        <ele>44.9</ele>
      </trkpt>
      <trkpt lat="48.65428" lon="-3.64932">
        <ele>46</ele>
      </trkpt>
      <trkpt lat="48.65418" lon="-3.65022">
        <ele>47</ele>
      </trkpt>
      <trkpt lat="48.65414" lon="-3.65052">
        <ele>47</ele>
      </trkpt>
      <trkpt lat="48.6541" lon="-3.65076">
        <ele>47</ele>
      </trkpt>
      <trkpt lat="48.65405" lon="-3.65098">
        <ele>47</ele>
      </trkpt>
      <trkpt lat="48.65379" lon="-3.65209">
        <ele>47</ele>
      </trkpt>
      <trkpt lat="48.65375" lon="-3.65237">
        <ele>47</ele>
      </trkpt>
      <trkpt lat="48.65368" lon="-3.65257">
        <ele>46.9</ele>
      </trkpt>
      <trkpt lat="48.6534" lon="-3.6538">
        <ele>45.1</ele>
      </trkpt>
      <trkpt lat="48.65331" lon="-3.65405">
        <ele>44.4</ele>
      </trkpt>
      <trkpt lat="48.65325" lon="-3.65418">
        <ele>44</ele>
      </trkpt>
      <trkpt lat="48.6532" lon="-3.65427">
        <ele>43.6</ele>
      </trkpt>
      <trkpt lat="48.65306" lon="-3.65449">
        <ele>43</ele>
      </trkpt>
      <trkpt lat="48.65293" lon="-3.65464">
        <ele>43</ele>
      </trkpt>
      <trkpt lat="48.65285" lon="-3.65475">
        <ele>42.9</ele>
        <extensions>
          <visugpx:TrkExtension xmlns:visugpx="https://www.visugpx.com/editgpx/">
            <visugpx:node>7</visugpx:node>
            </visugpx:TrkExtension>
        </extensions>
      </trkpt>
      <trkpt lat="48.65266" lon="-3.65498">
        <ele>42.1</ele>
      </trkpt>
      <trkpt lat="48.65174" lon="-3.65615">
        <ele>41</ele>
      </trkpt>
      <trkpt lat="48.65163" lon="-3.65634">
        <ele>41</ele>
      </trkpt>
      <trkpt lat="48.65149" lon="-3.65658">
        <ele>41</ele>
      </trkpt>
      <trkpt lat="48.65072" lon="-3.65798">
        <ele>37.3</ele>
      </trkpt>
      <trkpt lat="48.65033" lon="-3.65872">
        <ele>34.6</ele>
      </trkpt>
      <trkpt lat="48.65021" lon="-3.65891">
        <ele>34.2</ele>
      </trkpt>
      <trkpt lat="48.65006" lon="-3.65919">
        <ele>33.8</ele>
      </trkpt>
      <trkpt lat="48.64996" lon="-3.65952">
        <ele>31</ele>
      </trkpt>
      <trkpt lat="48.64971" lon="-3.66018">
        <ele>25.1</ele>
      </trkpt>
      <trkpt lat="48.64963" lon="-3.66032">
        <ele>24</ele>
      </trkpt>
      <trkpt lat="48.64948" lon="-3.66055">
        <ele>20.4</ele>
      </trkpt>
      <trkpt lat="48.64915" lon="-3.66097">
        <ele>18.1</ele>
      </trkpt>
      <trkpt lat="48.64889" lon="-3.66136">
        <ele>14.3</ele>
      </trkpt>
      <trkpt lat="48.64862" lon="-3.66183">
        <ele>10.7</ele>
      </trkpt>
      <trkpt lat="48.6485" lon="-3.662">
        <ele>8.7</ele>
      </trkpt>
      <trkpt lat="48.64839" lon="-3.66212">
        <ele>7.8</ele>
      </trkpt>
      <trkpt lat="48.64816" lon="-3.66244">
        <ele>5.6</ele>
      </trkpt>
      <trkpt lat="48.648" lon="-3.66267">
        <ele>5.7</ele>
      </trkpt>
      <trkpt lat="48.64795" lon="-3.66277">
        <ele>6</ele>
      </trkpt>
      <trkpt lat="48.64791" lon="-3.66288">
        <ele>6</ele>
      </trkpt>
      <trkpt lat="48.64781" lon="-3.66338">
        <ele>6.2</ele>
      </trkpt>
      <trkpt lat="48.64772" lon="-3.66384">
        <ele>7</ele>
      </trkpt>
      <trkpt lat="48.64763" lon="-3.66431">
        <ele>7.3</ele>
      </trkpt>
      <trkpt lat="48.64755" lon="-3.66458">
        <ele>8</ele>
      </trkpt>
      <trkpt lat="48.64751" lon="-3.66474">
        <ele>8</ele>
      </trkpt>
      <trkpt lat="48.64751" lon="-3.66485">
        <ele>8.1</ele>
        <extensions>
          <visugpx:TrkExtension xmlns:visugpx="https://www.visugpx.com/editgpx/">
            <visugpx:node>8</visugpx:node>
            </visugpx:TrkExtension>
        </extensions>
      </trkpt>
      <trkpt lat="48.64752" lon="-3.66507">
        <ele>8.5</ele>
      </trkpt>
      <trkpt lat="48.64752" lon="-3.66586">
        <ele>11.6</ele>
      </trkpt>
      <trkpt lat="48.64743" lon="-3.66654">
        <ele>15.3</ele>
      </trkpt>
      <trkpt lat="48.64734" lon="-3.66702">
        <ele>20.1</ele>
      </trkpt>
      <trkpt lat="48.64719" lon="-3.66763">
        <ele>21.6</ele>
      </trkpt>
      <trkpt lat="48.64685" lon="-3.66873">
        <ele>29.6</ele>
      </trkpt>
      <trkpt lat="48.64684" lon="-3.66882">
        <ele>30.9</ele>
      </trkpt>
      <trkpt lat="48.64682" lon="-3.66895">
        <ele>32</ele>
      </trkpt>
      <trkpt lat="48.64682" lon="-3.66928">
        <ele>32.7</ele>
      </trkpt>
      <trkpt lat="48.64682" lon="-3.66939">
        <ele>32.9</ele>
      </trkpt>
      <trkpt lat="48.64693" lon="-3.67068">
        <ele>39.1</ele>
      </trkpt>
      <trkpt lat="48.64695" lon="-3.67118">
        <ele>40.2</ele>
      </trkpt>
      <trkpt lat="48.64695" lon="-3.67157">
        <ele>41.7</ele>
      </trkpt>
      <trkpt lat="48.64689" lon="-3.67195">
        <ele>44.2</ele>
      </trkpt>
      <trkpt lat="48.64656" lon="-3.67325">
        <ele>49.7</ele>
      </trkpt>
      <trkpt lat="48.64648" lon="-3.67358">
        <ele>50</ele>
      </trkpt>
      <trkpt lat="48.64653" lon="-3.67358">
        <ele>50</ele>
      </trkpt>
      <trkpt lat="48.64661" lon="-3.67357">
        <ele>50</ele>
        <extensions>
          <visugpx:TrkExtension xmlns:visugpx="https://www.visugpx.com/editgpx/">
            <visugpx:node>9</visugpx:node>
            </visugpx:TrkExtension>
        </extensions>
      </trkpt>
      <trkpt lat="48.6479" lon="-3.67349">
        <ele>51.8</ele>
      </trkpt>
      <trkpt lat="48.64819" lon="-3.67343">
        <ele>51.7</ele>
      </trkpt>
      <trkpt lat="48.64895" lon="-3.6731">
        <ele>51.9</ele>
      </trkpt>
      <trkpt lat="48.6491" lon="-3.67308">
        <ele>51.3</ele>
      </trkpt>
      <trkpt lat="48.64923" lon="-3.67308">
        <ele>51.4</ele>
      </trkpt>
      <trkpt lat="48.64939" lon="-3.67314">
        <ele>51.9</ele>
      </trkpt>
      <trkpt lat="48.65006" lon="-3.67349">
        <ele>55.2</ele>
      </trkpt>
      <trkpt lat="48.6503" lon="-3.67358">
        <ele>56</ele>
      </trkpt>
      <trkpt lat="48.65059" lon="-3.67363">
        <ele>58.5</ele>
      </trkpt>
      <trkpt lat="48.6509" lon="-3.67359">
        <ele>60.6</ele>
      </trkpt>
      <trkpt lat="48.65142" lon="-3.67337">
        <ele>63.5</ele>
      </trkpt>
      <trkpt lat="48.65166" lon="-3.67328">
        <ele>64.7</ele>
      </trkpt>
      <trkpt lat="48.65183" lon="-3.67323">
        <ele>66</ele>
      </trkpt>
      <trkpt lat="48.65203" lon="-3.67327">
        <ele>67.6</ele>
      </trkpt>
      <trkpt lat="48.65233" lon="-3.67339">
        <ele>70.6</ele>
      </trkpt>
      <trkpt lat="48.65289" lon="-3.67372">
        <ele>75.4</ele>
      </trkpt>
      <trkpt lat="48.65324" lon="-3.6738">
        <ele>77.3</ele>
      </trkpt>
      <trkpt lat="48.65354" lon="-3.67383">
        <ele>77.9</ele>
      </trkpt>
      <trkpt lat="48.65375" lon="-3.67383">
        <ele>78</ele>
      </trkpt>
      <trkpt lat="48.65393" lon="-3.67378">
        <ele>78</ele>
      </trkpt>
      <trkpt lat="48.65417" lon="-3.67369">
        <ele>78</ele>
      </trkpt>
      <trkpt lat="48.65476" lon="-3.67339">
        <ele>78.3</ele>
      </trkpt>
      <trkpt lat="48.65501" lon="-3.67322">
        <ele>78.6</ele>
      </trkpt>
      <trkpt lat="48.65586" lon="-3.67245">
        <ele>79.1</ele>
      </trkpt>
      <trkpt lat="48.65673" lon="-3.6718">
        <ele>79.2</ele>
      </trkpt>
      <trkpt lat="48.65714" lon="-3.67155">
        <ele>77.7</ele>
      </trkpt>
      <trkpt lat="48.65809" lon="-3.6711">
        <ele>74</ele>
      </trkpt>
      <trkpt lat="48.65951" lon="-3.67042">
        <ele>69.9</ele>
      </trkpt>
      <trkpt lat="48.6602" lon="-3.67012">
        <ele>67.5</ele>
      </trkpt>
      <trkpt lat="48.66081" lon="-3.66985">
        <ele>65.9</ele>
      </trkpt>
      <trkpt lat="48.66118" lon="-3.66972">
        <ele>64</ele>
      </trkpt>
      <trkpt lat="48.66166" lon="-3.66959">
        <ele>63.5</ele>
      </trkpt>
      <trkpt lat="48.6622" lon="-3.66946">
        <ele>62.1</ele>
      </trkpt>
      <trkpt lat="48.66289" lon="-3.66937">
        <ele>60.2</ele>
      </trkpt>
      <trkpt lat="48.66295" lon="-3.66936">
        <ele>60.1</ele>
      </trkpt>
      <trkpt lat="48.66303" lon="-3.66935">
        <ele>60</ele>
      </trkpt>
      <trkpt lat="48.66342" lon="-3.66929">
        <ele>61.6</ele>
      </trkpt>
      <trkpt lat="48.66367" lon="-3.66921">
        <ele>61.3</ele>
      </trkpt>
      <trkpt lat="48.66392" lon="-3.66909">
        <ele>61.1</ele>
      </trkpt>
      <trkpt lat="48.66408" lon="-3.66897">
        <ele>61.2</ele>
      </trkpt>
      <trkpt lat="48.66428" lon="-3.66879">
        <ele>61</ele>
      </trkpt>
      <trkpt lat="48.66476" lon="-3.66821">
        <ele>61</ele>
      </trkpt>
      <trkpt lat="48.66517" lon="-3.6677">
        <ele>61.1</ele>
      </trkpt>
      <trkpt lat="48.66549" lon="-3.66739">
        <ele>61</ele>
      </trkpt>
      <trkpt lat="48.66578" lon="-3.66718">
        <ele>61</ele>
      </trkpt>
      <trkpt lat="48.66631" lon="-3.66683">
        <ele>62.3</ele>
      </trkpt>
      <trkpt lat="48.66698" lon="-3.66637">
        <ele>64.1</ele>
      </trkpt>
      <trkpt lat="48.66743" lon="-3.66607">
        <ele>65.3</ele>
      </trkpt>
      <trkpt lat="48.66762" lon="-3.66595">
        <ele>65.9</ele>
      </trkpt>
      <trkpt lat="48.66825" lon="-3.66554">
        <ele>66.1</ele>
      </trkpt>
      <trkpt lat="48.66938" lon="-3.66476">
        <ele>64.5</ele>
      </trkpt>
      <trkpt lat="48.66966" lon="-3.66455">
        <ele>64.6</ele>
      </trkpt>
      <trkpt lat="48.6698" lon="-3.66444">
        <ele>64.2</ele>
      </trkpt>
      <trkpt lat="48.67" lon="-3.66425">
        <ele>63.5</ele>
      </trkpt>
      <trkpt lat="48.67011" lon="-3.66409">
        <ele>64.6</ele>
      </trkpt>
      <trkpt lat="48.67037" lon="-3.66376">
        <ele>65.1</ele>
      </trkpt>
      <trkpt lat="48.6705" lon="-3.66356">
        <ele>65</ele>
      </trkpt>
      <trkpt lat="48.67066" lon="-3.66328">
        <ele>65.9</ele>
      </trkpt>
      <trkpt lat="48.67069" lon="-3.66328">
        <ele>65.7</ele>
      </trkpt>
      <trkpt lat="48.67087" lon="-3.6633">
        <ele>64.9</ele>
      </trkpt>
      <trkpt lat="48.67123" lon="-3.66332">
        <ele>64</ele>
      </trkpt>
      <trkpt lat="48.67162" lon="-3.66331">
        <ele>63.3</ele>
      </trkpt>
      <trkpt lat="48.6718" lon="-3.66329">
        <ele>63.2</ele>
      </trkpt>
      <trkpt lat="48.67192" lon="-3.66326">
        <ele>63.3</ele>
      </trkpt>
      <trkpt lat="48.67221" lon="-3.66312">
        <ele>62.1</ele>
      </trkpt>
      <trkpt lat="48.67244" lon="-3.66301">
        <ele>62.2</ele>
      </trkpt>
      <trkpt lat="48.67259" lon="-3.66296">
        <ele>62</ele>
      </trkpt>
      <trkpt lat="48.67268" lon="-3.66295">
        <ele>61.8</ele>
      </trkpt>
      <trkpt lat="48.67281" lon="-3.66294">
        <ele>61.4</ele>
      </trkpt>
      <trkpt lat="48.67298" lon="-3.66298">
        <ele>60.8</ele>
      </trkpt>
      <trkpt lat="48.67325" lon="-3.6631">
        <ele>59.4</ele>
      </trkpt>
      <trkpt lat="48.6743" lon="-3.66381">
        <ele>56.3</ele>
      </trkpt>
      <trkpt lat="48.67485" lon="-3.66409">
        <ele>55.3</ele>
      </trkpt>
      <trkpt lat="48.67513" lon="-3.66424">
        <ele>55.3</ele>
      </trkpt>
      <trkpt lat="48.67533" lon="-3.66437">
        <ele>55.2</ele>
      </trkpt>
      <trkpt lat="48.67547" lon="-3.66445">
        <ele>55</ele>
      </trkpt>
      <trkpt lat="48.67569" lon="-3.66458">
        <ele>55</ele>
      </trkpt>
      <trkpt lat="48.67588" lon="-3.66475">
        <ele>55</ele>
      </trkpt>
      <trkpt lat="48.67614" lon="-3.66505">
        <ele>55</ele>
      </trkpt>
      <trkpt lat="48.6763" lon="-3.66522">
        <ele>55.5</ele>
      </trkpt>
      <trkpt lat="48.67645" lon="-3.66534">
        <ele>55.8</ele>
      </trkpt>
      <trkpt lat="48.67737" lon="-3.66594">
        <ele>54</ele>
      </trkpt>
      <trkpt lat="48.67765" lon="-3.66613">
        <ele>54</ele>
      </trkpt>
      <trkpt lat="48.67776" lon="-3.66622">
        <ele>54</ele>
      </trkpt>
      <trkpt lat="48.67784" lon="-3.6663">
        <ele>53.8</ele>
      </trkpt>
      <trkpt lat="48.67792" lon="-3.66639">
        <ele>53.5</ele>
      </trkpt>
      <trkpt lat="48.67799" lon="-3.66649">
        <ele>53</ele>
      </trkpt>
      <trkpt lat="48.67803" lon="-3.66657">
        <ele>52.5</ele>
      </trkpt>
      <trkpt lat="48.67807" lon="-3.66665">
        <ele>52</ele>
      </trkpt>
      <trkpt lat="48.67814" lon="-3.66659">
        <ele>51.9</ele>
      </trkpt>
      <trkpt lat="48.67816" lon="-3.66657">
        <ele>51.8</ele>
        <extensions>
          <visugpx:TrkExtension xmlns:visugpx="https://www.visugpx.com/editgpx/">
            <visugpx:node>10</visugpx:node>
            </visugpx:TrkExtension>
        </extensions>
      </trkpt>
      <trkpt lat="48.67814" lon="-3.66659">
        <ele>51.9</ele>
      </trkpt>
      <trkpt lat="48.67807" lon="-3.66665">
        <ele>52</ele>
      </trkpt>
      <trkpt lat="48.67832" lon="-3.66725">
        <ele>49.9</ele>
      </trkpt>
      <trkpt lat="48.67842" lon="-3.66744">
        <ele>48.7</ele>
      </trkpt>
      <trkpt lat="48.67855" lon="-3.66756">
        <ele>48.8</ele>
      </trkpt>
      <trkpt lat="48.67875" lon="-3.6677">
        <ele>48.5</ele>
      </trkpt>
      <trkpt lat="48.67894" lon="-3.66781">
        <ele>47.9</ele>
      </trkpt>
      <trkpt lat="48.68006" lon="-3.66847">
        <ele>42.2</ele>
      </trkpt>
      <trkpt lat="48.68016" lon="-3.66854">
        <ele>41.2</ele>
      </trkpt>
      <trkpt lat="48.68024" lon="-3.66864">
        <ele>40.2</ele>
      </trkpt>
      <trkpt lat="48.68047" lon="-3.66884">
        <ele>38.5</ele>
      </trkpt>
      <trkpt lat="48.68057" lon="-3.66894">
        <ele>37.5</ele>
      </trkpt>
      <trkpt lat="48.68096" lon="-3.66936">
        <ele>35</ele>
      </trkpt>
      <trkpt lat="48.68106" lon="-3.66941">
        <ele>35.6</ele>
      </trkpt>
      <trkpt lat="48.68126" lon="-3.6695">
        <ele>35.7</ele>
      </trkpt>
      <trkpt lat="48.68147" lon="-3.66955">
        <ele>36.1</ele>
      </trkpt>
      <trkpt lat="48.68165" lon="-3.66956">
        <ele>37.1</ele>
      </trkpt>
      <trkpt lat="48.68185" lon="-3.66956">
        <ele>37.5</ele>
      </trkpt>
      <trkpt lat="48.682" lon="-3.6695">
        <ele>37.5</ele>
      </trkpt>
      <trkpt lat="48.68208" lon="-3.66947">
        <ele>37.4</ele>
      </trkpt>
      <trkpt lat="48.6822" lon="-3.66941">
        <ele>37.2</ele>
      </trkpt>
      <trkpt lat="48.68235" lon="-3.66932">
        <ele>37</ele>
      </trkpt>
      <trkpt lat="48.6826" lon="-3.66918">
        <ele>36.2</ele>
      </trkpt>
      <trkpt lat="48.6828" lon="-3.66908">
        <ele>35.2</ele>
      </trkpt>
      <trkpt lat="48.68299" lon="-3.669">
        <ele>34.8</ele>
      </trkpt>
      <trkpt lat="48.68308" lon="-3.66897">
        <ele>34.6</ele>
      </trkpt>
      <trkpt lat="48.68327" lon="-3.6689">
        <ele>34.2</ele>
      </trkpt>
      <trkpt lat="48.68347" lon="-3.66887">
        <ele>33.1</ele>
      </trkpt>
      <trkpt lat="48.6839" lon="-3.66887">
        <ele>30.3</ele>
      </trkpt>
      <trkpt lat="48.68405" lon="-3.66892">
        <ele>30.4</ele>
      </trkpt>
      <trkpt lat="48.68417" lon="-3.66903">
        <ele>29.5</ele>
      </trkpt>
      <trkpt lat="48.68433" lon="-3.66929">
        <ele>28.1</ele>
      </trkpt>
      <trkpt lat="48.68439" lon="-3.66939">
        <ele>27.5</ele>
      </trkpt>
      <trkpt lat="48.68463" lon="-3.66973">
        <ele>25.3</ele>
      </trkpt>
      <trkpt lat="48.68474" lon="-3.66983">
        <ele>24.3</ele>
      </trkpt>
      <trkpt lat="48.68477" lon="-3.66986">
        <ele>24.2</ele>
      </trkpt>
      <trkpt lat="48.68496" lon="-3.6699">
        <ele>24.6</ele>
      </trkpt>
      <trkpt lat="48.68504" lon="-3.66991">
        <ele>24.5</ele>
      </trkpt>
      <trkpt lat="48.6856" lon="-3.66998">
        <ele>22.4</ele>
      </trkpt>
      <trkpt lat="48.68567" lon="-3.67001">
        <ele>22.4</ele>
      </trkpt>
      <trkpt lat="48.6857" lon="-3.67004">
        <ele>22.3</ele>
      </trkpt>
      <trkpt lat="48.68581" lon="-3.67017">
        <ele>22.3</ele>
      </trkpt>
      <trkpt lat="48.68595" lon="-3.67039">
        <ele>23.5</ele>
      </trkpt>
      <trkpt lat="48.68604" lon="-3.67056">
        <ele>24.4</ele>
      </trkpt>
      <trkpt lat="48.68607" lon="-3.67061">
        <ele>25</ele>
      </trkpt>
      <trkpt lat="48.68608" lon="-3.67053">
        <ele>25.5</ele>
        <extensions>
          <visugpx:TrkExtension xmlns:visugpx="https://www.visugpx.com/editgpx/">
            <visugpx:node>11</visugpx:node>
            </visugpx:TrkExtension>
        </extensions>
      </trkpt>
      <trkpt lat="48.68613" lon="-3.67013">
        <ele>27.7</ele>
      </trkpt>
      <trkpt lat="48.68618" lon="-3.66958">
        <ele>29</ele>
      </trkpt>
      <trkpt lat="48.68623" lon="-3.669">
        <ele>32.1</ele>
      </trkpt>
      <trkpt lat="48.68626" lon="-3.66874">
        <ele>33.9</ele>
      </trkpt>
      <trkpt lat="48.68628" lon="-3.66855">
        <ele>34.8</ele>
      </trkpt>
      <trkpt lat="48.68632" lon="-3.66838">
        <ele>35</ele>
      </trkpt>
      <trkpt lat="48.68636" lon="-3.66823">
        <ele>36.1</ele>
      </trkpt>
      <trkpt lat="48.68642" lon="-3.66806">
        <ele>37.3</ele>
      </trkpt>
      <trkpt lat="48.68647" lon="-3.66795">
        <ele>38.1</ele>
      </trkpt>
      <trkpt lat="48.68655" lon="-3.6678">
        <ele>39.1</ele>
      </trkpt>
      <trkpt lat="48.68671" lon="-3.66758">
        <ele>40.5</ele>
      </trkpt>
      <trkpt lat="48.68693" lon="-3.66732">
        <ele>42.3</ele>
      </trkpt>
      <trkpt lat="48.68704" lon="-3.66717">
        <ele>43.4</ele>
      </trkpt>
      <trkpt lat="48.6871" lon="-3.66708">
        <ele>44.2</ele>
      </trkpt>
      <trkpt lat="48.68718" lon="-3.66693">
        <ele>44.6</ele>
      </trkpt>
      <trkpt lat="48.68722" lon="-3.66685">
        <ele>44.6</ele>
      </trkpt>
      <trkpt lat="48.68726" lon="-3.66676">
        <ele>44.7</ele>
      </trkpt>
      <trkpt lat="48.68729" lon="-3.66668">
        <ele>44.7</ele>
      </trkpt>
      <trkpt lat="48.68733" lon="-3.66654">
        <ele>45</ele>
      </trkpt>
      <trkpt lat="48.68736" lon="-3.66658">
        <ele>45.3</ele>
      </trkpt>
      <trkpt lat="48.6874" lon="-3.66665">
        <ele>45.9</ele>
      </trkpt>
      <trkpt lat="48.68759" lon="-3.66712">
        <ele>48.1</ele>
      </trkpt>
      <trkpt lat="48.68774" lon="-3.66745">
        <ele>50.7</ele>
      </trkpt>
      <trkpt lat="48.68785" lon="-3.66746">
        <ele>51.7</ele>
      </trkpt>
      <trkpt lat="48.6885" lon="-3.66707">
        <ele>53.5</ele>
      </trkpt>
      <trkpt lat="48.68885" lon="-3.66668">
        <ele>51.1</ele>
      </trkpt>
      <trkpt lat="48.68975" lon="-3.66519">
        <ele>40.8</ele>
      </trkpt>
      <trkpt lat="48.69003" lon="-3.6647">
        <ele>38.9</ele>
      </trkpt>
      <trkpt lat="48.69043" lon="-3.66394">
        <ele>39.5</ele>
      </trkpt>
      <trkpt lat="48.69051" lon="-3.6638">
        <ele>40.3</ele>
      </trkpt>
      <trkpt lat="48.69061" lon="-3.66346">
        <ele>42.6</ele>
      </trkpt>
      <trkpt lat="48.69064" lon="-3.66328">
        <ele>43.8</ele>
      </trkpt>
      <trkpt lat="48.69072" lon="-3.66285">
        <ele>44.9</ele>
      </trkpt>
      <trkpt lat="48.69073" lon="-3.66274">
        <ele>44.7</ele>
      </trkpt>
      <trkpt lat="48.69086" lon="-3.66186">
        <ele>42.4</ele>
      </trkpt>
      <trkpt lat="48.69092" lon="-3.66156">
        <ele>41.5</ele>
      </trkpt>
      <trkpt lat="48.69103" lon="-3.66129">
        <ele>41.8</ele>
      </trkpt>
      <trkpt lat="48.69121" lon="-3.66105">
        <ele>43.3</ele>
      </trkpt>
      <trkpt lat="48.69142" lon="-3.66082">
        <ele>43.9</ele>
      </trkpt>
      <trkpt lat="48.69165" lon="-3.66057">
        <ele>43.1</ele>
      </trkpt>
      <trkpt lat="48.69211" lon="-3.66006">
        <ele>42.7</ele>
      </trkpt>
      <trkpt lat="48.69216" lon="-3.66002">
        <ele>42.9</ele>
      </trkpt>
      <trkpt lat="48.6922" lon="-3.65998">
        <ele>42.9</ele>
      </trkpt>
      <trkpt lat="48.6924" lon="-3.65977">
        <ele>42</ele>
      </trkpt>
      <trkpt lat="48.69263" lon="-3.6595">
        <ele>42.7</ele>
      </trkpt>
      <trkpt lat="48.69302" lon="-3.65904">
        <ele>44.4</ele>
      </trkpt>
      <trkpt lat="48.6932" lon="-3.65887">
        <ele>46.1</ele>
      </trkpt>
      <trkpt lat="48.69324" lon="-3.65884">
        <ele>46.4</ele>
        <extensions>
          <visugpx:TrkExtension xmlns:visugpx="https://www.visugpx.com/editgpx/">
            <visugpx:node>12</visugpx:node>
            </visugpx:TrkExtension>
        </extensions>
      </trkpt>
      <trkpt lat="48.6934" lon="-3.65871">
        <ele>47.6</ele>
      </trkpt>
      <trkpt lat="48.69356" lon="-3.65856">
        <ele>49.5</ele>
      </trkpt>
      <trkpt lat="48.69367" lon="-3.65842">
        <ele>50.3</ele>
      </trkpt>
      <trkpt lat="48.69374" lon="-3.65832">
        <ele>50.8</ele>
      </trkpt>
      <trkpt lat="48.69395" lon="-3.65807">
        <ele>51.5</ele>
      </trkpt>
      <trkpt lat="48.694" lon="-3.65795">
        <ele>51.5</ele>
      </trkpt>
      <trkpt lat="48.694" lon="-3.65777">
        <ele>50.8</ele>
      </trkpt>
      <trkpt lat="48.69382" lon="-3.65728">
        <ele>48.6</ele>
      </trkpt>
      <trkpt lat="48.69379" lon="-3.65714">
        <ele>47.6</ele>
      </trkpt>
      <trkpt lat="48.69378" lon="-3.65684">
        <ele>45.9</ele>
      </trkpt>
      <trkpt lat="48.69374" lon="-3.65617">
        <ele>42.2</ele>
      </trkpt>
      <trkpt lat="48.69375" lon="-3.65606">
        <ele>41.8</ele>
      </trkpt>
      <trkpt lat="48.69379" lon="-3.65602">
        <ele>41.7</ele>
      </trkpt>
      <trkpt lat="48.69431" lon="-3.65588">
        <ele>43</ele>
      </trkpt>
      <trkpt lat="48.69447" lon="-3.65585">
        <ele>43.3</ele>
      </trkpt>
      <trkpt lat="48.6945" lon="-3.65576">
        <ele>42.1</ele>
      </trkpt>
      <trkpt lat="48.6944" lon="-3.65546">
        <ele>39</ele>
      </trkpt>
      <trkpt lat="48.69432" lon="-3.65515">
        <ele>35.4</ele>
      </trkpt>
      <trkpt lat="48.6943" lon="-3.65504">
        <ele>34</ele>
      </trkpt>
      <trkpt lat="48.69426" lon="-3.65489">
        <ele>32.5</ele>
      </trkpt>
      <trkpt lat="48.69422" lon="-3.65486">
        <ele>32.5</ele>
      </trkpt>
      <trkpt lat="48.69416" lon="-3.65487">
        <ele>33</ele>
      </trkpt>
      <trkpt lat="48.69396" lon="-3.65491">
        <ele>33.6</ele>
      </trkpt>
      <trkpt lat="48.69375" lon="-3.65496">
        <ele>33.8</ele>
      </trkpt>
      <trkpt lat="48.69361" lon="-3.65498">
        <ele>33.9</ele>
      </trkpt>
      <trkpt lat="48.69354" lon="-3.655">
        <ele>34.3</ele>
      </trkpt>
      <trkpt lat="48.69346" lon="-3.65502">
        <ele>34.7</ele>
      </trkpt>
      <trkpt lat="48.69342" lon="-3.65501">
        <ele>34.7</ele>
      </trkpt>
      <trkpt lat="48.69341" lon="-3.65499">
        <ele>34.7</ele>
      </trkpt>
      <trkpt lat="48.69339" lon="-3.65497">
        <ele>34.5</ele>
      </trkpt>
      <trkpt lat="48.69336" lon="-3.65483">
        <ele>33.7</ele>
      </trkpt>
      <trkpt lat="48.69332" lon="-3.65459">
        <ele>32.1</ele>
      </trkpt>
      <trkpt lat="48.69332" lon="-3.65457">
        <ele>31.9</ele>
      </trkpt>
      <trkpt lat="48.69318" lon="-3.6545">
        <ele>32.3</ele>
      </trkpt>
      <trkpt lat="48.69311" lon="-3.65446">
        <ele>32.6</ele>
      </trkpt>
      <trkpt lat="48.693" lon="-3.65439">
        <ele>33.3</ele>
      </trkpt>
      <trkpt lat="48.69291" lon="-3.65435">
        <ele>34.1</ele>
      </trkpt>
      <trkpt lat="48.69282" lon="-3.65433">
        <ele>35</ele>
      </trkpt>
      <trkpt lat="48.6927" lon="-3.65429">
        <ele>36</ele>
      </trkpt>
      <trkpt lat="48.69269" lon="-3.65419">
        <ele>36.3</ele>
      </trkpt>
      <trkpt lat="48.69269" lon="-3.65407">
        <ele>35.6</ele>
      </trkpt>
      <trkpt lat="48.69268" lon="-3.65388">
        <ele>34.4</ele>
      </trkpt>
      <trkpt lat="48.69266" lon="-3.65382">
        <ele>34.3</ele>
      </trkpt>
      <trkpt lat="48.69263" lon="-3.65375">
        <ele>34.3</ele>
      </trkpt>
      <trkpt lat="48.69292" lon="-3.65328">
        <ele>31</ele>
      </trkpt>
      <trkpt lat="48.69298" lon="-3.65313">
        <ele>30.6</ele>
      </trkpt>
      <trkpt lat="48.69306" lon="-3.6529">
        <ele>29.3</ele>
      </trkpt>
      <trkpt lat="48.69307" lon="-3.65288">
        <ele>29.2</ele>
      </trkpt>
      <trkpt lat="48.69313" lon="-3.65265">
        <ele>27.8</ele>
      </trkpt>
      <trkpt lat="48.69318" lon="-3.65242">
        <ele>26.9</ele>
      </trkpt>
      <trkpt lat="48.69321" lon="-3.65224">
        <ele>26.6</ele>
      </trkpt>
      <trkpt lat="48.69323" lon="-3.65205">
        <ele>25.1</ele>
      </trkpt>
      <trkpt lat="48.69323" lon="-3.65193">
        <ele>24.2</ele>
      </trkpt>
      <trkpt lat="48.69322" lon="-3.65178">
        <ele>23.5</ele>
      </trkpt>
      <trkpt lat="48.6932" lon="-3.6517">
        <ele>23.1</ele>
      </trkpt>
      <trkpt lat="48.6932" lon="-3.65167">
        <ele>23</ele>
      </trkpt>
      <trkpt lat="48.69318" lon="-3.6516">
        <ele>22.8</ele>
        <extensions>
          <visugpx:TrkExtension xmlns:visugpx="https://www.visugpx.com/editgpx/">
            <visugpx:node>13</visugpx:node>
            </visugpx:TrkExtension>
        </extensions>
      </trkpt>
      <trkpt lat="48.69309" lon="-3.65099">
        <ele>20.2</ele>
      </trkpt>
      <trkpt lat="48.69308" lon="-3.65089">
        <ele>20</ele>
      </trkpt>
      <trkpt lat="48.69306" lon="-3.65079">
        <ele>19.6</ele>
      </trkpt>
      <trkpt lat="48.69306" lon="-3.65069">
        <ele>18.9</ele>
      </trkpt>
      <trkpt lat="48.69306" lon="-3.65063">
        <ele>18.5</ele>
      </trkpt>
      <trkpt lat="48.69307" lon="-3.65038">
        <ele>17.2</ele>
      </trkpt>
      <trkpt lat="48.69309" lon="-3.65018">
        <ele>16</ele>
      </trkpt>
      <trkpt lat="48.69313" lon="-3.64993">
        <ele>14.3</ele>
      </trkpt>
      <trkpt lat="48.69317" lon="-3.64967">
        <ele>13.4</ele>
      </trkpt>
      <trkpt lat="48.69319" lon="-3.64956">
        <ele>13</ele>
      </trkpt>
      <trkpt lat="48.6932" lon="-3.64946">
        <ele>12.5</ele>
      </trkpt>
      <trkpt lat="48.69322" lon="-3.64932">
        <ele>12.4</ele>
      </trkpt>
      <trkpt lat="48.69322" lon="-3.64922">
        <ele>12.4</ele>
      </trkpt>
      <trkpt lat="48.69323" lon="-3.64913">
        <ele>12.3</ele>
      </trkpt>
      <trkpt lat="48.69322" lon="-3.64903">
        <ele>12.2</ele>
      </trkpt>
      <trkpt lat="48.69322" lon="-3.64893">
        <ele>12.1</ele>
      </trkpt>
      <trkpt lat="48.69321" lon="-3.64884">
        <ele>12</ele>
      </trkpt>
      <trkpt lat="48.69319" lon="-3.64875">
        <ele>12</ele>
      </trkpt>
      <trkpt lat="48.69316" lon="-3.64863">
        <ele>12</ele>
      </trkpt>
      <trkpt lat="48.69316" lon="-3.64862">
        <ele>12</ele>
      </trkpt>
      <trkpt lat="48.69312" lon="-3.64853">
        <ele>12</ele>
      </trkpt>
      <trkpt lat="48.69308" lon="-3.64844">
        <ele>12</ele>
      </trkpt>
      <trkpt lat="48.69305" lon="-3.64837">
        <ele>12</ele>
      </trkpt>
      <trkpt lat="48.69301" lon="-3.6483">
        <ele>12.1</ele>
      </trkpt>
      <trkpt lat="48.69295" lon="-3.64821">
        <ele>12.2</ele>
      </trkpt>
      <trkpt lat="48.69287" lon="-3.64811">
        <ele>12.1</ele>
      </trkpt>
      <trkpt lat="48.69276" lon="-3.64801">
        <ele>12</ele>
      </trkpt>
      <trkpt lat="48.69264" lon="-3.64793">
        <ele>12.3</ele>
      </trkpt>
      <trkpt lat="48.69261" lon="-3.64791">
        <ele>12.3</ele>
      </trkpt>
      <trkpt lat="48.69255" lon="-3.64789">
        <ele>12.3</ele>
      </trkpt>
      <trkpt lat="48.69247" lon="-3.64787">
        <ele>12.3</ele>
      </trkpt>
      <trkpt lat="48.69242" lon="-3.64787">
        <ele>12.3</ele>
      </trkpt>
      <trkpt lat="48.69229" lon="-3.64787">
        <ele>12.3</ele>
      </trkpt>
      <trkpt lat="48.69223" lon="-3.64788">
        <ele>12.4</ele>
      </trkpt>
      <trkpt lat="48.69214" lon="-3.64791">
        <ele>12.3</ele>
      </trkpt>
      <trkpt lat="48.69165" lon="-3.64805">
        <ele>12.9</ele>
      </trkpt>
      <trkpt lat="48.69147" lon="-3.64812">
        <ele>12.7</ele>
      </trkpt>
      <trkpt lat="48.69143" lon="-3.64813">
        <ele>12.6</ele>
      </trkpt>
      <trkpt lat="48.69125" lon="-3.64819">
        <ele>12.8</ele>
      </trkpt>
      <trkpt lat="48.69121" lon="-3.64823">
        <ele>12.9</ele>
      </trkpt>
      <trkpt lat="48.69115" lon="-3.64828">
        <ele>12.9</ele>
      </trkpt>
      <trkpt lat="48.69108" lon="-3.64835">
        <ele>13.1</ele>
      </trkpt>
      <trkpt lat="48.69105" lon="-3.64844">
        <ele>13.5</ele>
      </trkpt>
      <trkpt lat="48.691" lon="-3.64849">
        <ele>13.8</ele>
      </trkpt>
      <trkpt lat="48.69094" lon="-3.64853">
        <ele>14.2</ele>
      </trkpt>
      <trkpt lat="48.69079" lon="-3.64866">
        <ele>15.4</ele>
      </trkpt>
      <trkpt lat="48.69077" lon="-3.64869">
        <ele>15.5</ele>
      </trkpt>
      <trkpt lat="48.69054" lon="-3.64894">
        <ele>17.4</ele>
      </trkpt>
      <trkpt lat="48.69021" lon="-3.64937">
        <ele>19.8</ele>
      </trkpt>
      <trkpt lat="48.69002" lon="-3.64963">
        <ele>21.5</ele>
        <extensions>
          <visugpx:TrkExtension xmlns:visugpx="https://www.visugpx.com/editgpx/">
            <visugpx:node>14</visugpx:node>
            </visugpx:TrkExtension>
        </extensions>
      </trkpt>
      <trkpt lat="48.68971" lon="-3.65006">
        <ele>23.3</ele>
      </trkpt>
      <trkpt lat="48.68969" lon="-3.65008">
        <ele>23.3</ele>
      </trkpt>
      <trkpt lat="48.68945" lon="-3.65042">
        <ele>24.5</ele>
      </trkpt>
      <trkpt lat="48.68912" lon="-3.65084">
        <ele>25.3</ele>
      </trkpt>
      <trkpt lat="48.68878" lon="-3.65129">
        <ele>23.9</ele>
      </trkpt>
      <trkpt lat="48.68875" lon="-3.65133">
        <ele>23.8</ele>
      </trkpt>
      <trkpt lat="48.68872" lon="-3.65136">
        <ele>23.7</ele>
      </trkpt>
      <trkpt lat="48.68841" lon="-3.65181">
        <ele>22.1</ele>
      </trkpt>
      <trkpt lat="48.68824" lon="-3.65209">
        <ele>21.4</ele>
      </trkpt>
      <trkpt lat="48.68806" lon="-3.65242">
        <ele>20.8</ele>
      </trkpt>
      <trkpt lat="48.68785" lon="-3.65282">
        <ele>19.3</ele>
      </trkpt>
      <trkpt lat="48.68771" lon="-3.65308">
        <ele>18.6</ele>
      </trkpt>
      <trkpt lat="48.68764" lon="-3.65321">
        <ele>19</ele>
      </trkpt>
      <trkpt lat="48.68753" lon="-3.65334">
        <ele>19.5</ele>
      </trkpt>
      <trkpt lat="48.6874" lon="-3.65344">
        <ele>18.6</ele>
      </trkpt>
      <trkpt lat="48.68736" lon="-3.65347">
        <ele>18.7</ele>
      </trkpt>
      <trkpt lat="48.68729" lon="-3.65352">
        <ele>19.2</ele>
      </trkpt>
      <trkpt lat="48.68719" lon="-3.65355">
        <ele>20</ele>
      </trkpt>
      <trkpt lat="48.68699" lon="-3.65359">
        <ele>21.6</ele>
      </trkpt>
      <trkpt lat="48.68677" lon="-3.65361">
        <ele>23.3</ele>
      </trkpt>
      <trkpt lat="48.68661" lon="-3.65363">
        <ele>24.6</ele>
      </trkpt>
      <trkpt lat="48.68648" lon="-3.65364">
        <ele>25.2</ele>
      </trkpt>
      <trkpt lat="48.68637" lon="-3.65367">
        <ele>25.9</ele>
      </trkpt>
      <trkpt lat="48.68628" lon="-3.65371">
        <ele>26.3</ele>
      </trkpt>
      <trkpt lat="48.68599" lon="-3.65385">
        <ele>27.4</ele>
      </trkpt>
      <trkpt lat="48.68573" lon="-3.65401">
        <ele>26.9</ele>
      </trkpt>
      <trkpt lat="48.68559" lon="-3.65412">
        <ele>27</ele>
      </trkpt>
      <trkpt lat="48.68556" lon="-3.65414">
        <ele>27.2</ele>
      </trkpt>
      <trkpt lat="48.6849" lon="-3.65459">
        <ele>27.9</ele>
      </trkpt>
      <trkpt lat="48.68482" lon="-3.65463">
        <ele>27.8</ele>
      </trkpt>
      <trkpt lat="48.68479" lon="-3.65464">
        <ele>27.8</ele>
      </trkpt>
      <trkpt lat="48.68471" lon="-3.65467">
        <ele>27.9</ele>
      </trkpt>
      <trkpt lat="48.68456" lon="-3.65472">
        <ele>28.9</ele>
      </trkpt>
      <trkpt lat="48.68411" lon="-3.65481">
        <ele>29.4</ele>
      </trkpt>
      <trkpt lat="48.68405" lon="-3.65482">
        <ele>29.7</ele>
      </trkpt>
      <trkpt lat="48.68377" lon="-3.65487">
        <ele>30.9</ele>
      </trkpt>
      <trkpt lat="48.68365" lon="-3.65489">
        <ele>30.9</ele>
      </trkpt>
      <trkpt lat="48.68354" lon="-3.65493">
        <ele>30.8</ele>
      </trkpt>
      <trkpt lat="48.68332" lon="-3.65502">
        <ele>31.1</ele>
      </trkpt>
      <trkpt lat="48.68316" lon="-3.65509">
        <ele>31.2</ele>
      </trkpt>
      <trkpt lat="48.68296" lon="-3.65521">
        <ele>30.3</ele>
      </trkpt>
      <trkpt lat="48.68235" lon="-3.6557">
        <ele>26.7</ele>
      </trkpt>
      <trkpt lat="48.68212" lon="-3.65583">
        <ele>24.8</ele>
      </trkpt>
      <trkpt lat="48.68202" lon="-3.65588">
        <ele>24.3</ele>
      </trkpt>
      <trkpt lat="48.68189" lon="-3.65591">
        <ele>23.3</ele>
      </trkpt>
      <trkpt lat="48.68165" lon="-3.65596">
        <ele>21.3</ele>
      </trkpt>
      <trkpt lat="48.68149" lon="-3.65596">
        <ele>20.4</ele>
      </trkpt>
      <trkpt lat="48.68128" lon="-3.65589">
        <ele>19</ele>
      </trkpt>
      <trkpt lat="48.68098" lon="-3.65562">
        <ele>15.8</ele>
      </trkpt>
      <trkpt lat="48.68093" lon="-3.65555">
        <ele>15.6</ele>
      </trkpt>
      <trkpt lat="48.68089" lon="-3.6555">
        <ele>15.5</ele>
      </trkpt>
      <trkpt lat="48.68037" lon="-3.65462">
        <ele>15.2</ele>
      </trkpt>
      <trkpt lat="48.68035" lon="-3.65458">
        <ele>15.4</ele>
      </trkpt>
      <trkpt lat="48.68025" lon="-3.65441">
        <ele>16.4</ele>
      </trkpt>
      <trkpt lat="48.67979" lon="-3.65362">
        <ele>17</ele>
      </trkpt>
      <trkpt lat="48.67977" lon="-3.65358">
        <ele>16.9</ele>
      </trkpt>
      <trkpt lat="48.67974" lon="-3.65353">
        <ele>16.9</ele>
      </trkpt>
      <trkpt lat="48.67967" lon="-3.65339">
        <ele>17.2</ele>
      </trkpt>
      <trkpt lat="48.67958" lon="-3.65322">
        <ele>17</ele>
      </trkpt>
      <trkpt lat="48.67929" lon="-3.65272">
        <ele>17.8</ele>
        <extensions>
          <visugpx:TrkExtension xmlns:visugpx="https://www.visugpx.com/editgpx/">
            <visugpx:node>15</visugpx:node>
            </visugpx:TrkExtension>
        </extensions>
      </trkpt>
      <trkpt lat="48.67902" lon="-3.65225">
        <ele>19.2</ele>
      </trkpt>
      <trkpt lat="48.6788" lon="-3.65187">
        <ele>19.1</ele>
      </trkpt>
      <trkpt lat="48.67851" lon="-3.65135">
        <ele>19.2</ele>
      </trkpt>
      <trkpt lat="48.67801" lon="-3.65048">
        <ele>19.7</ele>
      </trkpt>
      <trkpt lat="48.67736" lon="-3.64935">
        <ele>23.1</ele>
      </trkpt>
      <trkpt lat="48.67735" lon="-3.64934">
        <ele>23.2</ele>
      </trkpt>
      <trkpt lat="48.67664" lon="-3.64808">
        <ele>21.2</ele>
      </trkpt>
      <trkpt lat="48.67605" lon="-3.64705">
        <ele>18.7</ele>
      </trkpt>
      <trkpt lat="48.67604" lon="-3.64704">
        <ele>18.8</ele>
      </trkpt>
      <trkpt lat="48.67564" lon="-3.64633">
        <ele>20.1</ele>
      </trkpt>
      <trkpt lat="48.67548" lon="-3.64605">
        <ele>21.8</ele>
      </trkpt>
      <trkpt lat="48.67528" lon="-3.64576">
        <ele>23</ele>
      </trkpt>
      <trkpt lat="48.6751" lon="-3.64554">
        <ele>24.2</ele>
      </trkpt>
      <trkpt lat="48.67487" lon="-3.64532">
        <ele>25</ele>
      </trkpt>
      <trkpt lat="48.67478" lon="-3.64525">
        <ele>25.6</ele>
      </trkpt>
      <trkpt lat="48.67462" lon="-3.64512">
        <ele>26.5</ele>
      </trkpt>
      <trkpt lat="48.6745" lon="-3.64503">
        <ele>26.9</ele>
      </trkpt>
      <trkpt lat="48.67439" lon="-3.64497">
        <ele>27.4</ele>
      </trkpt>
      <trkpt lat="48.67427" lon="-3.64491">
        <ele>28.1</ele>
      </trkpt>
      <trkpt lat="48.67403" lon="-3.64483">
        <ele>28.4</ele>
      </trkpt>
      <trkpt lat="48.67392" lon="-3.6448">
        <ele>28.1</ele>
      </trkpt>
      <trkpt lat="48.67373" lon="-3.64478">
        <ele>26.8</ele>
      </trkpt>
      <trkpt lat="48.67355" lon="-3.64477">
        <ele>26.2</ele>
      </trkpt>
      <trkpt lat="48.67321" lon="-3.64479">
        <ele>26.3</ele>
      </trkpt>
      <trkpt lat="48.67269" lon="-3.64491">
        <ele>22.8</ele>
      </trkpt>
      <trkpt lat="48.67244" lon="-3.64498">
        <ele>16.9</ele>
      </trkpt>
      <trkpt lat="48.6723" lon="-3.645">
        <ele>15.5</ele>
      </trkpt>
      <trkpt lat="48.67219" lon="-3.64501">
        <ele>14.8</ele>
      </trkpt>
      <trkpt lat="48.67208" lon="-3.64502">
        <ele>14.1</ele>
      </trkpt>
      <trkpt lat="48.67191" lon="-3.64499">
        <ele>12.7</ele>
      </trkpt>
      <trkpt lat="48.67181" lon="-3.64495">
        <ele>11.5</ele>
      </trkpt>
      <trkpt lat="48.67172" lon="-3.64489">
        <ele>10.3</ele>
      </trkpt>
      <trkpt lat="48.67164" lon="-3.64484">
        <ele>8.7</ele>
      </trkpt>
      <trkpt lat="48.67152" lon="-3.64476">
        <ele>5.7</ele>
      </trkpt>
      <trkpt lat="48.67098" lon="-3.6443">
        <ele>1</ele>
      </trkpt>
      <trkpt lat="48.67039" lon="-3.64388">
        <ele>5.3</ele>
      </trkpt>
      <trkpt lat="48.67012" lon="-3.64366">
        <ele>5.3</ele>
      </trkpt>
      <trkpt lat="48.67005" lon="-3.64358">
        <ele>6</ele>
      </trkpt>
      <trkpt lat="48.66999" lon="-3.6435">
        <ele>5.8</ele>
      </trkpt>
      <trkpt lat="48.66993" lon="-3.64341">
        <ele>5.2</ele>
      </trkpt>
      <trkpt lat="48.66987" lon="-3.64332">
        <ele>4.9</ele>
      </trkpt>
      <trkpt lat="48.66981" lon="-3.64317">
        <ele>5.5</ele>
      </trkpt>
      <trkpt lat="48.66975" lon="-3.64302">
        <ele>6.3</ele>
      </trkpt>
      <trkpt lat="48.6697" lon="-3.64286">
        <ele>5.6</ele>
      </trkpt>
      <trkpt lat="48.66966" lon="-3.6427">
        <ele>5.2</ele>
      </trkpt>
      <trkpt lat="48.66964" lon="-3.64256">
        <ele>5.3</ele>
      </trkpt>
      <trkpt lat="48.66963" lon="-3.64243">
        <ele>5.3</ele>
      </trkpt>
      <trkpt lat="48.66962" lon="-3.64223">
        <ele>5.4</ele>
      </trkpt>
      <trkpt lat="48.66963" lon="-3.64206">
        <ele>4.8</ele>
      </trkpt>
      <trkpt lat="48.66965" lon="-3.64152">
        <ele>5.2</ele>
      </trkpt>
      <trkpt lat="48.66968" lon="-3.6412">
        <ele>5.3</ele>
      </trkpt>
      <trkpt lat="48.66971" lon="-3.64076">
        <ele>6</ele>
      </trkpt>
      <trkpt lat="48.66976" lon="-3.64032">
        <ele>5.6</ele>
      </trkpt>
      <trkpt lat="48.66981" lon="-3.63997">
        <ele>3.7</ele>
      </trkpt>
      <trkpt lat="48.66987" lon="-3.63967">
        <ele>4.2</ele>
      </trkpt>
      <trkpt lat="48.67005" lon="-3.63881">
        <ele>5.5</ele>
      </trkpt>
      <trkpt lat="48.67015" lon="-3.63837">
        <ele>5.9</ele>
      </trkpt>
      <trkpt lat="48.67033" lon="-3.63772">
        <ele>5.7</ele>
        <extensions>
          <visugpx:TrkExtension xmlns:visugpx="https://www.visugpx.com/editgpx/">
            <visugpx:node>16</visugpx:node>
            </visugpx:TrkExtension>
        </extensions>
      </trkpt>
      <trkpt lat="48.67054" lon="-3.63697">
        <ele>6.1</ele>
      </trkpt>
      <trkpt lat="48.67062" lon="-3.63671">
        <ele>6</ele>
      </trkpt>
      <trkpt lat="48.67064" lon="-3.63661">
        <ele>6.4</ele>
      </trkpt>
      <trkpt lat="48.67068" lon="-3.63647">
        <ele>7.2</ele>
      </trkpt>
      <trkpt lat="48.67072" lon="-3.63625">
        <ele>7.4</ele>
      </trkpt>
      <trkpt lat="48.67075" lon="-3.63605">
        <ele>6.8</ele>
      </trkpt>
      <trkpt lat="48.67082" lon="-3.6355">
        <ele>5.5</ele>
      </trkpt>
      <trkpt lat="48.67084" lon="-3.63541">
        <ele>5.5</ele>
      </trkpt>
      <trkpt lat="48.67086" lon="-3.63528">
        <ele>5.7</ele>
      </trkpt>
      <trkpt lat="48.67088" lon="-3.63512">
        <ele>5.3</ele>
      </trkpt>
      <trkpt lat="48.67092" lon="-3.63499">
        <ele>4.8</ele>
      </trkpt>
      <trkpt lat="48.67094" lon="-3.63491">
        <ele>5</ele>
      </trkpt>
      <trkpt lat="48.67095" lon="-3.63488">
        <ele>5.1</ele>
      </trkpt>
      <trkpt lat="48.671" lon="-3.63481">
        <ele>5.1</ele>
      </trkpt>
      <trkpt lat="48.67106" lon="-3.63473">
        <ele>5.3</ele>
      </trkpt>
      <trkpt lat="48.6712" lon="-3.63464">
        <ele>5.6</ele>
      </trkpt>
      <trkpt lat="48.67125" lon="-3.63462">
        <ele>5.9</ele>
      </trkpt>
      <trkpt lat="48.6713" lon="-3.63462">
        <ele>6.1</ele>
      </trkpt>
      <trkpt lat="48.67185" lon="-3.63453">
        <ele>11.6</ele>
      </trkpt>
      <trkpt lat="48.67214" lon="-3.63449">
        <ele>13.1</ele>
      </trkpt>
      <trkpt lat="48.67233" lon="-3.63449">
        <ele>14.5</ele>
      </trkpt>
      <trkpt lat="48.67245" lon="-3.63451">
        <ele>15.9</ele>
      </trkpt>
      <trkpt lat="48.6731" lon="-3.6347">
        <ele>18.4</ele>
      </trkpt>
      <trkpt lat="48.6734" lon="-3.6348">
        <ele>20.2</ele>
      </trkpt>
      <trkpt lat="48.67381" lon="-3.63493">
        <ele>22.1</ele>
      </trkpt>
      <trkpt lat="48.67387" lon="-3.635">
        <ele>22</ele>
      </trkpt>
      <trkpt lat="48.67394" lon="-3.63506">
        <ele>22.1</ele>
      </trkpt>
      <trkpt lat="48.67405" lon="-3.63515">
        <ele>22.3</ele>
      </trkpt>
      <trkpt lat="48.67417" lon="-3.63525">
        <ele>22.1</ele>
      </trkpt>
      <trkpt lat="48.67483" lon="-3.63581">
        <ele>19.1</ele>
      </trkpt>
      <trkpt lat="48.67515" lon="-3.63609">
        <ele>18</ele>
      </trkpt>
      <trkpt lat="48.67532" lon="-3.63623">
        <ele>17.1</ele>
      </trkpt>
      <trkpt lat="48.6757" lon="-3.63655">
        <ele>18.5</ele>
      </trkpt>
      <trkpt lat="48.67576" lon="-3.63659">
        <ele>18.6</ele>
      </trkpt>
      <trkpt lat="48.67588" lon="-3.63664">
        <ele>18.6</ele>
      </trkpt>
      <trkpt lat="48.67619" lon="-3.63675">
        <ele>18.5</ele>
      </trkpt>
      <trkpt lat="48.67642" lon="-3.63683">
        <ele>19.4</ele>
      </trkpt>
      <trkpt lat="48.67644" lon="-3.63684">
        <ele>19.4</ele>
      </trkpt>
      <trkpt lat="48.67685" lon="-3.63697">
        <ele>18.7</ele>
      </trkpt>
      <trkpt lat="48.67697" lon="-3.63699">
        <ele>18.4</ele>
      </trkpt>
      <trkpt lat="48.67706" lon="-3.637">
        <ele>18.2</ele>
      </trkpt>
      <trkpt lat="48.67715" lon="-3.63699">
        <ele>18.3</ele>
      </trkpt>
      <trkpt lat="48.67732" lon="-3.63697">
        <ele>18.6</ele>
      </trkpt>
      <trkpt lat="48.67751" lon="-3.63692">
        <ele>19.4</ele>
      </trkpt>
      <trkpt lat="48.6778" lon="-3.63683">
        <ele>19.5</ele>
      </trkpt>
      <trkpt lat="48.67863" lon="-3.6366">
        <ele>20.5</ele>
      </trkpt>
      <trkpt lat="48.67875" lon="-3.63656">
        <ele>21.2</ele>
      </trkpt>
      <trkpt lat="48.67928" lon="-3.63642">
        <ele>23.1</ele>
      </trkpt>
      <trkpt lat="48.67986" lon="-3.63624">
        <ele>25.4</ele>
        <extensions>
          <visugpx:TrkExtension xmlns:visugpx="https://www.visugpx.com/editgpx/">
            <visugpx:node>17</visugpx:node>
            </visugpx:TrkExtension>
        </extensions>
      </trkpt>
      <trkpt lat="48.67987" lon="-3.63624">
        <ele>25.3</ele>
      </trkpt>
      <trkpt lat="48.67992" lon="-3.63622">
        <ele>25.2</ele>
      </trkpt>
      <trkpt lat="48.68005" lon="-3.63618">
        <ele>25.3</ele>
      </trkpt>
      <trkpt lat="48.68017" lon="-3.63612">
        <ele>25.9</ele>
      </trkpt>
      <trkpt lat="48.68025" lon="-3.63606">
        <ele>26.3</ele>
      </trkpt>
      <trkpt lat="48.68036" lon="-3.63596">
        <ele>26.5</ele>
      </trkpt>
      <trkpt lat="48.68043" lon="-3.63587">
        <ele>27.1</ele>
      </trkpt>
      <trkpt lat="48.68053" lon="-3.63572">
        <ele>27.9</ele>
      </trkpt>
      <trkpt lat="48.68058" lon="-3.63561">
        <ele>28.4</ele>
      </trkpt>
      <trkpt lat="48.68061" lon="-3.63553">
        <ele>28.7</ele>
      </trkpt>
      <trkpt lat="48.68067" lon="-3.63536">
        <ele>29.2</ele>
      </trkpt>
      <trkpt lat="48.68072" lon="-3.6352">
        <ele>30</ele>
      </trkpt>
      <trkpt lat="48.68073" lon="-3.63507">
        <ele>30.8</ele>
      </trkpt>
      <trkpt lat="48.68074" lon="-3.63493">
        <ele>31.8</ele>
      </trkpt>
      <trkpt lat="48.68074" lon="-3.63468">
        <ele>33.1</ele>
      </trkpt>
      <trkpt lat="48.68071" lon="-3.63445">
        <ele>34</ele>
      </trkpt>
      <trkpt lat="48.68051" lon="-3.6328">
        <ele>37.1</ele>
      </trkpt>
      <trkpt lat="48.68048" lon="-3.63244">
        <ele>39</ele>
      </trkpt>
      <trkpt lat="48.68048" lon="-3.63232">
        <ele>39.8</ele>
      </trkpt>
      <trkpt lat="48.68049" lon="-3.63226">
        <ele>40.2</ele>
      </trkpt>
      <trkpt lat="48.68051" lon="-3.63133">
        <ele>42.3</ele>
      </trkpt>
      <trkpt lat="48.68053" lon="-3.63088">
        <ele>43</ele>
      </trkpt>
      <trkpt lat="48.68056" lon="-3.62976">
        <ele>42</ele>
      </trkpt>
      <trkpt lat="48.68057" lon="-3.62949">
        <ele>42</ele>
      </trkpt>
      <trkpt lat="48.68058" lon="-3.62933">
        <ele>42</ele>
      </trkpt>
      <trkpt lat="48.6806" lon="-3.62919">
        <ele>42</ele>
      </trkpt>
      <trkpt lat="48.68069" lon="-3.62889">
        <ele>42</ele>
      </trkpt>
      <trkpt lat="48.68077" lon="-3.62866">
        <ele>41.4</ele>
      </trkpt>
      <trkpt lat="48.68081" lon="-3.62846">
        <ele>41.6</ele>
      </trkpt>
      <trkpt lat="48.68084" lon="-3.62825">
        <ele>42</ele>
      </trkpt>
      <trkpt lat="48.68088" lon="-3.62789">
        <ele>42.4</ele>
      </trkpt>
      <trkpt lat="48.68108" lon="-3.62612">
        <ele>47.9</ele>
      </trkpt>
      <trkpt lat="48.68112" lon="-3.62576">
        <ele>49.5</ele>
        <extensions>
          <visugpx:TrkExtension xmlns:visugpx="https://www.visugpx.com/editgpx/">
            <visugpx:node>18</visugpx:node>
            </visugpx:TrkExtension>
        </extensions>
      </trkpt>
      <trkpt lat="48.68116" lon="-3.62542">
        <ele>51.8</ele>
      </trkpt>
      <trkpt lat="48.68118" lon="-3.62526">
        <ele>52.9</ele>
      </trkpt>
      <trkpt lat="48.68133" lon="-3.62395">
        <ele>56.2</ele>
      </trkpt>
      <trkpt lat="48.68134" lon="-3.62373">
        <ele>56.3</ele>
      </trkpt>
      <trkpt lat="48.68134" lon="-3.62357">
        <ele>56.5</ele>
      </trkpt>
      <trkpt lat="48.68133" lon="-3.62347">
        <ele>56.9</ele>
      </trkpt>
      <trkpt lat="48.68133" lon="-3.62336">
        <ele>57.3</ele>
      </trkpt>
      <trkpt lat="48.68128" lon="-3.62298">
        <ele>57.7</ele>
      </trkpt>
      <trkpt lat="48.68112" lon="-3.62221">
        <ele>57</ele>
      </trkpt>
      <trkpt lat="48.68103" lon="-3.6217">
        <ele>58.4</ele>
      </trkpt>
      <trkpt lat="48.68102" lon="-3.62148">
        <ele>59.1</ele>
      </trkpt>
      <trkpt lat="48.68102" lon="-3.62131">
        <ele>59.6</ele>
      </trkpt>
      <trkpt lat="48.68106" lon="-3.62089">
        <ele>60.8</ele>
      </trkpt>
      <trkpt lat="48.68107" lon="-3.62055">
        <ele>61.1</ele>
      </trkpt>
      <trkpt lat="48.68105" lon="-3.6204">
        <ele>60.9</ele>
      </trkpt>
      <trkpt lat="48.68104" lon="-3.62023">
        <ele>60.9</ele>
      </trkpt>
      <trkpt lat="48.68102" lon="-3.62001">
        <ele>61.7</ele>
      </trkpt>
      <trkpt lat="48.68097" lon="-3.61975">
        <ele>62.5</ele>
      </trkpt>
      <trkpt lat="48.68079" lon="-3.61943">
        <ele>64.4</ele>
      </trkpt>
      <trkpt lat="48.68072" lon="-3.61933">
        <ele>64.9</ele>
      </trkpt>
      <trkpt lat="48.68063" lon="-3.61927">
        <ele>65.2</ele>
      </trkpt>
      <trkpt lat="48.68054" lon="-3.61924">
        <ele>65.2</ele>
      </trkpt>
      <trkpt lat="48.68045" lon="-3.61924">
        <ele>64.6</ele>
      </trkpt>
      <trkpt lat="48.68041" lon="-3.61927">
        <ele>64.5</ele>
        <extensions>
          <visugpx:TrkExtension xmlns:visugpx="https://www.visugpx.com/editgpx/">
            <visugpx:node>19</visugpx:node>
            </visugpx:TrkExtension>
        </extensions>
      </trkpt>
      <trkpt lat="48.67994" lon="-3.61953">
        <ele>61.2</ele>
      </trkpt>
      <trkpt lat="48.67954" lon="-3.61978">
        <ele>58.9</ele>
      </trkpt>
      <trkpt lat="48.67937" lon="-3.61984">
        <ele>57.9</ele>
      </trkpt>
      <trkpt lat="48.67916" lon="-3.61989">
        <ele>56.6</ele>
      </trkpt>
      <trkpt lat="48.67878" lon="-3.61997">
        <ele>55.8</ele>
      </trkpt>
      <trkpt lat="48.67877" lon="-3.62007">
        <ele>56.3</ele>
        <extensions>
          <visugpx:TrkExtension xmlns:visugpx="https://www.visugpx.com/editgpx/">
            <visugpx:node>20</visugpx:node>
            </visugpx:TrkExtension>
        </extensions>
      </trkpt>
    </trkseg>
  </trk>
</gpx>